Time,TemperatureF,DewpointF,PressureIn,WindDirection,WindDirectionDegrees,WindSpeedMPH,WindSpeedGustMPH,Humidity,HourlyPrecipIn,Conditions,Clouds,dailyrainin,SolarRadiationWatts/m^2,SoftwareType,DateUTC
2013-07-18 00:00:00,77.4,72.1,30.17,NW,314,2.2,2.2,84,0.00,,,0.00,0.00,VWS V14.01,2013-07-18 04:00:00,
2013-07-18 00:01:00,76.9,72.1,30.19,NW,321,3.2,3.2,85,0.00,,,0.00,0.00,VWS V14.01,2013-07-18 04:01:00,
2013-07-18 00:02:00,76.9,72.1,30.19,NW,321,3.2,3.2,85,0.00,,,0.00,0.00,VWS V14.01,2013-07-18 04:02:00,
2013-07-18 00:03:00,77.5,72.2,30.17,NW,314,1.8,1.8,84,0.00,,,0.00,0.00,VWS V14.01,2013-07-18 04:03:00,
2013-07-18 00:04:00,77.3,72.0,30.17,NW,314,1.8,1.8,84,0.00,,,0.00,0.00,VWS V14.01,2013-07-18 04:04:00,
2013-07-18 00:05:00,76.5,71.2,30.16,NW,323,3.4,3.4,84,0.00,,,0.00,0.73,VWS V14.01,2013-07-18 04:05:00,
2013-07-18 00:06:00,77.0,71.7,30.16,NW,324,2.8,2.8,84,0.00,,,0.00,0.00,VWS V14.01,2013-07-18 04:06:00,
2013-07-18 00:07:00,76.9,71.6,30.16,NNW,330,2.2,2.8,84,0.00,,,0.00,0.00,VWS V14.01,2013-07-18 04:07:00,
2013-07-18 00:08:00,77.0,71.6,30.16,NNW,330,0.0,2.8,83,0.00,,,0.00,0.00,VWS V14.01,2013-07-18 04:08:00,
2013-07-18 00:09:00,76.9,71.5,30.16,NW,320,2.2,3.7,83,0.00,,,0.00,0.00,VWS V14.01,2013-07-18 04:09:00,
2013-07-18 00:10:00,77.4,72.2,30.17,NW,314,0.0,0.0,84,0.00,,,0.00,0.12,VWS V14.01,2013-07-18 04:10:00,
2013-07-18 00:11:00,76.8,71.2,30.16,NW,326,2.0,2.5,83,0.00,,,0.00,0.43,VWS V14.01,2013-07-18 04:11:00,
2013-07-18 00:12:00,77.5,72.2,30.17,NW,314,0.0,0.0,84,0.00,,,0.00,0.00,VWS V14.01,2013-07-18 04:12:00,
2013-07-18 00:13:00,77.6,71.6,30.17,NNW,329,3.4,3.9,82,0.00,,,0.00,0.00,VWS V14.01,2013-07-18 04:13:00,
2013-07-18 00:14:00,77.3,72.0,30.17,NW,314,0.0,0.0,84,0.00,,,0.00,0.00,VWS V14.01,2013-07-18 04:14:00,
2013-07-18 00:15:00,77.0,70.7,30.17,NNW,327,0.0,0.0,81,0.00,,,0.00,0.00,VWS V14.01,2013-07-18 04:15:00,
2013-07-18 00:16:00,77.1,71.9,30.17,NW,314,1.0,2.0,84,0.00,,,0.00,0.00,VWS V14.01,2013-07-18 04:16:00,
2013-07-18 00:17:00,77.6,71.2,30.17,NNW,334,3.2,3.2,81,0.00,,,0.00,0.00,VWS V14.01,2013-07-18 04:17:00,
2013-07-18 00:18:00,77.3,70.9,30.17,NW,325,2.0,3.2,81,0.00,,,0.00,0.00,VWS V14.01,2013-07-18 04:18:00,
2013-07-18 00:19:00,77.1,70.7,30.17,NW,325,2.2,2.2,81,0.00,,,0.00,0.49,VWS V14.01,2013-07-18 04:19:00,
2013-07-18 00:20:00,77.3,70.9,30.17,NNW,335,1.6,1.6,81,0.00,,,0.00,0.00,VWS V14.01,2013-07-18 04:20:00,
2013-07-18 00:21:00,77.5,72.4,30.18,NW,314,1.6,2.0,84,0.00,,,0.00,0.00,VWS V14.01,2013-07-18 04:21:00,
2013-07-18 00:22:00,77.2,70.8,30.16,NNW,335,2.2,2.2,80,0.00,,,0.00,0.00,VWS V14.01,2013-07-18 04:22:00,
2013-07-18 00:23:00,77.2,70.9,30.17,NW,321,2.8,2.8,81,0.00,,,0.00,0.00,VWS V14.01,2013-07-18 04:23:00,
2013-07-18 00:24:00,76.4,70.1,30.17,NW,321,2.2,2.8,81,0.00,,,0.00,0.00,VWS V14.01,2013-07-18 04:24:00,
2013-07-18 00:25:00,76.8,70.6,30.17,NNW,327,2.7,3.9,81,0.00,,,0.00,0.00,VWS V14.01,2013-07-18 04:25:00,
2013-07-18 00:26:00,77.3,72.1,30.17,NW,314,0.0,0.0,84,0.00,,,0.00,0.00,VWS V14.01,2013-07-18 04:26:00,
2013-07-18 00:27:00,77.3,72.2,30.17,NW,314,0.0,0.0,84,0.00,,,0.00,0.00,VWS V14.01,2013-07-18 04:27:00,
2013-07-18 00:28:00,77.1,70.8,30.17,NW,323,3.0,3.9,81,0.00,,,0.00,0.12,VWS V14.01,2013-07-18 04:28:00,
2013-07-18 00:29:00,77.5,71.2,30.17,NW,308,4.0,4.0,81,0.00,,,0.00,0.00,VWS V14.01,2013-07-18 04:29:00,
2013-07-18 00:30:00,78.2,73.1,30.17,NW,314,2.2,2.2,84,0.00,,,0.00,0.00,VWS V14.01,2013-07-18 04:30:00,
2013-07-18 00:31:00,76.7,70.6,30.16,NW,314,2.8,2.8,82,0.00,,,0.00,0.43,VWS V14.01,2013-07-18 04:31:00,
2013-07-18 00:32:00,77.4,71.9,30.18,NW,314,0.0,0.0,83,0.00,,,0.00,0.00,VWS V14.01,2013-07-18 04:32:00,
2013-07-18 00:33:00,76.8,70.7,30.16,NW,315,4.7,4.7,82,0.00,,,0.00,0.43,VWS V14.01,2013-07-18 04:33:00,
2013-07-18 00:34:00,77.5,72.0,30.17,NW,314,0.0,0.0,83,0.00,,,0.00,0.00,VWS V14.01,2013-07-18 04:34:00,
2013-07-18 00:35:00,76.9,70.7,30.16,NW,326,4.5,4.5,81,0.00,,,0.00,0.00,VWS V14.01,2013-07-18 04:35:00,
2013-07-18 00:36:00,77.4,72.2,30.18,NW,314,0.0,0.0,84,0.00,,,0.00,0.00,VWS V14.01,2013-07-18 04:36:00,
2013-07-18 00:37:00,77.5,71.2,30.16,NW,314,4.5,4.5,81,0.00,,,0.00,0.00,VWS V14.01,2013-07-18 04:37:00,
2013-07-18 00:38:00,77.5,71.1,30.16,NW,326,4.7,4.7,81,0.00,,,0.00,0.00,VWS V14.01,2013-07-18 04:38:00,
2013-07-18 00:39:00,77.3,72.1,30.17,NW,314,0.0,1.3,84,0.00,,,0.00,0.00,VWS V14.01,2013-07-18 04:39:00,
2013-07-18 00:40:00,77.1,70.7,30.16,NW,313,2.7,2.7,81,0.00,,,0.00,0.00,VWS V14.01,2013-07-18 04:40:00,
2013-07-18 00:41:00,76.6,71.6,30.17,NW,314,0.0,0.0,85,0.00,,,0.00,0.00,VWS V14.01,2013-07-18 04:41:00,
2013-07-18 00:42:00,77.3,71.2,30.16,NW,324,4.9,4.9,82,0.00,,,0.00,0.00,VWS V14.01,2013-07-18 04:42:00,
2013-07-18 00:43:00,76.9,70.7,30.15,NW,326,2.7,3.2,81,0.00,,,0.00,0.43,VWS V14.01,2013-07-18 04:43:00,
2013-07-18 00:44:00,76.9,72.6,30.17,NW,314,0.0,0.0,87,0.00,,,0.00,0.73,VWS V14.01,2013-07-18 04:44:00,
2013-07-18 00:45:00,76.6,70.4,30.16,NW,324,2.2,2.8,81,0.00,,,0.00,0.37,VWS V14.01,2013-07-18 04:45:00,
2013-07-18 00:46:00,77.2,72.7,30.17,NW,314,1.8,1.8,86,0.00,,,0.00,0.43,VWS V14.01,2013-07-18 04:46:00,
2013-07-18 00:47:00,76.8,70.7,30.16,NW,314,3.2,3.5,81,0.00,,,0.00,0.43,VWS V14.01,2013-07-18 04:47:00,
2013-07-18 00:48:00,76.6,70.6,30.16,NW,311,4.0,4.0,82,0.00,,,0.00,0.00,VWS V14.01,2013-07-18 04:48:00,
2013-07-18 00:49:00,77.5,72.8,30.19,NW,314,0.0,0.0,86,0.00,,,0.00,0.00,VWS V14.01,2013-07-18 04:49:00,
2013-07-18 00:50:00,76.4,70.6,30.16,NNW,327,3.0,4.4,82,0.00,,,0.00,0.43,VWS V14.01,2013-07-18 04:50:00,
2013-07-18 00:51:00,76.8,71.8,30.17,NW,314,0.0,1.3,85,0.00,,,0.00,0.00,VWS V14.01,2013-07-18 04:51:00,
2013-07-18 00:52:00,77.3,72.3,30.17,NW,314,0.0,0.0,85,0.00,,,0.00,0.00,VWS V14.01,2013-07-18 04:52:00,
2013-07-18 00:53:00,76.6,70.8,30.15,NW,317,3.2,3.2,82,0.00,,,0.00,0.00,VWS V14.01,2013-07-18 04:53:00,
2013-07-18 00:54:00,76.6,70.8,30.16,NW,326,3.4,3.4,82,0.00,,,0.00,0.00,VWS V14.01,2013-07-18 04:54:00,
2013-07-18 00:55:00,76.6,70.8,30.16,North,351,2.3,3.4,83,0.00,,,0.00,0.12,VWS V14.01,2013-07-18 04:55:00,
2013-07-18 00:56:00,76.9,71.8,30.17,NW,314,2.8,2.8,84,0.00,,,0.00,0.00,VWS V14.01,2013-07-18 04:56:00,
2013-07-18 00:57:00,76.7,71.0,30.16,WNW,303,1.8,1.8,83,0.00,,,0.00,0.43,VWS V14.01,2013-07-18 04:57:00,
2013-07-18 00:58:00,76.0,71.0,30.17,NNW,328,2.7,3.0,85,0.00,,,0.00,0.00,VWS V14.01,2013-07-18 04:58:00,
2013-07-18 00:59:00,76.2,70.6,30.16,WNW,303,0.0,0.0,83,0.00,,,0.00,0.00,VWS V14.01,2013-07-18 04:59:00,
2013-07-18 01:00:00,77.1,71.5,30.15,WNW,303,1.5,1.5,83,0.00,,,0.00,0.00,VWS V14.01,2013-07-18 05:00:00,
2013-07-18 01:03:00,76.4,70.8,30.16,WNW,303,0.0,1.1,83,0.00,,,0.04,0.00,VWS V14.01,2013-07-18 05:03:00,
2013-07-18 01:04:00,76.4,70.8,30.16,WNW,303,0.0,1.1,83,0.00,,,0.00,0.00,VWS V14.01,2013-07-18 05:04:00,
2013-07-18 01:06:00,75.9,70.6,30.15,WNW,303,0.0,2.0,84,0.00,,,0.00,0.00,VWS V14.01,2013-07-18 05:06:00,
2013-07-18 01:07:00,75.8,70.7,30.17,WNW,303,0.0,2.0,84,0.00,,,0.00,0.00,VWS V14.01,2013-07-18 05:07:00,
2013-07-18 01:08:00,75.8,70.7,30.15,WNW,303,1.8,2.0,84,0.00,,,0.00,0.00,VWS V14.01,2013-07-18 05:08:00,
2013-07-18 01:09:00,75.8,71.1,30.16,WNW,303,1.5,2.0,85,0.00,,,0.00,0.00,VWS V14.01,2013-07-18 05:09:00,
2013-07-18 01:13:00,74.9,70.8,30.16,WNW,303,0.0,2.0,87,0.00,,,0.00,0.00,VWS V14.01,2013-07-18 05:13:00,
2013-07-18 01:14:00,75.7,71.8,30.16,WNW,303,0.0,2.0,88,0.00,,,0.00,0.43,VWS V14.01,2013-07-18 05:14:00,
2013-07-18 01:15:00,74.7,70.8,30.16,WNW,303,0.0,2.0,88,0.00,,,0.00,0.00,VWS V14.01,2013-07-18 05:15:00,
2013-07-18 01:16:00,75.6,72.0,30.15,WNW,303,1.3,2.0,89,0.00,,,0.00,0.00,VWS V14.01,2013-07-18 05:16:00,
2013-07-18 01:17:00,75.6,72.1,30.16,WNW,303,1.1,2.0,89,0.00,,,0.00,0.00,VWS V14.01,2013-07-18 05:17:00,
2013-07-18 01:19:00,74.7,70.9,30.15,WNW,303,0.0,2.0,88,0.00,,,0.00,0.00,VWS V14.01,2013-07-18 05:19:00,
2013-07-18 01:20:00,74.1,70.3,30.15,West,271,1.3,2.0,88,0.00,,,0.00,0.00,VWS V14.01,2013-07-18 05:20:00,
2013-07-18 01:22:00,73.8,70.4,30.16,West,267,2.0,2.2,89,0.00,,,0.00,0.00,VWS V14.01,2013-07-18 05:22:00,
2013-07-18 01:24:00,74.2,71.2,30.15,WSW,256,2.0,2.2,90,0.00,,,0.00,0.43,VWS V14.01,2013-07-18 05:24:00,
2013-07-18 01:25:00,74.1,71.3,30.15,WSW,251,2.2,2.2,91,0.00,,,0.00,0.00,VWS V14.01,2013-07-18 05:25:00,
2013-07-18 01:26:00,74.2,71.5,30.15,WSW,251,2.0,2.2,91,0.00,,,0.00,0.06,VWS V14.01,2013-07-18 05:26:00,
2013-07-18 01:28:00,74.5,71.8,30.16,WSW,251,3.2,3.2,91,0.00,,,0.00,0.00,VWS V14.01,2013-07-18 05:28:00,
2013-07-18 01:29:00,74.5,71.8,30.15,WSW,251,3.0,3.2,91,0.00,,,0.00,0.00,VWS V14.01,2013-07-18 05:29:00,
2013-07-18 01:32:00,74.8,71.9,30.15,WSW,251,2.0,3.2,91,0.00,,,0.00,0.00,VWS V14.01,2013-07-18 05:32:00,
2013-07-18 01:34:00,74.6,71.7,30.16,WSW,251,2.0,3.2,91,0.00,,,0.00,0.12,VWS V14.01,2013-07-18 05:34:00,
2013-07-18 01:36:00,73.9,71.0,30.16,WSW,251,0.0,3.2,91,0.00,,,0.00,0.43,VWS V14.01,2013-07-18 05:36:00,
2013-07-18 01:38:00,73.8,71.0,30.15,WSW,251,0.0,3.2,91,0.00,,,0.00,0.00,VWS V14.01,2013-07-18 05:38:00,
2013-07-18 01:39:00,73.6,70.8,30.16,WSW,251,0.0,3.2,91,0.00,,,0.00,0.00,VWS V14.01,2013-07-18 05:39:00,
2013-07-18 01:41:00,73.8,71.3,30.17,WSW,251,1.1,3.2,92,0.00,,,0.00,0.00,VWS V14.01,2013-07-18 05:41:00,
2013-07-18 01:43:00,74.1,71.8,30.16,WSW,251,0.0,3.2,93,0.00,,,0.00,0.00,VWS V14.01,2013-07-18 05:43:00,
2013-07-18 01:44:00,73.9,71.5,30.16,WSW,251,0.0,3.2,92,0.00,,,0.00,0.00,VWS V14.01,2013-07-18 05:44:00,
2013-07-18 01:45:00,73.8,71.3,30.16,WSW,251,0.0,3.2,92,0.00,,,0.00,0.00,VWS V14.01,2013-07-18 05:45:00,
2013-07-18 01:47:00,73.8,71.5,30.14,WSW,251,0.0,3.2,92,0.00,,,0.00,0.43,VWS V14.01,2013-07-18 05:47:00,
2013-07-18 01:49:00,73.4,71.1,30.16,WSW,251,0.0,3.2,93,0.00,,,0.00,0.00,VWS V14.01,2013-07-18 05:49:00,
2013-07-18 01:52:00,73.3,71.2,30.16,WSW,251,0.0,3.2,93,0.00,,,0.00,0.00,VWS V14.01,2013-07-18 05:52:00,
2013-07-18 01:53:00,73.4,71.4,30.15,WSW,251,0.0,3.2,94,0.00,,,0.00,0.00,VWS V14.01,2013-07-18 05:53:00,
2013-07-18 01:54:00,73.2,71.2,30.15,WSW,251,0.0,3.2,93,0.00,,,0.00,0.00,VWS V14.01,2013-07-18 05:54:00,
2013-07-18 01:55:00,73.3,71.2,30.15,WSW,251,0.0,3.2,93,0.00,,,0.00,0.00,VWS V14.01,2013-07-18 05:55:00,
2013-07-18 01:56:00,73.2,71.2,30.15,WSW,251,0.0,3.2,93,0.00,,,0.00,0.00,VWS V14.01,2013-07-18 05:56:00,
2013-07-18 01:58:00,73.6,70.8,30.15,WSW,251,0.0,3.2,91,0.00,,,0.00,0.00,VWS V14.01,2013-07-18 05:58:00,
2013-07-18 02:00:00,73.2,71.2,30.16,WSW,251,0.0,3.2,94,0.00,,,0.00,0.00,VWS V14.01,2013-07-18 06:00:00,
2013-07-18 02:01:00,73.2,71.2,30.16,WSW,251,0.0,3.2,94,0.00,,,0.00,0.00,VWS V14.01,2013-07-18 06:01:00,
2013-07-18 02:03:00,73.1,71.2,30.16,WSW,251,0.0,3.2,94,0.00,,,0.00,0.00,VWS V14.01,2013-07-18 06:03:00,
2013-07-18 02:04:00,73.0,71.1,30.16,WSW,251,0.0,3.2,94,0.00,,,0.00,0.00,VWS V14.01,2013-07-18 06:04:00,
2013-07-18 02:05:00,76.7,71.3,30.16,NNW,333,2.7,3.4,83,0.00,,,0.00,0.00,VWS V14.01,2013-07-18 06:05:00,
2013-07-18 02:06:00,72.9,71.1,30.15,WSW,251,0.0,3.2,94,0.00,,,0.00,0.00,VWS V14.01,2013-07-18 06:06:00,
2013-07-18 02:07:00,77.0,71.6,30.17,NNW,330,0.0,2.8,83,0.00,,,0.00,0.00,VWS V14.01,2013-07-18 06:07:00,
2013-07-18 02:08:00,72.6,70.8,30.15,WSW,251,0.0,3.2,94,0.00,,,0.00,0.00,VWS V14.01,2013-07-18 06:08:00,
2013-07-18 02:09:00,73.0,71.2,30.15,WSW,251,0.0,3.2,94,0.00,,,0.00,0.00,VWS V14.01,2013-07-18 06:09:00,
2013-07-18 02:10:00,73.2,71.8,30.16,WSW,251,0.0,3.2,95,0.00,,,0.00,0.43,VWS V14.01,2013-07-18 06:10:00,
2013-07-18 02:11:00,77.2,71.7,30.17,NNW,347,2.0,2.5,83,0.00,,,0.00,0.00,VWS V14.01,2013-07-18 06:11:00,
2013-07-18 02:12:00,73.7,72.4,30.16,WSW,251,0.0,3.2,96,0.00,,,0.00,0.12,VWS V14.01,2013-07-18 06:12:00,
2013-07-18 02:13:00,73.7,72.6,30.16,WSW,251,0.0,3.2,96,0.00,,,0.00,0.00,VWS V14.01,2013-07-18 06:13:00,
2013-07-18 02:14:00,77.6,71.2,30.17,NNW,327,0.0,3.4,81,0.00,,,0.00,0.00,VWS V14.01,2013-07-18 06:14:00,
2013-07-18 02:15:00,73.3,71.6,30.16,WSW,251,0.0,3.2,94,0.00,,,0.00,0.12,VWS V14.01,2013-07-18 06:15:00,
2013-07-18 02:16:00,73.1,72.0,30.15,WSW,251,0.0,3.2,96,0.00,,,0.00,0.00,VWS V14.01,2013-07-18 06:16:00,
2013-07-18 02:17:00,77.3,70.9,30.17,NW,325,2.0,3.2,81,0.00,,,0.00,0.00,VWS V14.01,2013-07-18 06:17:00,
2013-07-18 02:18:00,73.2,72.1,30.15,WSW,251,0.0,3.2,96,0.00,,,0.00,0.67,VWS V14.01,2013-07-18 06:18:00,
2013-07-18 02:19:00,77.6,71.2,30.17,NW,325,1.1,2.2,81,0.00,,,0.00,0.00,VWS V14.01,2013-07-18 06:19:00,
2013-07-18 02:20:00,77.5,71.1,30.17,NNW,335,2.2,2.2,81,0.00,,,0.00,0.00,VWS V14.01,2013-07-18 06:20:00,
2013-07-18 02:21:00,72.9,72.0,30.15,WSW,251,0.0,3.2,97,0.00,,,0.00,0.12,VWS V14.01,2013-07-18 06:21:00,
2013-07-18 02:22:00,72.9,71.9,30.16,WSW,251,0.0,3.2,97,0.00,,,0.00,0.00,VWS V14.01,2013-07-18 06:22:00,
2013-07-18 02:23:00,76.4,70.1,30.17,NW,321,2.2,2.8,81,0.00,,,0.00,0.00,VWS V14.01,2013-07-18 06:23:00,
2013-07-18 02:24:00,72.8,71.8,30.15,WSW,251,0.0,3.2,97,0.00,,,0.00,0.00,VWS V14.01,2013-07-18 06:24:00,
2013-07-18 02:25:00,76.7,70.4,30.17,NNW,329,2.3,3.9,81,0.00,,,0.00,0.00,VWS V14.01,2013-07-18 06:25:00,
2013-07-18 02:26:00,77.1,70.8,30.17,NW,324,2.2,3.4,81,0.00,,,0.00,0.00,VWS V14.01,2013-07-18 06:26:00,
2013-07-18 02:27:00,73.1,72.4,30.15,WSW,251,0.0,3.2,98,0.00,,,0.00,0.00,VWS V14.01,2013-07-18 06:27:00,
2013-07-18 02:28:00,73.0,72.3,30.16,WSW,251,0.0,3.2,98,0.00,,,0.00,0.73,VWS V14.01,2013-07-18 06:28:00,
2013-07-18 02:29:00,76.7,70.2,30.16,NW,314,3.2,4.0,81,0.00,,,0.00,0.00,VWS V14.01,2013-07-18 06:29:00,
2013-07-18 02:30:00,72.9,72.1,30.16,WSW,251,0.0,3.2,97,0.00,,,0.00,0.00,VWS V14.01,2013-07-18 06:30:00,
2013-07-18 02:31:00,77.2,71.2,30.16,NW,314,3.9,3.9,82,0.00,,,0.00,0.00,VWS V14.01,2013-07-18 06:31:00,
2013-07-18 02:32:00,72.8,72.1,30.15,WSW,251,0.0,3.2,98,0.00,,,0.00,0.00,VWS V14.01,2013-07-18 06:32:00,
2013-07-18 02:33:00,76.9,70.7,30.16,NW,326,4.5,4.7,81,0.00,,,0.00,0.00,VWS V14.01,2013-07-18 06:33:00,
2013-07-18 02:34:00,72.8,72.2,30.16,WSW,251,0.0,3.2,98,0.00,,,0.00,0.43,VWS V14.01,2013-07-18 06:34:00,
2013-07-18 02:35:00,72.9,72.1,30.15,WSW,251,0.0,3.2,97,0.00,,,0.00,0.43,VWS V14.01,2013-07-18 06:35:00,
2013-07-18 02:36:00,72.9,72.1,30.15,WSW,251,0.0,3.2,97,0.00,,,0.00,0.43,VWS V14.01,2013-07-18 06:36:00,
2013-07-18 02:37:00,77.5,71.1,30.16,NW,326,4.7,4.7,81,0.00,,,0.00,0.00,VWS V14.01,2013-07-18 06:37:00,
2013-07-18 02:38:00,72.9,72.2,30.16,WSW,251,0.0,3.2,98,0.00,,,0.00,0.00,VWS V14.01,2013-07-18 06:38:00,
2013-07-18 02:39:00,77.1,70.7,30.16,NW,313,2.7,2.7,81,0.00,,,0.00,0.00,VWS V14.01,2013-07-18 06:39:00,
2013-07-18 02:40:00,72.8,72.0,30.15,WSW,251,0.0,3.2,97,0.00,,,0.00,0.00,VWS V14.01,2013-07-18 06:40:00,
2013-07-18 02:41:00,72.5,71.7,30.15,WSW,251,0.0,3.2,97,0.00,,,0.00,0.43,VWS V14.01,2013-07-18 06:41:00,
2013-07-18 02:42:00,72.7,71.9,30.16,WSW,251,0.0,3.2,97,0.00,,,0.00,0.00,VWS V14.01,2013-07-18 06:42:00,
2013-07-18 02:43:00,77.1,70.9,30.15,NW,323,3.7,3.7,81,0.00,,,0.00,0.00,VWS V14.01,2013-07-18 06:43:00,
2013-07-18 02:44:00,72.5,71.6,30.15,WSW,251,0.0,3.2,97,0.00,,,0.00,0.00,VWS V14.01,2013-07-18 06:44:00,
2013-07-18 02:45:00,76.6,70.4,30.16,NW,324,2.2,2.8,81,0.00,,,0.00,0.37,VWS V14.01,2013-07-18 06:45:00,
2013-07-18 02:46:00,76.8,70.7,30.16,West,272,3.5,3.5,81,0.00,,,0.00,0.00,VWS V14.01,2013-07-18 06:46:00,
2013-07-18 02:47:00,72.2,71.2,30.15,WSW,251,0.0,3.2,97,0.00,,,0.00,0.00,VWS V14.01,2013-07-18 06:47:00,
2013-07-18 02:48:00,72.1,71.1,30.16,WSW,251,0.0,3.2,97,0.00,,,0.00,0.00,VWS V14.01,2013-07-18 06:48:00,
2013-07-18 02:49:00,71.9,71.0,30.15,WSW,251,0.0,3.2,97,0.00,,,0.00,0.00,VWS V14.01,2013-07-18 06:49:00,
2013-07-18 02:50:00,76.6,70.8,30.16,NW,322,3.2,4.4,82,0.00,,,0.00,0.00,VWS V14.01,2013-07-18 06:50:00,
2013-07-18 02:51:00,76.9,71.1,30.16,NW,320,3.2,3.2,82,0.00,,,0.00,0.43,VWS V14.01,2013-07-18 06:51:00,
2013-07-18 02:52:00,72.1,71.4,30.15,WSW,251,0.0,3.2,98,0.00,,,0.00,0.00,VWS V14.01,2013-07-18 06:52:00,
2013-07-18 02:53:00,72.1,71.4,30.15,WSW,251,0.0,3.2,98,0.00,,,0.00,0.00,VWS V14.01,2013-07-18 06:53:00,
2013-07-18 02:54:00,76.6,70.8,30.16,North,351,2.3,3.4,83,0.00,,,0.00,0.12,VWS V14.01,2013-07-18 06:54:00,
2013-07-18 02:55:00,76.5,70.8,30.16,NNW,328,0.0,2.7,82,0.00,,,0.00,0.00,VWS V14.01,2013-07-18 06:55:00,
2013-07-18 02:56:00,71.9,71.2,30.15,WSW,251,0.0,3.2,98,0.00,,,0.00,0.00,VWS V14.01,2013-07-18 06:56:00,
2013-07-18 02:57:00,76.8,71.2,30.16,WNW,303,0.0,1.8,83,0.00,,,0.00,0.12,VWS V14.01,2013-07-18 06:57:00,
2013-07-18 02:58:00,71.8,71.1,30.16,WSW,251,0.0,3.2,98,0.00,,,0.00,0.00,VWS V14.01,2013-07-18 06:58:00,
2013-07-18 02:59:00,71.8,71.1,30.15,WSW,251,0.0,3.2,98,0.00,,,0.00,0.00,VWS V14.01,2013-07-18 06:59:00,
2013-07-18 03:01:00,76.4,70.7,30.16,WNW,303,1.1,2.0,82,0.00,,,0.00,0.12,VWS V14.01,2013-07-18 07:01:00,
2013-07-18 03:02:00,72.1,71.6,30.15,WSW,251,0.0,0.0,98,0.00,,,0.00,0.00,VWS V14.01,2013-07-18 07:02:00,
2013-07-18 03:03:00,72.2,71.7,30.16,WSW,251,0.0,0.0,98,0.00,,,0.00,0.00,VWS V14.01,2013-07-18 07:03:00,
2013-07-18 03:05:00,72.0,71.5,30.16,WSW,251,2.2,2.2,98,0.00,,,0.00,0.00,VWS V14.01,2013-07-18 07:05:00,
2013-07-18 03:06:00,71.8,71.3,30.15,WSW,251,2.2,2.5,98,0.00,,,0.00,0.00,VWS V14.01,2013-07-18 07:06:00,
2013-07-18 03:07:00,71.8,71.3,30.15,WSW,251,2.2,2.5,98,0.00,,,0.00,0.00,VWS V14.01,2013-07-18 07:07:00,
2013-07-18 03:09:00,72.0,71.5,30.16,WSW,251,0.0,1.6,98,0.00,,,0.00,0.00,VWS V14.01,2013-07-18 07:09:00,
2013-07-18 03:10:00,72.0,71.6,30.16,WSW,251,0.0,0.0,99,0.00,,,0.00,0.12,VWS V14.01,2013-07-18 07:10:00,
2013-07-18 03:12:00,72.3,71.9,30.14,WSW,251,0.0,0.0,99,0.00,,,0.00,0.43,VWS V14.01,2013-07-18 07:12:00,
2013-07-18 03:14:00,71.9,71.6,30.17,WSW,251,0.0,0.0,99,0.00,,,0.00,0.00,VWS V14.01,2013-07-18 07:14:00,
2013-07-18 03:15:00,71.8,71.4,30.16,WSW,251,0.0,0.0,99,0.00,,,0.00,0.00,VWS V14.01,2013-07-18 07:15:00,
2013-07-18 03:16:00,71.7,71.2,30.15,WSW,251,0.0,0.0,99,0.00,,,0.00,0.00,VWS V14.01,2013-07-18 07:16:00,
2013-07-18 03:18:00,71.7,71.3,30.17,NW,326,0.0,1.1,98,0.00,,,0.00,0.43,VWS V14.01,2013-07-18 07:18:00,
2013-07-18 03:20:00,71.8,71.4,30.16,NW,326,0.0,0.0,99,0.00,,,0.00,0.00,VWS V14.01,2013-07-18 07:20:00,
2013-07-18 03:21:00,71.9,71.5,30.15,NW,326,0.0,0.0,99,0.00,,,0.00,0.00,VWS V14.01,2013-07-18 07:21:00,
2013-07-18 03:23:00,72.0,71.6,30.15,NW,326,0.0,0.0,99,0.00,,,0.00,0.00,VWS V14.01,2013-07-18 07:23:00,
2013-07-18 03:24:00,72.0,71.6,30.15,NW,326,0.0,0.0,99,0.00,,,0.00,0.00,VWS V14.01,2013-07-18 07:24:00,
2013-07-18 03:25:00,71.9,71.5,30.15,NW,326,0.0,0.0,99,0.00,,,0.00,0.00,VWS V14.01,2013-07-18 07:25:00,
2013-07-18 03:26:00,71.9,71.5,30.15,NW,326,0.0,0.0,99,0.00,,,0.00,0.00,VWS V14.01,2013-07-18 07:26:00,
2013-07-18 03:27:00,71.7,71.3,30.15,NW,326,0.0,0.0,99,0.00,,,0.00,0.00,VWS V14.01,2013-07-18 07:27:00,
2013-07-18 03:29:00,71.6,71.2,30.15,NW,326,0.0,0.0,99,0.00,,,0.00,0.00,VWS V14.01,2013-07-18 07:29:00,
2013-07-18 03:31:00,71.5,71.1,30.15,NW,326,0.0,0.0,99,0.00,,,0.00,0.00,VWS V14.01,2013-07-18 07:31:00,
2013-07-18 03:32:00,71.4,71.0,30.15,NW,326,0.0,0.0,99,0.00,,,0.00,0.12,VWS V14.01,2013-07-18 07:32:00,
2013-07-18 03:34:00,71.3,70.9,30.15,NW,326,0.0,0.0,99,0.00,,,0.00,0.12,VWS V14.01,2013-07-18 07:34:00,
2013-07-18 03:35:00,71.4,71.0,30.15,NW,326,0.0,0.0,99,0.00,,,0.00,0.00,VWS V14.01,2013-07-18 07:35:00,
2013-07-18 03:36:00,71.2,70.8,30.15,NW,326,0.0,0.0,99,0.00,,,0.00,0.00,VWS V14.01,2013-07-18 07:36:00,
2013-07-18 03:37:00,71.3,70.9,30.17,NW,326,0.0,0.0,99,0.00,,,0.00,0.12,VWS V14.01,2013-07-18 07:37:00,
2013-07-18 03:38:00,71.4,71.0,30.16,NW,326,0.0,0.0,99,0.00,,,0.00,0.12,VWS V14.01,2013-07-18 07:38:00,
2013-07-18 03:39:00,71.4,71.1,30.15,NW,326,0.0,0.0,99,0.00,,,0.00,0.43,VWS V14.01,2013-07-18 07:39:00,
2013-07-18 03:40:00,71.5,71.2,30.16,NW,326,0.0,0.0,99,0.00,,,0.00,0.00,VWS V14.01,2013-07-18 07:40:00,
2013-07-18 03:43:00,71.3,71.1,30.14,NW,326,0.0,0.0,99,0.00,,,0.00,0.73,VWS V14.01,2013-07-18 07:43:00,
2013-07-18 03:45:00,71.1,70.8,30.15,NW,326,0.0,0.0,99,0.00,,,0.00,0.00,VWS V14.01,2013-07-18 07:45:00,
2013-07-18 03:46:00,71.6,71.4,30.15,NW,326,0.0,0.0,99,0.00,,,0.00,0.00,VWS V14.01,2013-07-18 07:46:00,
2013-07-18 03:47:00,71.2,71.1,30.15,NW,326,0.0,0.0,99,0.00,,,0.00,0.00,VWS V14.01,2013-07-18 07:47:00,
2013-07-18 03:50:00,71.4,71.3,30.15,NW,326,0.0,0.0,100,0.00,,,0.00,0.00,VWS V14.01,2013-07-18 07:50:00,
2013-07-18 03:51:00,71.4,71.2,30.15,NW,326,0.0,0.0,99,0.00,,,0.00,0.43,VWS V14.01,2013-07-18 07:51:00,
2013-07-18 03:53:00,71.2,71.1,30.15,NW,326,0.0,0.0,99,0.00,,,0.00,0.00,VWS V14.01,2013-07-18 07:53:00,
2013-07-18 03:56:00,71.1,70.9,30.15,NW,326,0.0,0.0,99,0.00,,,0.00,0.12,VWS V14.01,2013-07-18 07:56:00,
2013-07-18 03:57:00,71.0,70.7,30.15,NW,326,0.0,0.0,99,0.00,,,0.00,0.00,VWS V14.01,2013-07-18 07:57:00,
2013-07-18 03:59:00,72.0,71.5,30.15,WSW,251,0.0,3.2,98,0.00,,,0.00,0.00,VWS V14.01,2013-07-18 07:59:00,
2013-07-18 04:00:00,71.8,71.6,30.14,NW,326,0.0,0.0,99,0.00,,,0.00,0.00,VWS V14.01,2013-07-18 08:00:00,
2013-07-18 04:01:00,71.8,71.8,30.15,NW,326,0.0,0.0,100,0.00,,,0.04,0.00,VWS V14.01,2013-07-18 08:01:00,
2013-07-18 04:02:00,71.8,71.8,30.15,NW,326,0.0,0.0,100,0.00,,,0.00,0.00,VWS V14.01,2013-07-18 08:02:00,
2013-07-18 04:03:00,71.6,71.6,30.14,NW,326,0.0,0.0,100,0.00,,,0.00,0.12,VWS V14.01,2013-07-18 08:03:00,
2013-07-18 04:04:00,71.9,71.5,30.15,WSW,251,0.0,0.0,98,0.00,,,0.00,0.00,VWS V14.01,2013-07-18 08:04:00,
2013-07-18 04:05:00,71.6,71.6,30.15,NW,326,0.0,0.0,100,0.00,,,0.00,0.00,VWS V14.01,2013-07-18 08:05:00,
2013-07-18 04:06:00,71.8,71.3,30.15,WSW,251,2.2,2.5,98,0.00,,,0.00,0.00,VWS V14.01,2013-07-18 08:06:00,
2013-07-18 04:07:00,71.7,71.7,30.15,NW,324,1.8,1.8,100,0.00,,,0.00,0.00,VWS V14.01,2013-07-18 08:07:00,
2013-07-18 04:08:00,72.0,71.5,30.16,WSW,251,0.0,1.6,98,0.00,,,0.00,0.00,VWS V14.01,2013-07-18 08:08:00,
2013-07-18 04:09:00,71.5,71.5,30.15,NW,324,2.2,2.2,100,0.00,,,0.00,0.00,VWS V14.01,2013-07-18 08:09:00,
2013-07-18 04:10:00,72.2,71.8,30.15,WSW,251,0.0,0.0,99,0.00,,,0.00,0.00,VWS V14.01,2013-07-18 08:10:00,
2013-07-18 04:11:00,71.4,71.3,30.15,NW,324,2.0,2.2,100,0.00,,,0.00,0.00,VWS V14.01,2013-07-18 08:11:00,
2013-07-18 04:12:00,71.4,71.3,30.15,NW,324,2.5,2.5,100,0.00,,,0.00,0.00,VWS V14.01,2013-07-18 08:12:00,
2013-07-18 04:13:00,71.4,71.3,30.15,NW,324,2.5,2.5,100,0.00,,,0.00,0.00,VWS V14.01,2013-07-18 08:13:00,
2013-07-18 04:14:00,71.3,71.2,30.15,NW,324,2.5,2.5,100,0.00,,,0.00,0.00,VWS V14.01,2013-07-18 08:14:00,
2013-07-18 04:15:00,71.7,71.6,30.15,NW,324,2.7,2.7,100,0.00,,,0.00,0.00,VWS V14.01,2013-07-18 08:15:00,
2013-07-18 04:16:00,71.7,71.6,30.15,NW,323,3.0,3.0,100,0.00,,,0.00,0.00,VWS V14.01,2013-07-18 08:16:00,
2013-07-18 04:18:00,71.8,71.4,30.16,NW,326,0.0,1.1,99,0.00,,,0.00,0.00,VWS V14.01,2013-07-18 08:18:00,
2013-07-18 04:19:00,71.9,71.8,30.14,NW,323,2.2,2.7,100,0.00,,,0.00,0.00,VWS V14.01,2013-07-18 08:19:00,
2013-07-18 04:20:00,71.8,71.7,30.14,NW,323,2.2,2.3,100,0.00,,,0.00,0.00,VWS V14.01,2013-07-18 08:20:00,
2013-07-18 04:21:00,71.7,71.6,30.14,NW,324,2.2,2.3,100,0.00,,,0.00,0.00,VWS V14.01,2013-07-18 08:21:00,
2013-07-18 04:22:00,71.7,71.6,30.14,NW,324,2.0,2.0,100,0.00,,,0.00,0.00,VWS V14.01,2013-07-18 08:22:00,
2013-07-18 04:23:00,71.9,71.5,30.15,NW,326,0.0,0.0,99,0.00,,,0.00,0.00,VWS V14.01,2013-07-18 08:23:00,
2013-07-18 04:24:00,71.6,71.5,30.14,NW,324,2.0,2.0,100,0.00,,,0.00,0.00,VWS V14.01,2013-07-18 08:24:00,
2013-07-18 04:25:00,71.4,71.2,30.15,NW,323,0.0,2.2,99,0.00,,,0.00,0.00,VWS V14.01,2013-07-18 08:25:00,
2013-07-18 04:26:00,71.4,71.2,30.15,NW,323,0.0,2.2,99,0.00,,,0.00,0.00,VWS V14.01,2013-07-18 08:26:00,
2013-07-18 04:27:00,71.2,70.9,30.14,NW,323,0.0,0.0,99,0.00,,,0.00,0.73,VWS V14.01,2013-07-18 08:27:00,
2013-07-18 04:28:00,71.5,71.1,30.15,NW,326,0.0,0.0,99,0.00,,,0.00,0.00,VWS V14.01,2013-07-18 08:28:00,
2013-07-18 04:29:00,71.2,71.0,30.15,NW,307,0.0,0.0,99,0.00,,,0.00,0.00,VWS V14.01,2013-07-18 08:29:00,
2013-07-18 04:30:00,71.4,71.2,30.14,West,275,1.1,1.1,99,0.00,,,0.00,0.00,VWS V14.01,2013-07-18 08:30:00,
2013-07-18 04:31:00,71.3,71.1,30.14,West,275,0.0,1.1,99,0.00,,,0.00,0.00,VWS V14.01,2013-07-18 08:31:00,
2013-07-18 04:32:00,71.5,71.1,30.15,NW,326,0.0,0.0,99,0.00,,,0.00,0.00,VWS V14.01,2013-07-18 08:32:00,
2013-07-18 04:33:00,71.4,71.2,30.14,WSW,244,0.0,0.0,99,0.00,,,0.00,0.00,VWS V14.01,2013-07-18 08:33:00,
2013-07-18 04:34:00,71.4,71.2,30.14,WSW,244,0.0,0.0,99,0.00,,,0.00,0.00,VWS V14.01,2013-07-18 08:34:00,
2013-07-18 04:35:00,71.4,71.1,30.14,WSW,244,0.0,0.0,99,0.00,,,0.00,0.00,VWS V14.01,2013-07-18 08:35:00,
2013-07-18 04:36:00,71.5,71.3,30.14,WSW,244,0.0,0.0,99,0.00,,,0.00,0.00,VWS V14.01,2013-07-18 08:36:00,
2013-07-18 04:37:00,71.5,71.3,30.14,WSW,244,0.0,0.0,99,0.00,,,0.00,0.00,VWS V14.01,2013-07-18 08:37:00,
2013-07-18 04:38:00,71.2,70.8,30.15,NW,326,0.0,0.0,99,0.00,,,0.00,0.00,VWS V14.01,2013-07-18 08:38:00,
2013-07-18 04:39:00,71.6,69.9,30.14,WSW,244,0.0,0.0,95,0.00,,,0.00,0.00,VWS V14.01,2013-07-18 08:39:00,
2013-07-18 04:40:00,71.7,71.6,30.15,WSW,244,0.0,0.0,100,0.00,,,0.00,0.00,VWS V14.01,2013-07-18 08:40:00,
2013-07-18 04:41:00,71.3,71.0,30.15,NW,326,0.0,0.0,99,0.00,,,0.00,0.00,VWS V14.01,2013-07-18 08:41:00,
2013-07-18 04:42:00,71.3,71.0,30.14,NW,326,0.0,0.0,99,0.00,,,0.00,0.00,VWS V14.01,2013-07-18 08:42:00,
2013-07-18 04:43:00,71.7,71.5,30.15,WSW,244,0.0,0.0,100,0.00,,,0.00,0.06,VWS V14.01,2013-07-18 08:43:00,
2013-07-18 04:44:00,71.6,71.4,30.14,WSW,244,0.0,0.0,99,0.00,,,0.00,0.00,VWS V14.01,2013-07-18 08:44:00,
2013-07-18 04:45:00,71.6,71.5,30.14,WSW,244,0.0,0.0,99,0.00,,,0.00,0.00,VWS V14.01,2013-07-18 08:45:00,
2013-07-18 04:46:00,71.3,71.1,30.15,NW,326,0.0,0.0,99,0.00,,,0.00,0.00,VWS V14.01,2013-07-18 08:46:00,
2013-07-18 04:47:00,71.4,71.3,30.15,NW,326,0.0,0.0,99,0.00,,,0.00,0.00,VWS V14.01,2013-07-18 08:47:00,
2013-07-18 04:48:00,71.8,71.6,30.14,WSW,244,1.0,1.0,99,0.00,,,0.00,0.00,VWS V14.01,2013-07-18 08:48:00,
2013-07-18 04:49:00,71.8,71.6,30.14,WSW,244,0.0,0.0,99,0.00,,,0.00,0.00,VWS V14.01,2013-07-18 08:49:00,
2013-07-18 04:50:00,71.7,71.6,30.15,WSW,244,0.0,0.0,99,0.00,,,0.00,0.00,VWS V14.01,2013-07-18 08:50:00,
2013-07-18 04:51:00,71.7,71.6,30.14,WSW,244,0.0,0.0,99,0.00,,,0.00,0.00,VWS V14.01,2013-07-18 08:51:00,
2013-07-18 04:52:00,71.2,71.1,30.16,NW,326,0.0,0.0,99,0.00,,,0.00,0.00,VWS V14.01,2013-07-18 08:52:00,
2013-07-18 04:53:00,71.9,71.7,30.14,WSW,244,0.0,0.0,99,0.00,,,0.00,0.00,VWS V14.01,2013-07-18 08:53:00,
2013-07-18 04:54:00,72.1,71.9,30.14,WSW,244,0.0,0.0,99,0.00,,,0.00,0.00,VWS V14.01,2013-07-18 08:54:00,
2013-07-18 04:55:00,71.3,71.1,30.15,NW,326,0.0,0.0,99,0.00,,,0.00,0.00,VWS V14.01,2013-07-18 08:55:00,
2013-07-18 04:56:00,72.1,71.9,30.14,WSW,244,0.0,1.0,99,0.00,,,0.00,0.00,VWS V14.01,2013-07-18 08:56:00,
2013-07-18 04:57:00,70.9,70.7,30.14,NW,326,0.0,0.0,99,0.00,,,0.00,0.00,VWS V14.01,2013-07-18 08:57:00,
2013-07-18 04:58:00,71.4,71.1,30.14,NW,326,0.0,0.0,99,0.00,,,0.00,0.00,VWS V14.01,2013-07-18 08:58:00,
2013-07-18 04:59:00,71.9,71.6,30.13,NW,318,2.2,2.5,99,0.00,,,0.00,0.00,VWS V14.01,2013-07-18 08:59:00,
2013-07-18 05:00:00,71.9,71.5,30.14,NW,318,2.7,2.7,99,0.00,,,0.00,0.06,VWS V14.01,2013-07-18 09:00:00,
2013-07-18 05:01:00,71.8,71.4,30.14,NW,318,2.5,2.7,99,0.00,,,0.00,0.00,VWS V14.01,2013-07-18 09:01:00,
2013-07-18 05:02:00,71.6,71.6,30.15,NW,326,0.0,0.0,100,0.00,,,0.00,0.12,VWS V14.01,2013-07-18 09:02:00,
2013-07-18 05:03:00,71.6,71.6,30.15,NW,326,0.0,0.0,100,0.00,,,0.00,0.43,VWS V14.01,2013-07-18 09:03:00,
2013-07-18 05:04:00,71.6,71.2,30.14,NW,318,1.8,2.5,98,0.00,,,0.00,0.00,VWS V14.01,2013-07-18 09:04:00,
2013-07-18 05:05:00,71.7,71.2,30.14,NW,318,0.0,2.5,98,0.00,,,0.00,0.43,VWS V14.01,2013-07-18 09:05:00,
2013-07-18 05:06:00,71.6,71.1,30.14,NW,318,0.0,2.5,98,0.00,,,0.00,0.00,VWS V14.01,2013-07-18 09:06:00,
2013-07-18 05:07:00,71.6,71.1,30.14,NW,318,0.0,2.5,98,0.00,,,0.00,0.00,VWS V14.01,2013-07-18 09:07:00,
2013-07-18 05:08:00,71.5,71.5,30.15,NW,324,2.2,2.3,100,0.00,,,0.00,0.00,VWS V14.01,2013-07-18 09:08:00,
2013-07-18 05:09:00,71.5,71.4,30.15,NW,324,2.2,2.2,100,0.00,,,0.00,0.00,VWS V14.01,2013-07-18 09:09:00,
2013-07-18 05:10:00,71.8,71.3,30.14,NW,318,0.0,2.5,98,0.00,,,0.00,0.00,VWS V14.01,2013-07-18 09:10:00,
2013-07-18 05:11:00,71.7,71.2,30.14,NW,318,0.0,2.5,98,0.00,,,0.00,0.73,VWS V14.01,2013-07-18 09:11:00,
2013-07-18 05:12:00,71.5,71.0,30.14,NW,318,0.0,2.5,98,0.00,,,0.00,0.00,VWS V14.01,2013-07-18 09:12:00,
2013-07-18 05:13:00,71.5,70.9,30.13,NW,318,0.0,2.5,98,0.00,,,0.00,0.00,VWS V14.01,2013-07-18 09:13:00,
2013-07-18 05:14:00,71.2,71.1,30.15,NW,324,2.3,2.5,100,0.00,,,0.00,0.00,VWS V14.01,2013-07-18 09:14:00,
2013-07-18 05:15:00,71.7,71.6,30.15,NW,324,2.7,2.7,100,0.00,,,0.00,0.00,VWS V14.01,2013-07-18 09:15:00,
2013-07-18 05:16:00,71.4,70.9,30.12,NW,318,0.0,2.5,98,0.00,,,0.00,0.00,VWS V14.01,2013-07-18 09:16:00,
2013-07-18 05:17:00,71.5,71.0,30.12,NW,318,0.0,2.5,98,0.00,,,0.00,0.12,VWS V14.01,2013-07-18 09:17:00,
2013-07-18 05:18:00,71.5,71.0,30.13,NW,318,0.0,2.5,98,0.00,,,0.00,0.00,VWS V14.01,2013-07-18 09:18:00,
2013-07-18 05:19:00,71.6,71.1,30.13,NW,318,0.0,2.5,98,0.00,,,0.00,0.73,VWS V14.01,2013-07-18 09:19:00,
2013-07-18 05:21:00,71.7,71.6,30.14,NW,324,2.2,2.3,100,0.00,,,0.00,0.00,VWS V14.01,2013-07-18 09:21:00,
2013-07-18 05:22:00,71.7,71.6,30.14,NW,324,2.0,2.2,100,0.00,,,0.00,0.00,VWS V14.01,2013-07-18 09:22:00,
2013-07-18 05:23:00,71.6,71.2,30.14,NW,318,1.8,2.5,99,0.00,,,0.00,0.00,VWS V14.01,2013-07-18 09:23:00,
2013-07-18 05:24:00,71.6,71.1,30.15,NW,318,1.5,2.5,99,0.00,,,0.00,0.00,VWS V14.01,2013-07-18 09:24:00,
2013-07-18 05:25:00,71.5,71.1,30.14,NW,318,2.0,2.5,99,0.00,,,0.00,0.00,VWS V14.01,2013-07-18 09:25:00,
2013-07-18 05:26:00,71.2,71.0,30.15,NW,323,0.0,0.0,99,0.00,,,0.00,0.00,VWS V14.01,2013-07-18 09:26:00,
2013-07-18 05:27:00,71.2,70.9,30.14,NW,323,0.0,0.0,99,0.00,,,0.00,0.73,VWS V14.01,2013-07-18 09:27:00,
2013-07-18 05:28:00,71.3,71.0,30.15,NW,323,0.0,0.0,99,0.00,,,0.00,0.00,VWS V14.01,2013-07-18 09:28:00,
2013-07-18 05:29:00,71.6,71.1,30.14,NW,318,2.8,2.8,99,0.00,,,0.00,0.00,VWS V14.01,2013-07-18 09:29:00,
2013-07-18 05:30:00,71.8,71.5,30.14,NW,318,2.7,2.8,99,0.00,,,0.00,0.00,VWS V14.01,2013-07-18 09:30:00,
2013-07-18 05:31:00,71.3,71.1,30.15,West,274,1.5,1.5,99,0.00,,,0.00,0.00,VWS V14.01,2013-07-18 09:31:00,
2013-07-18 05:32:00,71.3,71.1,30.15,WSW,244,0.0,1.5,99,0.00,,,0.00,0.00,VWS V14.01,2013-07-18 09:32:00,
2013-07-18 05:33:00,71.5,71.3,30.14,WSW,244,0.0,0.0,99,0.00,,,0.00,0.00,VWS V14.01,2013-07-18 09:33:00,
2013-07-18 05:34:00,71.5,71.1,30.14,NW,318,2.2,2.8,98,0.00,,,0.00,0.12,VWS V14.01,2013-07-18 09:34:00,
2013-07-18 05:35:00,71.4,70.9,30.13,NW,318,1.8,2.8,98,0.00,,,0.00,0.00,VWS V14.01,2013-07-18 09:35:00,
2013-07-18 05:36:00,71.4,70.9,30.13,NW,318,2.3,2.8,98,0.00,,,0.00,0.00,VWS V14.01,2013-07-18 09:36:00,
2013-07-18 05:37:00,71.4,71.2,30.14,WSW,244,0.0,0.0,99,0.00,,,0.00,0.00,VWS V14.01,2013-07-18 09:37:00,
2013-07-18 05:38:00,71.6,69.9,30.14,WSW,244,0.0,0.0,95,0.00,,,0.00,0.00,VWS V14.01,2013-07-18 09:38:00,
2013-07-18 05:39:00,71.7,71.5,30.15,WSW,244,0.0,0.0,100,0.00,,,0.00,0.00,VWS V14.01,2013-07-18 09:39:00,
2013-07-18 05:40:00,71.4,70.4,30.13,NW,318,0.0,2.8,97,0.00,,,0.00,0.43,VWS V14.01,2013-07-18 09:40:00,
2013-07-18 05:41:00,71.4,71.0,30.14,WNW,298,0.0,2.8,99,0.00,,,0.00,0.00,VWS V14.01,2013-07-18 09:41:00,
2013-07-18 05:42:00,71.7,71.6,30.15,WSW,244,0.0,0.0,100,0.00,,,0.00,0.00,VWS V14.01,2013-07-18 09:42:00,
2013-07-18 05:43:00,71.3,71.0,30.13,WNW,297,0.0,2.8,99,0.00,,,0.00,0.43,VWS V14.01,2013-07-18 09:43:00,
2013-07-18 05:44:00,71.1,70.7,30.13,WNW,297,0.0,2.8,99,0.00,,,0.00,0.00,VWS V14.01,2013-07-18 09:44:00,
2013-07-18 05:45:00,71.7,71.5,30.14,WSW,244,1.3,1.3,99,0.00,,,0.00,0.00,VWS V14.01,2013-07-18 09:45:00,
2013-07-18 05:46:00,71.0,70.6,30.12,WSW,245,2.2,2.8,99,0.00,,,0.00,0.00,VWS V14.01,2013-07-18 09:46:00,
2013-07-18 05:47:00,70.8,70.3,30.13,WSW,244,2.7,2.8,99,0.00,,,0.00,0.43,VWS V14.01,2013-07-18 09:47:00,
2013-07-18 05:48:00,71.8,71.7,30.14,WSW,244,0.0,1.0,100,0.00,,,0.00,0.00,VWS V14.01,2013-07-18 09:48:00,
2013-07-18 05:49:00,71.0,70.6,30.13,WSW,244,2.7,2.8,99,0.00,,,0.00,0.00,VWS V14.01,2013-07-18 09:49:00,
2013-07-18 05:50:00,71.7,71.6,30.15,WSW,244,0.0,1.0,99,0.00,,,0.00,0.00,VWS V14.01,2013-07-18 09:50:00,
2013-07-18 05:51:00,71.8,71.6,30.12,WSW,244,2.5,2.8,99,0.00,,,0.00,0.00,VWS V14.01,2013-07-18 09:51:00,
2013-07-18 05:52:00,72.0,71.8,30.13,WSW,244,2.2,2.8,99,0.00,,,0.00,0.00,VWS V14.01,2013-07-18 09:52:00,
2013-07-18 05:53:00,72.0,71.8,30.14,WSW,244,0.0,0.0,99,0.00,,,0.00,0.00,VWS V14.01,2013-07-18 09:53:00,
2013-07-18 05:54:00,71.6,71.4,30.13,WSW,244,2.0,2.8,99,0.00,,,0.00,0.00,VWS V14.01,2013-07-18 09:54:00,
2013-07-18 05:55:00,71.4,71.2,30.13,WSW,244,2.2,2.8,99,0.00,,,0.00,0.00,VWS V14.01,2013-07-18 09:55:00,
2013-07-18 05:56:00,71.3,71.1,30.13,WSW,244,1.5,2.8,99,0.00,,,0.00,0.00,VWS V14.01,2013-07-18 09:56:00,
2013-07-18 05:57:00,71.8,71.6,30.14,NW,309,2.2,2.2,99,0.00,,,0.00,0.00,VWS V14.01,2013-07-18 09:57:00,
2013-07-18 05:58:00,71.1,70.8,30.13,SW,233,1.8,2.8,99,0.00,,,0.00,0.00,VWS V14.01,2013-07-18 09:58:00,
2013-07-18 05:59:00,71.9,71.5,30.14,NW,318,2.7,2.7,99,0.00,,,0.00,0.06,VWS V14.01,2013-07-18 09:59:00,
2013-07-18 06:00:00,71.8,71.4,30.14,NW,318,2.5,2.7,99,0.00,,,0.00,0.00,VWS V14.01,2013-07-18 10:00:00,
2013-07-18 06:01:00,71.1,70.7,30.12,SW,233,2.2,2.8,99,0.00,,,0.00,0.00,VWS V14.01,2013-07-18 10:01:00,
2013-07-18 06:02:00,71.1,70.7,30.12,SW,233,2.2,2.8,99,0.00,,,0.00,0.00,VWS V14.01,2013-07-18 10:02:00,
2013-07-18 06:03:00,71.3,71.0,30.12,SW,233,2.3,2.8,99,0.00,,,0.00,0.00,VWS V14.01,2013-07-18 10:03:00,
2013-07-18 06:07:00,71.1,70.8,30.13,SW,233,2.5,2.7,99,0.00,,,0.00,0.06,VWS V14.01,2013-07-18 10:07:00,
2013-07-18 06:08:00,71.2,70.9,30.13,SW,233,2.7,2.7,99,0.00,,,0.00,0.31,VWS V14.01,2013-07-18 10:08:00,
2013-07-18 06:10:00,71.1,70.9,30.13,SW,233,1.6,2.7,99,0.00,,,0.00,0.55,VWS V14.01,2013-07-18 10:10:00,
2013-07-18 06:12:00,70.8,70.4,30.13,SW,233,0.0,2.7,99,0.00,,,0.00,0.79,VWS V14.01,2013-07-18 10:12:00,
2013-07-18 06:13:00,70.7,70.4,30.13,SW,233,0.0,2.7,99,0.00,,,0.00,2.38,VWS V14.01,2013-07-18 10:13:00,
2013-07-18 06:14:00,70.7,70.3,30.12,SW,233,0.0,2.7,99,0.00,,,0.00,1.77,VWS V14.01,2013-07-18 10:14:00,
2013-07-18 06:18:00,70.8,70.5,30.14,SW,233,0.0,2.7,99,0.00,,,0.00,2.56,VWS V14.01,2013-07-18 10:18:00,
2013-07-18 06:19:00,70.9,70.6,30.13,SW,233,0.0,2.7,99,0.00,,,0.00,1.95,VWS V14.01,2013-07-18 10:19:00,
2013-07-18 06:20:00,70.9,70.6,30.13,SW,233,0.0,2.7,99,0.00,,,0.00,2.20,VWS V14.01,2013-07-18 10:20:00,
2013-07-18 06:21:00,70.8,70.6,30.13,SW,233,0.0,2.7,99,0.00,,,0.00,5.37,VWS V14.01,2013-07-18 10:21:00,
2013-07-18 06:23:00,71.0,70.9,30.13,SW,233,0.0,2.7,100,0.00,,,0.00,4.70,VWS V14.01,2013-07-18 10:23:00,
2013-07-18 06:24:00,70.9,70.2,30.13,SW,233,0.0,2.7,98,0.00,,,0.00,4.70,VWS V14.01,2013-07-18 10:24:00,
2013-07-18 06:25:00,71.0,70.9,30.13,SW,233,0.0,2.7,100,0.00,,,0.00,4.40,VWS V14.01,2013-07-18 10:25:00,
2013-07-18 06:28:00,70.9,70.9,30.13,SW,233,0.0,2.7,100,0.00,,,0.00,7.14,VWS V14.01,2013-07-18 10:28:00,
2013-07-18 06:29:00,70.8,70.7,30.14,SW,233,0.0,2.7,100,0.00,,,0.00,7.14,VWS V14.01,2013-07-18 10:29:00,
2013-07-18 06:31:00,70.9,70.9,30.13,SW,233,0.0,2.7,100,0.00,,,0.00,8.12,VWS V14.01,2013-07-18 10:31:00,
2013-07-18 06:32:00,70.8,69.9,30.13,SW,233,0.0,2.7,97,0.00,,,0.00,11.54,VWS V14.01,2013-07-18 10:32:00,
2013-07-18 06:33:00,71.2,71.1,30.13,SW,233,0.0,2.7,100,0.00,,,0.00,12.33,VWS V14.01,2013-07-18 10:33:00,
2013-07-18 06:35:00,71.3,71.2,30.14,SW,233,0.0,2.7,100,0.00,,,0.00,12.03,VWS V14.01,2013-07-18 10:35:00,
2013-07-18 06:37:00,71.2,71.0,30.13,SW,233,0.0,2.7,99,0.00,,,0.00,12.03,VWS V14.01,2013-07-18 10:37:00,
2013-07-18 06:40:00,71.4,71.2,30.13,SW,233,0.0,2.7,99,0.00,,,0.00,14.47,VWS V14.01,2013-07-18 10:40:00,
2013-07-18 06:42:00,71.4,71.2,30.13,SW,233,0.0,2.7,99,0.00,,,0.00,15.63,VWS V14.01,2013-07-18 10:42:00,
2013-07-18 06:45:00,72.2,71.9,30.13,SW,233,0.0,2.7,99,0.00,,,0.00,26.68,VWS V14.01,2013-07-18 10:45:00,
2013-07-18 06:46:00,72.4,72.1,30.13,SW,233,0.0,2.7,99,0.00,,,0.00,29.12,VWS V14.01,2013-07-18 10:46:00,
2013-07-18 06:47:00,72.7,72.3,30.14,SW,233,0.0,2.7,99,0.00,,,0.00,31.56,VWS V14.01,2013-07-18 10:47:00,
2013-07-18 06:49:00,72.6,71.9,30.13,SW,233,0.0,2.7,98,0.00,,,0.00,33.70,VWS V14.01,2013-07-18 10:49:00,
2013-07-18 06:50:00,72.3,71.2,30.12,SW,233,0.0,2.7,96,0.00,,,0.00,36.45,VWS V14.01,2013-07-18 10:50:00,
2013-07-18 06:52:00,72.0,70.4,30.13,SW,229,0.0,2.7,95,0.00,,,0.04,39.50,VWS V14.01,2013-07-18 10:52:00,
2013-07-18 06:55:00,72.2,70.6,30.13,SW,219,0.0,2.7,95,0.00,,,0.00,44.38,VWS V14.01,2013-07-18 10:55:00,
2013-07-18 06:56:00,72.3,70.7,30.13,SW,219,1.5,2.7,95,0.00,,,0.00,39.93,VWS V14.01,2013-07-18 10:56:00,
2013-07-18 06:57:00,72.6,71.0,30.13,SW,219,0.0,2.7,95,0.00,,,0.00,46.83,VWS V14.01,2013-07-18 10:57:00,
2013-07-18 06:58:00,72.7,71.0,30.14,SW,219,0.0,2.7,94,0.00,,,0.00,32.05,VWS V14.01,2013-07-18 10:58:00,
2013-07-18 07:01:00,74.7,72.8,30.14,SW,219,0.0,2.7,94,0.00,,,0.00,53.54,VWS V14.01,2013-07-18 11:01:00,
2013-07-18 07:02:00,74.4,72.2,30.14,SW,219,0.0,2.7,93,0.00,,,0.00,54.03,VWS V14.01,2013-07-18 11:02:00,
2013-07-18 07:03:00,74.9,72.3,30.14,SW,219,0.0,2.7,92,0.00,,,0.00,56.23,VWS V14.01,2013-07-18 11:03:00,
2013-07-18 07:04:00,74.6,71.6,30.13,SW,219,0.0,2.7,90,0.00,,,0.00,58.42,VWS V14.01,2013-07-18 11:04:00,
2013-07-18 07:05:00,73.3,69.2,30.13,SW,219,0.0,0.0,87,0.00,,,0.00,61.48,VWS V14.01,2013-07-18 11:05:00,
2013-07-18 07:06:00,73.3,69.1,30.13,SW,219,0.0,0.0,87,0.00,,,0.00,62.21,VWS V14.01,2013-07-18 11:06:00,
2013-07-18 07:07:00,73.3,69.1,30.13,SW,219,0.0,0.0,87,0.00,,,0.00,62.21,VWS V14.01,2013-07-18 11:07:00,
2013-07-18 07:08:00,73.9,70.3,30.14,SW,219,0.0,0.0,89,0.00,,,0.00,65.51,VWS V14.01,2013-07-18 11:08:00,
2013-07-18 07:09:00,73.2,69.5,30.13,SW,219,0.0,0.0,88,0.00,,,0.00,67.09,VWS V14.01,2013-07-18 11:09:00,
2013-07-18 07:10:00,74.1,70.6,30.13,SW,219,0.0,0.0,89,0.00,,,0.00,68.19,VWS V14.01,2013-07-18 11:10:00,
2013-07-18 07:11:00,73.2,69.6,30.13,SW,219,1.5,1.5,89,0.00,,,0.00,70.02,VWS V14.01,2013-07-18 11:11:00,
2013-07-18 07:12:00,73.6,70.0,30.13,SW,219,0.0,1.5,88,0.00,,,0.00,72.04,VWS V14.01,2013-07-18 11:12:00,
2013-07-18 07:13:00,73.9,70.4,30.14,SW,219,0.0,0.0,89,0.00,,,0.00,73.08,VWS V14.01,2013-07-18 11:13:00,
2013-07-18 07:14:00,74.6,71.2,30.13,SW,219,2.0,2.0,89,0.00,,,0.00,75.15,VWS V14.01,2013-07-18 11:14:00,
2013-07-18 07:15:00,75.4,71.7,30.14,SW,219,0.0,2.0,88,0.00,,,0.00,75.76,VWS V14.01,2013-07-18 11:15:00,
2013-07-18 07:16:00,75.8,71.5,30.13,SW,219,0.0,0.0,86,0.00,,,0.00,77.66,VWS V14.01,2013-07-18 11:16:00,
2013-07-18 07:17:00,74.1,69.2,30.12,SW,219,0.0,0.0,85,0.00,,,0.00,79.24,VWS V14.01,2013-07-18 11:17:00,
2013-07-18 07:18:00,74.1,69.5,30.13,SW,219,0.0,0.0,86,0.00,,,0.00,81.26,VWS V14.01,2013-07-18 11:18:00,
2013-07-18 07:19:00,74.3,69.9,30.14,SW,234,0.0,1.6,86,0.00,,,0.00,82.84,VWS V14.01,2013-07-18 11:19:00,
2013-07-18 07:20:00,75.1,71.1,30.14,SW,234,0.0,0.0,87,0.00,,,0.00,84.07,VWS V14.01,2013-07-18 11:20:00,
2013-07-18 07:21:00,74.4,69.9,30.14,SW,234,0.0,0.0,86,0.00,,,0.00,85.29,VWS V14.01,2013-07-18 11:21:00,
2013-07-18 07:22:00,75.0,70.6,30.13,SW,234,0.0,0.0,86,0.00,,,0.00,87.73,VWS V14.01,2013-07-18 11:22:00,
2013-07-18 07:23:00,75.2,70.4,30.13,SW,234,0.0,0.0,85,0.00,,,0.00,87.73,VWS V14.01,2013-07-18 11:23:00,
2013-07-18 07:24:00,75.0,69.8,30.13,West,270,0.0,0.0,84,0.00,,,0.00,90.48,VWS V14.01,2013-07-18 11:24:00,
2013-07-18 07:25:00,74.8,69.8,30.13,West,270,0.0,0.0,84,0.00,,,0.00,91.15,VWS V14.01,2013-07-18 11:25:00,
2013-07-18 07:26:00,74.8,69.7,30.13,West,279,0.0,1.3,84,0.00,,,0.00,92.55,VWS V14.01,2013-07-18 11:26:00,
2013-07-18 07:27:00,75.4,70.8,30.14,NW,305,0.0,2.0,86,0.00,,,0.00,95.06,VWS V14.01,2013-07-18 11:27:00,
2013-07-18 07:28:00,75.2,70.5,30.14,WSW,249,1.5,1.5,85,0.00,,,0.00,93.71,VWS V14.01,2013-07-18 11:28:00,
2013-07-18 07:29:00,76.0,70.9,30.13,WSW,249,1.3,2.5,84,0.00,,,0.00,99.45,VWS V14.01,2013-07-18 11:29:00,
2013-07-18 07:30:00,76.5,71.3,30.14,WSW,249,1.0,1.3,84,0.00,,,0.00,99.94,VWS V14.01,2013-07-18 11:30:00,
2013-07-18 07:31:00,75.9,69.1,30.13,WSW,249,2.2,2.2,79,0.00,,,0.00,102.14,VWS V14.01,2013-07-18 11:31:00,
2013-07-18 07:32:00,75.3,69.1,30.14,WSW,249,1.6,2.2,81,0.00,,,0.00,103.05,VWS V14.01,2013-07-18 11:32:00,
2013-07-18 07:33:00,76.4,70.7,30.14,WSW,249,2.0,2.0,83,0.00,,,0.00,105.43,VWS V14.01,2013-07-18 11:33:00,
2013-07-18 07:34:00,75.4,69.1,30.13,WSW,249,2.3,2.3,81,0.00,,,0.00,107.75,VWS V14.01,2013-07-18 11:34:00,
2013-07-18 07:35:00,75.5,69.4,30.13,WSW,249,2.3,2.3,81,0.00,,,0.00,110.32,VWS V14.01,2013-07-18 11:35:00,
2013-07-18 07:36:00,77.1,70.2,30.13,WSW,244,2.7,2.7,79,0.00,,,0.00,113.13,VWS V14.01,2013-07-18 11:36:00,
2013-07-18 07:37:00,76.1,68.5,30.13,WSW,242,2.7,2.7,77,0.00,,,0.00,115.20,VWS V14.01,2013-07-18 11:37:00,
2013-07-18 07:38:00,76.3,68.4,30.13,WSW,242,1.8,2.7,77,0.00,,,0.00,116.79,VWS V14.01,2013-07-18 11:38:00,
2013-07-18 07:39:00,76.0,68.9,30.13,WSW,242,1.3,1.6,79,0.00,,,0.00,119.90,VWS V14.01,2013-07-18 11:39:00,
2013-07-18 07:40:00,75.7,68.4,30.13,WSW,242,1.8,1.8,78,0.00,,,0.00,119.47,VWS V14.01,2013-07-18 11:40:00,
2013-07-18 07:41:00,75.6,68.3,30.13,West,272,3.0,3.0,78,0.00,,,0.00,121.43,VWS V14.01,2013-07-18 11:41:00,
2013-07-18 07:42:00,75.6,68.8,30.13,West,272,2.7,3.0,79,0.00,,,0.00,123.69,VWS V14.01,2013-07-18 11:42:00,
2013-07-18 07:43:00,75.7,68.2,30.13,West,262,3.0,3.0,77,0.00,,,0.00,125.34,VWS V14.01,2013-07-18 11:43:00,
2013-07-18 07:44:00,75.8,68.7,30.12,West,262,2.2,3.0,79,0.00,,,0.00,128.21,VWS V14.01,2013-07-18 11:44:00,
2013-07-18 07:45:00,76.0,69.4,30.13,West,262,1.3,2.2,80,0.00,,,0.00,129.24,VWS V14.01,2013-07-18 11:45:00,
2013-07-18 07:46:00,76.4,69.8,30.13,West,262,0.0,0.0,80,0.00,,,0.00,131.20,VWS V14.01,2013-07-18 11:46:00,
2013-07-18 07:47:00,76.2,69.3,30.13,West,275,2.3,2.3,79,0.00,,,0.00,134.13,VWS V14.01,2013-07-18 11:47:00,
2013-07-18 07:48:00,76.0,68.1,30.13,West,275,1.5,2.8,77,0.00,,,0.00,137.18,VWS V14.01,2013-07-18 11:48:00,
2013-07-18 07:49:00,75.9,67.9,30.13,West,275,2.2,2.2,76,0.00,,,0.00,139.01,VWS V14.01,2013-07-18 11:49:00,
2013-07-18 07:50:00,76.1,68.0,30.13,West,275,2.0,2.2,76,0.00,,,0.00,139.32,VWS V14.01,2013-07-18 11:50:00,
2013-07-18 07:51:00,76.1,68.3,30.14,West,265,2.3,2.3,77,0.00,,,0.00,141.45,VWS V14.01,2013-07-18 11:51:00,
2013-07-18 07:52:00,76.1,67.8,30.13,West,273,2.5,2.7,75,0.00,,,0.00,147.25,VWS V14.01,2013-07-18 11:52:00,
2013-07-18 07:53:00,76.6,69.4,30.13,West,268,1.1,2.7,79,0.00,,,0.00,147.07,VWS V14.01,2013-07-18 11:53:00,
2013-07-18 07:54:00,76.6,69.1,30.13,West,281,2.7,2.7,78,0.00,,,0.00,147.56,VWS V14.01,2013-07-18 11:54:00,
2013-07-18 07:55:00,76.5,68.7,30.13,WSW,254,0.0,1.1,77,0.00,,,0.00,150.85,VWS V14.01,2013-07-18 11:55:00,
2013-07-18 07:56:00,76.4,67.6,30.12,West,271,2.8,2.8,74,0.00,,,0.00,154.15,VWS V14.01,2013-07-18 11:56:00,
2013-07-18 07:57:00,77.0,68.5,30.12,WSW,248,1.3,2.8,75,0.00,,,0.00,156.10,VWS V14.01,2013-07-18 11:57:00,
2013-07-18 07:58:00,76.4,67.9,30.12,WNW,296,2.8,2.8,75,0.00,,,0.00,158.79,VWS V14.01,2013-07-18 11:58:00,
2013-07-18 07:59:00,76.5,67.1,30.13,West,266,3.7,3.7,73,0.00,,,0.00,161.60,VWS V14.01,2013-07-18 11:59:00,
2013-07-18 08:00:00,76.4,67.2,30.14,West,279,2.7,3.7,73,0.00,,,0.00,163.68,VWS V14.01,2013-07-18 12:00:00,
2013-07-18 08:01:00,76.5,67.3,30.14,West,279,3.0,3.0,73,0.00,,,0.04,165.38,VWS V14.01,2013-07-18 12:01:00,
2013-07-18 08:02:00,76.5,67.3,30.14,West,279,3.0,3.0,73,0.00,,,0.04,165.38,VWS V14.01,2013-07-18 12:02:00,
2013-07-18 08:03:00,76.7,67.2,30.14,NW,304,3.5,3.5,72,0.00,,,0.00,169.78,VWS V14.01,2013-07-18 12:03:00,
2013-07-18 08:04:00,77.2,68.1,30.13,West,281,3.2,3.2,74,0.00,,,0.00,171.67,VWS V14.01,2013-07-18 12:04:00,
2013-07-18 08:05:00,77.2,67.8,30.14,WNW,301,4.2,4.2,73,0.00,,,0.00,172.22,VWS V14.01,2013-07-18 12:05:00,
2013-07-18 08:06:00,77.5,68.4,30.13,WNW,300,3.2,4.2,73,0.00,,,0.00,174.66,VWS V14.01,2013-07-18 12:06:00,
2013-07-18 08:07:00,77.5,68.4,30.13,WNW,300,3.2,4.2,73,0.00,,,0.00,174.66,VWS V14.01,2013-07-18 12:07:00,
2013-07-18 08:08:00,77.5,68.4,30.13,WNW,300,3.2,4.2,73,0.00,,,0.00,174.66,VWS V14.01,2013-07-18 12:08:00,
2013-07-18 08:09:00,77.3,68.1,30.13,West,270,4.2,4.5,73,0.00,,,0.00,178.94,VWS V14.01,2013-07-18 12:09:00,
2013-07-18 08:10:00,77.6,68.2,30.14,WNW,294,5.4,5.4,73,0.00,,,0.00,180.52,VWS V14.01,2013-07-18 12:10:00,
2013-07-18 08:11:00,77.6,68.2,30.13,NW,304,4.7,5.4,73,0.00,,,0.00,183.64,VWS V14.01,2013-07-18 12:11:00,
2013-07-18 08:12:00,77.6,67.8,30.13,WNW,294,4.9,4.9,72,0.00,,,0.00,187.55,VWS V14.01,2013-07-18 12:12:00,
2013-07-18 08:13:00,78.2,69.1,30.13,WNW,299,4.0,4.9,74,0.00,,,0.00,187.85,VWS V14.01,2013-07-18 12:13:00,
2013-07-18 08:14:00,77.8,67.8,30.13,NW,305,5.4,6.3,71,0.00,,,0.00,190.90,VWS V14.01,2013-07-18 12:14:00,
2013-07-18 08:15:00,77.9,67.7,30.13,WNW,297,5.4,6.3,71,0.00,,,0.00,190.54,VWS V14.01,2013-07-18 12:15:00,
2013-07-18 08:16:00,78.2,68.1,30.14,NW,304,4.9,5.6,71,0.00,,,0.00,190.60,VWS V14.01,2013-07-18 12:16:00,
2013-07-18 08:17:00,78.2,68.1,30.14,West,274,4.7,4.9,71,0.00,,,0.00,191.82,VWS V14.01,2013-07-18 12:17:00,
2013-07-18 08:18:00,78.9,69.8,30.14,WNW,300,3.9,4.7,74,0.00,,,0.00,194.93,VWS V14.01,2013-07-18 12:18:00,
2013-07-18 08:19:00,78.5,68.4,30.14,NW,320,4.9,5.4,71,0.00,,,0.00,200.06,VWS V14.01,2013-07-18 12:19:00,
2013-07-18 08:20:00,78.5,68.4,30.13,NW,310,5.1,5.9,71,0.00,,,0.00,205.68,VWS V14.01,2013-07-18 12:20:00,
2013-07-18 08:21:00,78.7,68.2,30.14,NW,318,5.6,5.6,70,0.00,,,0.00,210.13,VWS V14.01,2013-07-18 12:21:00,
2013-07-18 08:22:00,78.5,67.0,30.14,WNW,294,4.9,5.6,68,0.00,,,0.00,212.51,VWS V14.01,2013-07-18 12:22:00,
2013-07-18 08:23:00,79.2,69.6,30.14,NW,316,3.9,4.9,72,0.00,,,0.00,210.93,VWS V14.01,2013-07-18 12:23:00,
2013-07-18 08:24:00,78.7,67.7,30.13,WNW,298,5.1,5.1,69,0.00,,,0.00,213.49,VWS V14.01,2013-07-18 12:24:00,
2013-07-18 08:25:00,78.7,67.8,30.13,NW,304,5.1,5.1,69,0.00,,,0.00,212.27,VWS V14.01,2013-07-18 12:25:00,
2013-07-18 08:26:00,78.5,67.0,30.13,NW,307,5.4,5.4,68,0.00,,,0.00,214.90,VWS V14.01,2013-07-18 12:26:00,
2013-07-18 08:27:00,78.7,67.4,30.13,WNW,282,5.2,5.4,68,0.00,,,0.00,217.16,VWS V14.01,2013-07-18 12:27:00,
2013-07-18 08:28:00,78.8,67.1,30.13,NW,316,5.2,5.2,67,0.00,,,0.00,219.29,VWS V14.01,2013-07-18 12:28:00,
2013-07-18 08:29:00,78.5,67.0,30.13,WNW,292,6.4,6.4,68,0.00,,,0.00,225.21,VWS V14.01,2013-07-18 12:29:00,
2013-07-18 08:30:00,78.5,67.0,30.13,WNW,284,5.9,6.4,68,0.00,,,0.00,227.41,VWS V14.01,2013-07-18 12:30:00,
2013-07-18 08:31:00,79.1,68.2,30.13,WNW,300,4.2,5.9,69,0.00,,,0.00,228.33,VWS V14.01,2013-07-18 12:31:00,
2013-07-18 08:32:00,78.7,67.2,30.12,WNW,286,5.9,5.9,68,0.00,,,0.00,231.56,VWS V14.01,2013-07-18 12:32:00,
2013-07-18 08:33:00,78.3,66.2,30.13,WNW,288,6.6,6.6,66,0.00,,,0.00,232.05,VWS V14.01,2013-07-18 12:33:00,
2013-07-18 08:34:00,78.6,66.3,30.13,WNW,292,5.9,6.6,66,0.00,,,0.00,234.25,VWS V14.01,2013-07-18 12:34:00,
2013-07-18 08:35:00,78.7,67.2,30.13,WNW,286,6.1,6.1,68,0.00,,,0.00,241.82,VWS V14.01,2013-07-18 12:35:00,
2013-07-18 08:36:00,78.8,67.3,30.13,WNW,289,5.4,6.1,68,0.00,,,0.00,243.96,VWS V14.01,2013-07-18 12:36:00,
2013-07-18 08:37:00,79.1,67.1,30.14,WNW,300,5.6,6.4,67,0.00,,,0.00,246.70,VWS V14.01,2013-07-18 12:37:00,
2013-07-18 08:38:00,79.0,67.3,30.13,West,278,4.9,5.6,67,0.00,,,0.00,249.82,VWS V14.01,2013-07-18 12:38:00,
2013-07-18 08:39:00,79.3,67.6,30.13,West,277,4.4,4.9,67,0.00,,,0.00,251.34,VWS V14.01,2013-07-18 12:39:00,
2013-07-18 08:40:00,79.4,67.6,30.13,West,271,4.7,4.7,67,0.00,,,0.00,253.79,VWS V14.01,2013-07-18 12:40:00,
2013-07-18 08:41:00,79.4,66.9,30.13,WNW,294,4.5,5.1,66,0.00,,,0.00,256.65,VWS V14.01,2013-07-18 12:41:00,
2013-07-18 08:42:00,79.9,67.1,30.13,WNW,301,4.2,4.2,65,0.00,,,0.00,263.55,VWS V14.01,2013-07-18 12:42:00,
2013-07-18 08:43:00,79.9,68.2,30.13,WNW,289,3.2,4.2,67,0.00,,,0.00,266.00,VWS V14.01,2013-07-18 12:43:00,
2013-07-18 08:44:00,79.9,67.5,30.13,WNW,302,4.7,4.7,66,0.00,,,0.00,268.44,VWS V14.01,2013-07-18 12:44:00,
2013-07-18 08:45:00,79.5,66.2,30.13,NW,308,5.7,5.7,64,0.00,,,0.00,270.15,VWS V14.01,2013-07-18 12:45:00,
2013-07-18 08:46:00,79.5,65.5,30.13,NW,312,5.4,5.4,62,0.00,,,0.00,274.05,VWS V14.01,2013-07-18 12:46:00,
2013-07-18 08:47:00,79.8,66.6,30.13,NW,309,6.4,6.4,64,0.00,,,0.00,275.76,VWS V14.01,2013-07-18 12:47:00,
2013-07-18 08:48:00,79.6,65.4,30.13,NW,311,8.3,8.3,62,0.00,,,0.00,278.21,VWS V14.01,2013-07-18 12:48:00,
2013-07-18 08:49:00,80.0,66.9,30.13,NW,315,6.6,8.3,64,0.00,,,0.00,279.43,VWS V14.01,2013-07-18 12:49:00,
2013-07-18 08:50:00,80.4,68.0,30.13,NW,319,7.6,7.6,66,0.00,,,0.00,278.82,VWS V14.01,2013-07-18 12:50:00,
2013-07-18 08:51:00,80.3,64.7,30.13,NW,321,5.6,7.6,59,0.00,,,0.00,285.23,VWS V14.01,2013-07-18 12:51:00,
2013-07-18 08:52:00,80.1,66.0,30.13,NW,313,6.3,6.3,62,0.00,,,0.00,287.97,VWS V14.01,2013-07-18 12:52:00,
2013-07-18 08:53:00,79.7,65.4,30.13,WNW,291,6.8,6.8,62,0.00,,,0.00,287.97,VWS V14.01,2013-07-18 12:53:00,
2013-07-18 08:54:00,80.4,67.1,30.13,WNW,298,5.7,6.1,64,0.00,,,0.00,288.46,VWS V14.01,2013-07-18 12:54:00,
2013-07-18 08:55:00,80.4,67.1,30.13,WNW,298,5.7,6.1,64,0.00,,,0.00,288.46,VWS V14.01,2013-07-18 12:55:00,
2013-07-18 08:56:00,80.6,66.8,30.13,WNW,298,6.3,6.9,63,0.00,,,0.00,289.44,VWS V14.01,2013-07-18 12:56:00,
2013-07-18 08:57:00,80.2,63.5,30.13,WNW,295,5.9,6.1,57,0.00,,,0.00,293.10,VWS V14.01,2013-07-18 12:57:00,
2013-07-18 08:58:00,81.0,67.0,30.13,NW,313,5.9,5.9,62,0.00,,,0.00,299.57,VWS V14.01,2013-07-18 12:58:00,
2013-07-18 08:59:00,81.2,66.9,30.13,NW,321,6.9,6.9,62,0.00,,,0.00,303.11,VWS V14.01,2013-07-18 12:59:00,
2013-07-18 09:00:00,81.3,66.8,30.13,NW,316,5.4,6.9,61,0.00,,,0.00,309.95,VWS V14.01,2013-07-18 13:00:00,
2013-07-18 09:01:00,81.9,67.2,30.13,West,268,4.5,5.4,61,0.00,,,0.00,309.95,VWS V14.01,2013-07-18 13:01:00,
2013-07-18 09:05:00,81.3,65.7,30.13,WNW,294,6.3,6.4,59,0.00,,,0.00,319.96,VWS V14.01,2013-07-18 13:05:00,
2013-07-18 09:06:00,82.3,67.0,30.12,NW,308,3.2,6.4,60,0.00,,,0.04,325.82,VWS V14.01,2013-07-18 13:06:00,
2013-07-18 09:07:00,83.0,67.4,30.13,NW,309,2.8,6.4,59,0.00,,,0.00,331.93,VWS V14.01,2013-07-18 13:07:00,
2013-07-18 09:08:00,82.3,66.2,30.13,West,279,4.2,6.4,58,0.00,,,0.00,333.88,VWS V14.01,2013-07-18 13:08:00,
2013-07-18 09:10:00,82.1,66.2,30.13,WNW,292,5.1,6.4,59,0.00,,,0.00,334.62,VWS V14.01,2013-07-18 13:10:00,
2013-07-18 09:11:00,82.4,65.8,30.13,NW,317,5.7,6.4,57,0.00,,,0.00,337.12,VWS V14.01,2013-07-18 13:11:00,
2013-07-18 09:12:00,83.1,68.2,30.13,WNW,285,4.0,6.4,61,0.00,,,0.00,336.81,VWS V14.01,2013-07-18 13:12:00,
2013-07-18 09:13:00,82.2,65.6,30.12,WNW,301,5.7,6.4,57,0.00,,,0.00,339.26,VWS V14.01,2013-07-18 13:13:00,
2013-07-18 09:14:00,83.2,67.5,30.13,NNW,327,4.5,6.4,59,0.00,,,0.00,340.72,VWS V14.01,2013-07-18 13:14:00,
2013-07-18 09:17:00,83.3,66.0,30.13,NW,319,4.0,6.4,56,0.00,,,0.00,349.02,VWS V14.01,2013-07-18 13:17:00,
2013-07-18 09:19:00,83.5,67.3,30.13,West,278,5.6,6.4,58,0.00,,,0.00,356.11,VWS V14.01,2013-07-18 13:19:00,
2013-07-18 09:23:00,83.3,65.5,30.12,WNW,293,3.0,6.4,55,0.00,,,0.00,364.29,VWS V14.01,2013-07-18 13:23:00,
2013-07-18 09:24:00,83.1,64.6,30.13,NW,319,5.9,6.4,54,0.00,,,0.00,367.03,VWS V14.01,2013-07-18 13:24:00,
2013-07-18 09:25:00,82.7,64.9,30.14,West,281,4.7,6.4,55,0.00,,,0.00,371.86,VWS V14.01,2013-07-18 13:25:00,
2013-07-18 09:28:00,83.4,65.6,30.13,NW,314,5.1,6.8,55,0.00,,,0.00,375.27,VWS V14.01,2013-07-18 13:28:00,
2013-07-18 09:29:00,83.5,65.3,30.13,NW,321,4.9,6.8,54,0.00,,,0.00,380.28,VWS V14.01,2013-07-18 13:29:00,
2013-07-18 09:32:00,83.3,63.4,30.12,NW,320,4.9,6.8,51,0.00,,,0.00,390.78,VWS V14.01,2013-07-18 13:32:00,
2013-07-18 09:34:00,83.4,63.7,30.13,NNW,328,5.4,6.8,51,0.00,,,0.00,398.96,VWS V14.01,2013-07-18 13:34:00,
2013-07-18 09:35:00,82.9,63.4,30.12,WNW,297,7.1,7.1,52,0.00,,,0.00,400.31,VWS V14.01,2013-07-18 13:35:00,
2013-07-18 09:37:00,84.0,65.6,30.13,NW,317,4.4,7.1,54,0.00,,,0.00,403.36,VWS V14.01,2013-07-18 13:37:00,
2013-07-18 09:38:00,83.3,63.0,30.12,West,280,4.0,7.1,50,0.00,,,0.00,406.11,VWS V14.01,2013-07-18 13:38:00,
2013-07-18 09:40:00,83.9,64.1,30.12,NNW,335,5.6,7.1,51,0.00,,,0.00,413.13,VWS V14.01,2013-07-18 13:40:00,
2013-07-18 09:41:00,84.4,62.5,30.12,NNW,336,2.3,7.1,48,0.00,,,0.00,412.52,VWS V14.01,2013-07-18 13:41:00,
2013-07-18 09:42:00,85.3,64.9,30.12,NW,321,2.2,7.1,50,0.00,,,0.04,411.29,VWS V14.01,2013-07-18 13:42:00,
2013-07-18 09:43:00,84.7,63.7,30.12,NW,306,3.7,7.1,50,0.00,,,0.00,415.57,VWS V14.01,2013-07-18 13:43:00,
2013-07-18 09:45:00,83.8,62.0,30.12,NW,319,3.4,7.1,48,0.00,,,0.00,421.80,VWS V14.01,2013-07-18 13:45:00,
2013-07-18 09:47:00,85.5,65.0,30.12,West,280,5.7,7.1,50,0.00,,,0.00,424.24,VWS V14.01,2013-07-18 13:47:00,
2013-07-18 09:49:00,83.7,62.0,30.13,WNW,286,6.4,7.1,48,0.00,,,0.00,425.27,VWS V14.01,2013-07-18 13:49:00,
2013-07-18 09:50:00,84.7,63.1,30.12,NW,326,5.6,7.1,48,0.00,,,0.00,429.61,VWS V14.01,2013-07-18 13:50:00,
2013-07-18 09:51:00,85.4,65.1,30.12,NW,314,5.7,7.1,51,0.00,,,0.00,436.57,VWS V14.01,2013-07-18 13:51:00,
2013-07-18 09:52:00,84.7,63.0,30.13,NW,313,5.1,8.1,48,0.00,,,0.00,440.84,VWS V14.01,2013-07-18 13:52:00,
2013-07-18 09:54:00,84.1,62.2,30.12,NW,311,7.3,8.1,48,0.00,,,0.00,444.44,VWS V14.01,2013-07-18 13:54:00,
2013-07-18 09:55:00,85.3,64.2,30.12,NW,308,5.9,8.1,49,0.00,,,0.00,446.70,VWS V14.01,2013-07-18 13:55:00,
2013-07-18 09:56:00,84.7,63.1,30.14,WNW,288,8.3,8.3,48,0.00,,,0.00,447.50,VWS V14.01,2013-07-18 13:56:00,
2013-07-18 10:00:00,84.5,62.7,30.12,West,280,6.3,8.3,48,0.00,,,0.00,455.01,VWS V14.01,2013-07-18 14:00:00,
2013-07-18 10:01:00,84.6,62.5,30.12,WNW,289,6.9,8.3,48,0.00,,,0.00,461.60,VWS V14.01,2013-07-18 14:01:00,
2013-07-18 10:02:00,85.8,64.9,30.12,NNW,339,5.2,6.9,50,0.00,,,0.00,463.07,VWS V14.01,2013-07-18 14:02:00,
2013-07-18 10:03:00,86.7,63.7,30.12,NNE,33,2.5,5.2,46,0.00,,,0.00,468.99,VWS V14.01,2013-07-18 14:03:00,
2013-07-18 10:05:00,86.4,62.5,30.12,North,350,4.0,5.2,45,0.00,,,0.00,472.10,VWS V14.01,2013-07-18 14:05:00,
2013-07-18 10:06:00,86.4,63.3,30.12,North,5,3.9,5.2,46,0.00,,,0.00,476.01,VWS V14.01,2013-07-18 14:06:00,
2013-07-18 10:07:00,86.3,62.3,30.13,North,360,1.6,5.2,45,0.00,,,0.00,476.01,VWS V14.01,2013-07-18 14:07:00,
2013-07-18 10:08:00,85.0,61.5,30.12,WNW,295,4.2,5.2,45,0.00,,,0.00,478.14,VWS V14.01,2013-07-18 14:08:00,
2013-07-18 10:12:00,84.7,59.9,30.11,NNW,337,8.8,8.8,43,0.00,,,0.00,483.09,VWS V14.01,2013-07-18 14:12:00,
2013-07-18 10:13:00,84.7,59.9,30.11,NNW,337,8.8,8.8,43,0.00,,,0.00,483.09,VWS V14.01,2013-07-18 14:13:00,
2013-07-18 10:15:00,85.9,60.4,30.11,NNW,345,4.5,8.8,42,0.00,,,0.00,495.54,VWS V14.01,2013-07-18 14:15:00,
2013-07-18 10:17:00,84.6,60.2,30.11,WNW,296,7.6,8.8,44,0.00,,,0.00,495.54,VWS V14.01,2013-07-18 14:17:00,
2013-07-18 10:18:00,84.9,60.4,30.11,NNW,328,7.5,8.8,44,0.00,,,0.00,500.43,VWS V14.01,2013-07-18 14:18:00,
2013-07-18 10:20:00,86.1,63.5,30.11,NNW,331,6.1,8.8,47,0.00,,,0.00,504.82,VWS V14.01,2013-07-18 14:20:00,
2013-07-18 10:21:00,85.1,61.7,30.11,NW,310,5.9,8.8,46,0.00,,,0.00,503.05,VWS V14.01,2013-07-18 14:21:00,
2013-07-18 10:22:00,85.7,61.9,30.13,NW,313,3.9,8.8,45,0.00,,,0.00,512.64,VWS V14.01,2013-07-18 14:22:00,
2013-07-18 10:23:00,84.6,59.4,30.12,NW,309,8.0,8.8,43,0.00,,,0.00,512.64,VWS V14.01,2013-07-18 14:23:00,
2013-07-18 10:24:00,87.1,64.0,30.12,NW,308,2.2,8.8,46,0.00,,,0.00,515.08,VWS V14.01,2013-07-18 14:24:00,
2013-07-18 10:26:00,85.4,59.7,30.12,WNW,302,4.7,8.8,42,0.00,,,0.00,520.45,VWS V14.01,2013-07-18 14:26:00,
2013-07-18 10:28:00,84.9,59.6,30.11,West,274,4.4,8.8,43,0.00,,,0.00,512.58,VWS V14.01,2013-07-18 14:28:00,
2013-07-18 10:29:00,85.2,60.1,30.11,NW,314,5.6,8.8,43,0.00,,,0.00,517.52,VWS V14.01,2013-07-18 14:29:00,
2013-07-18 10:32:00,86.2,62.2,30.11,WNW,296,5.1,8.8,45,0.00,,,0.00,522.41,VWS V14.01,2013-07-18 14:32:00,
2013-07-18 10:33:00,85.4,60.1,30.11,WNW,289,3.2,8.8,43,0.00,,,0.00,527.29,VWS V14.01,2013-07-18 14:33:00,
2013-07-18 10:35:00,85.6,59.7,30.11,WNW,293,6.3,8.8,42,0.00,,,0.00,539.93,VWS V14.01,2013-07-18 14:35:00,
2013-07-18 10:37:00,85.1,60.4,30.11,West,271,7.1,8.8,43,0.00,,,0.00,542.86,VWS V14.01,2013-07-18 14:37:00,
2013-07-18 10:38:00,84.7,58.2,30.11,West,278,8.5,8.8,41,0.00,,,0.00,545.12,VWS V14.01,2013-07-18 14:38:00,
2013-07-18 10:39:00,85.6,59.6,30.11,NW,311,5.7,8.8,42,0.00,,,0.00,547.07,VWS V14.01,2013-07-18 14:39:00,
2013-07-18 10:42:00,85.8,59.9,30.11,NW,307,4.4,8.8,42,0.00,,,0.00,551.71,VWS V14.01,2013-07-18 14:42:00,
2013-07-18 10:44:00,86.4,61.3,30.11,West,278,4.5,8.8,43,0.00,,,0.00,554.15,VWS V14.01,2013-07-18 14:44:00,
2013-07-18 10:47:00,86.4,60.3,30.11,WSW,250,3.5,8.8,42,0.00,,,0.00,546.58,VWS V14.01,2013-07-18 14:47:00,
2013-07-18 10:49:00,85.8,58.1,30.11,WNW,295,4.7,8.8,39,0.00,,,0.00,569.05,VWS V14.01,2013-07-18 14:49:00,
2013-07-18 10:50:00,87.0,60.2,30.11,WNW,296,8.0,8.8,41,0.00,,,0.00,571.86,VWS V14.01,2013-07-18 14:50:00,
2013-07-18 10:53:00,86.1,58.8,30.11,WNW,289,5.6,8.8,40,0.00,,,0.00,576.74,VWS V14.01,2013-07-18 14:53:00,
2013-07-18 10:54:00,86.8,59.9,30.11,NW,311,8.1,8.8,40,0.00,,,0.00,573.93,VWS V14.01,2013-07-18 14:54:00,
2013-07-18 10:55:00,86.6,60.3,30.11,WNW,295,6.3,8.8,41,0.00,,,0.00,579.67,VWS V14.01,2013-07-18 14:55:00,
2013-07-18 10:57:00,86.0,57.6,30.11,NW,318,3.5,8.8,38,0.00,,,0.00,583.21,VWS V14.01,2013-07-18 14:57:00,
2013-07-18 10:59:00,84.5,62.5,30.12,WNW,289,6.9,8.3,48,0.00,,,0.00,461.60,VWS V14.01,2013-07-18 14:59:00,
2013-07-18 11:00:00,86.8,57.1,30.11,NNW,343,4.9,8.8,36,0.00,,,0.04,597.86,VWS V14.01,2013-07-18 15:00:00,
2013-07-18 11:01:00,87.7,59.9,30.11,NW,324,4.4,8.8,39,0.00,,,0.00,603.24,VWS V14.01,2013-07-18 15:01:00,
2013-07-18 11:02:00,86.7,57.0,30.10,NW,316,4.0,4.0,37,0.00,,,0.00,334.37,VWS V14.01,2013-07-18 15:02:00,
2013-07-18 11:03:00,86.1,57.7,30.11,West,280,2.3,4.0,38,0.00,,,0.00,130.04,VWS V14.01,2013-07-18 15:03:00,
2013-07-18 11:04:00,86.3,58.0,30.10,WNW,300,4.0,4.0,38,0.00,,,0.00,597.86,VWS V14.01,2013-07-18 15:04:00,
2013-07-18 11:05:00,86.4,56.4,30.10,WSW,243,7.6,7.6,36,0.00,,,0.00,600.55,VWS V14.01,2013-07-18 15:05:00,
2013-07-18 11:06:00,86.2,56.7,30.11,WNW,283,5.4,5.4,37,0.00,,,0.00,617.64,VWS V14.01,2013-07-18 15:06:00,
2013-07-18 11:07:00,89.2,61.1,30.11,SW,227,2.5,3.7,39,0.00,,,0.00,624.73,VWS V14.01,2013-07-18 15:07:00,
2013-07-18 11:08:00,88.2,58.8,30.11,WNW,291,6.6,6.6,37,0.00,,,0.00,624.66,VWS V14.01,2013-07-18 15:08:00,
2013-07-18 11:09:00,87.7,58.7,30.11,WNW,290,8.0,10.5,38,0.00,,,0.00,612.76,VWS V14.01,2013-07-18 15:09:00,
2013-07-18 11:10:00,87.8,60.2,30.11,NW,316,7.6,9.5,40,0.00,,,0.00,627.11,VWS V14.01,2013-07-18 15:10:00,
2013-07-18 11:11:00,86.7,57.7,30.11,NW,314,8.5,8.5,37,0.00,,,0.00,622.77,VWS V14.01,2013-07-18 15:11:00,
2013-07-18 11:12:00,86.8,57.6,30.11,NNE,17,4.4,4.4,37,0.00,,,0.00,637.18,VWS V14.01,2013-07-18 15:12:00,
2013-07-18 11:13:00,87.1,58.2,30.11,NW,314,5.1,5.1,38,0.00,,,0.00,638.89,VWS V14.01,2013-07-18 15:13:00,
2013-07-18 11:14:00,88.5,59.6,30.11,NW,324,1.3,4.7,38,0.00,,,0.00,637.18,VWS V14.01,2013-07-18 15:14:00,
2013-07-18 11:15:00,87.1,56.9,30.11,NW,312,4.5,4.7,36,0.00,,,0.00,622.53,VWS V14.01,2013-07-18 15:15:00,
2013-07-18 11:16:00,86.6,56.3,30.11,NNW,335,8.8,8.8,36,0.00,,,0.00,661.60,VWS V14.01,2013-07-18 15:16:00,
2013-07-18 11:17:00,87.3,57.7,30.10,NW,314,4.4,8.8,37,0.00,,,0.00,668.93,VWS V14.01,2013-07-18 15:17:00,
2013-07-18 11:18:00,88.2,59.3,30.11,WNW,300,2.7,4.4,38,0.00,,,0.00,676.25,VWS V14.01,2013-07-18 15:18:00,
2013-07-18 11:19:00,90.8,62.7,30.10,NNE,16,2.5,2.5,39,0.00,,,0.00,621.00,VWS V14.01,2013-07-18 15:19:00,
2013-07-18 11:20:00,86.7,56.7,30.11,WNW,288,6.4,6.9,36,0.00,,,0.00,224.24,VWS V14.01,2013-07-18 15:20:00,
2013-07-18 11:21:00,86.4,57.0,30.11,WSW,255,7.1,8.5,37,0.00,,,0.00,730.22,VWS V14.01,2013-07-18 15:21:00,
2013-07-18 11:22:00,86.9,58.1,30.11,WSW,254,6.4,7.1,38,0.00,,,0.00,716.30,VWS V14.01,2013-07-18 15:22:00,
2013-07-18 11:23:00,87.1,57.7,30.11,WNW,287,6.3,6.4,37,0.00,,,0.00,754.40,VWS V14.01,2013-07-18 15:23:00,
2013-07-18 11:24:00,87.8,58.1,30.11,WSW,242,4.2,4.2,37,0.00,,,0.00,737.55,VWS V14.01,2013-07-18 15:24:00,
2013-07-18 11:25:00,88.3,59.5,30.11,WNW,293,8.1,10.5,38,0.00,,,0.00,739.20,VWS V14.01,2013-07-18 15:25:00,
2013-07-18 11:26:00,88.4,59.7,30.11,NW,311,8.1,8.1,38,0.00,,,0.00,537.06,VWS V14.01,2013-07-18 15:26:00,
2013-07-18 11:27:00,88.3,57.9,30.10,WSW,247,7.8,8.1,36,0.00,,,0.00,705.56,VWS V14.01,2013-07-18 15:27:00,
2013-07-18 11:28:00,87.0,57.3,30.11,WSW,253,5.9,7.8,37,0.00,,,0.00,767.22,VWS V14.01,2013-07-18 15:28:00,
2013-07-18 11:29:00,86.6,56.3,30.11,West,262,8.0,8.0,36,0.00,,,0.00,752.20,VWS V14.01,2013-07-18 15:29:00,
2013-07-18 11:30:00,87.1,56.9,30.10,West,280,5.7,8.3,36,0.00,,,0.00,305.31,VWS V14.01,2013-07-18 15:30:00,
2013-07-18 11:31:00,86.8,57.9,30.11,West,263,6.1,6.1,38,0.00,,,0.00,789.19,VWS V14.01,2013-07-18 15:31:00,
2013-07-18 11:32:00,88.0,60.0,30.11,West,271,5.1,6.1,39,0.00,,,0.00,793.47,VWS V14.01,2013-07-18 15:32:00,
2013-07-18 11:33:00,88.1,60.2,30.11,SW,226,5.4,6.4,39,0.00,,,0.00,661.97,VWS V14.01,2013-07-18 15:33:00,
2013-07-18 11:34:00,86.8,58.6,30.10,West,259,3.4,3.4,39,0.00,,,0.00,230.59,VWS V14.01,2013-07-18 15:34:00,
2013-07-18 11:35:00,87.4,59.3,30.11,WSW,244,4.7,4.7,39,0.00,,,0.00,222.77,VWS V14.01,2013-07-18 15:35:00,
2013-07-18 11:36:00,85.9,54.5,30.11,West,262,6.3,6.9,34,0.00,,,0.00,239.13,VWS V14.01,2013-07-18 15:36:00,
2013-07-18 11:37:00,86.0,58.6,30.11,WSW,253,5.2,6.9,40,0.00,,,0.00,244.99,VWS V14.01,2013-07-18 15:37:00,
2013-07-18 11:38:00,85.9,58.7,30.11,West,266,5.7,5.7,40,0.00,,,0.00,250.61,VWS V14.01,2013-07-18 15:38:00,
2013-07-18 11:39:00,86.1,59.0,30.11,WSW,255,4.0,6.6,40,0.00,,,0.00,305.07,VWS V14.01,2013-07-18 15:39:00,
2013-07-18 11:40:00,86.4,59.5,30.11,NW,307,8.7,8.7,40,0.00,,,0.00,300.18,VWS V14.01,2013-07-18 15:40:00,
2013-07-18 11:41:00,85.7,58.4,30.11,NW,315,8.8,8.8,40,0.00,,,0.00,241.51,VWS V14.01,2013-07-18 15:41:00,
2013-07-18 11:42:00,86.2,59.3,30.11,NNW,327,5.4,8.8,40,0.00,,,0.00,229.98,VWS V14.01,2013-07-18 15:42:00,
2013-07-18 11:43:00,85.9,59.7,30.11,NW,322,5.2,7.5,41,0.00,,,0.00,277.47,VWS V14.01,2013-07-18 15:43:00,
2013-07-18 11:44:00,86.3,60.2,30.11,NW,312,4.7,5.2,41,0.00,,,0.00,620.94,VWS V14.01,2013-07-18 15:44:00,
2013-07-18 11:45:00,86.2,58.5,30.11,NW,306,5.9,5.9,39,0.00,,,0.00,236.69,VWS V14.01,2013-07-18 15:45:00,
2013-07-18 11:46:00,86.0,58.8,30.11,NW,310,7.8,7.8,40,0.00,,,0.00,232.05,VWS V14.01,2013-07-18 15:46:00,
2013-07-18 11:47:00,85.9,58.7,30.11,WNW,295,7.5,8.1,40,0.00,,,0.00,353.91,VWS V14.01,2013-07-18 15:47:00,
2013-07-18 11:48:00,85.8,60.0,30.11,WNW,294,7.1,7.5,42,0.00,,,0.00,573.44,VWS V14.01,2013-07-18 15:48:00,
2013-07-18 11:49:00,86.2,60.8,30.11,WNW,292,5.6,7.1,43,0.00,,,0.00,214.71,VWS V14.01,2013-07-18 15:49:00,
2013-07-18 11:50:00,85.7,58.8,30.11,NW,312,9.7,9.7,40,0.00,,,0.00,219.60,VWS V14.01,2013-07-18 15:50:00,
2013-07-18 11:51:00,85.7,59.3,30.11,WNW,282,6.3,8.7,41,0.00,,,0.00,326.80,VWS V14.01,2013-07-18 15:51:00,
2013-07-18 11:52:00,86.4,59.9,30.10,WNW,291,5.7,5.7,41,0.00,,,0.00,451.59,VWS V14.01,2013-07-18 15:52:00,
2013-07-18 11:53:00,86.2,59.4,30.11,WSW,248,5.9,6.1,41,0.00,,,0.00,257.63,VWS V14.01,2013-07-18 15:53:00,
2013-07-18 11:54:00,86.3,59.7,30.11,West,267,8.7,8.7,41,0.00,,,0.00,246.76,VWS V14.01,2013-07-18 15:54:00,
2013-07-18 11:55:00,86.0,58.0,30.11,West,270,5.4,8.7,39,0.00,,,0.00,236.69,VWS V14.01,2013-07-18 15:55:00,
2013-07-18 11:56:00,86.1,59.0,30.11,West,266,8.7,8.7,40,0.00,,,0.00,237.91,VWS V14.01,2013-07-18 15:56:00,
2013-07-18 11:57:00,86.1,60.2,30.11,WSW,250,5.7,8.7,42,0.00,,,0.00,244.02,VWS V14.01,2013-07-18 15:57:00,
2013-07-18 11:58:00,86.0,59.6,30.11,WSW,243,5.6,7.6,41,0.00,,,0.00,253.79,VWS V14.01,2013-07-18 15:58:00,
2013-07-18 11:59:00,85.8,59.3,30.11,WSW,256,7.1,7.1,41,0.00,,,0.00,254.03,VWS V14.01,2013-07-18 15:59:00,
2013-07-18 12:00:00,86.1,60.0,30.11,WSW,245,5.4,6.9,42,0.00,,,0.00,243.90,VWS V14.01,2013-07-18 16:00:00,
2013-07-18 12:01:00,85.7,59.4,30.11,West,273,8.7,8.7,41,0.00,,,0.00,231.75,VWS V14.01,2013-07-18 16:01:00,
2013-07-18 12:02:00,85.7,58.4,30.11,WSW,252,8.0,8.7,40,0.00,,,0.00,238.40,VWS V14.01,2013-07-18 16:02:00,
2013-07-18 12:03:00,87.8,58.9,30.11,WSW,245,9.9,9.9,38,0.00,,,0.00,830.10,VWS V14.01,2013-07-18 16:03:00,
2013-07-18 12:04:00,87.2,58.0,30.11,West,260,10.0,10.0,37,0.00,,,0.00,839.87,VWS V14.01,2013-07-18 16:04:00,
2013-07-18 12:05:00,86.7,57.4,30.11,West,263,7.8,10.0,37,0.00,,,0.00,843.83,VWS V14.01,2013-07-18 16:05:00,
2013-07-18 12:06:00,86.8,57.0,30.10,WNW,283,11.1,11.1,36,0.00,,,0.00,836.14,VWS V14.01,2013-07-18 16:06:00,
2013-07-18 12:07:00,87.0,57.4,30.11,WNW,300,7.3,11.1,37,0.00,,,0.00,832.78,VWS V14.01,2013-07-18 16:07:00,
2013-07-18 12:08:00,88.2,58.5,30.10,WNW,287,6.6,7.3,37,0.00,,,0.00,859.16,VWS V14.01,2013-07-18 16:08:00,
2013-07-18 12:09:00,87.4,56.6,30.11,WNW,293,7.3,7.3,35,0.00,,,0.00,867.09,VWS V14.01,2013-07-18 16:09:00,
2013-07-18 12:10:00,88.6,59.3,30.10,WNW,294,7.1,7.3,37,0.00,,,0.00,869.41,VWS V14.01,2013-07-18 16:10:00,
2013-07-18 12:11:00,88.1,57.9,30.11,WNW,299,8.5,8.5,36,0.00,,,0.04,872.47,VWS V14.01,2013-07-18 16:11:00,
2013-07-18 12:12:00,88.1,57.9,30.11,WNW,299,8.5,8.5,36,0.00,,,0.04,872.47,VWS V14.01,2013-07-18 16:12:00,
2013-07-18 12:13:00,86.7,55.4,30.10,West,264,10.7,10.7,34,0.00,,,0.00,212.27,VWS V14.01,2013-07-18 16:13:00,
2013-07-18 12:14:00,86.5,58.3,30.10,West,259,8.3,8.3,39,0.00,,,0.00,190.54,VWS V14.01,2013-07-18 16:14:00,
2013-07-18 12:15:00,85.6,57.0,30.10,WNW,289,9.0,9.0,38,0.00,,,0.00,179.06,VWS V14.01,2013-07-18 16:15:00,
2013-07-18 12:16:00,85.7,58.1,30.10,West,281,8.8,9.0,39,0.00,,,0.00,173.14,VWS V14.01,2013-07-18 16:16:00,
2013-07-18 12:17:00,85.5,58.0,30.11,West,273,9.2,9.7,39,0.00,,,0.00,165.63,VWS V14.01,2013-07-18 16:17:00,
2013-07-18 12:18:00,85.6,58.8,30.11,WNW,292,8.1,9.2,40,0.00,,,0.00,164.53,VWS V14.01,2013-07-18 16:18:00,
2013-07-18 12:19:00,85.4,58.7,30.11,West,281,8.7,8.7,40,0.00,,,0.00,165.57,VWS V14.01,2013-07-18 16:19:00,
2013-07-18 12:20:00,85.6,58.2,30.10,West,281,8.5,8.5,40,0.00,,,0.00,202.44,VWS V14.01,2013-07-18 16:20:00,
2013-07-18 12:21:00,85.8,59.7,30.10,West,280,6.9,6.9,41,0.00,,,0.00,212.27,VWS V14.01,2013-07-18 16:21:00,
2013-07-18 12:22:00,86.1,58.7,30.10,West,279,7.3,7.3,40,0.00,,,0.00,808.12,VWS V14.01,2013-07-18 16:22:00,
2013-07-18 12:23:00,87.1,59.4,30.10,WSW,257,5.9,7.3,39,0.00,,,0.00,805.68,VWS V14.01,2013-07-18 16:23:00,
2013-07-18 12:24:00,88.6,60.2,30.10,WSW,242,7.6,7.6,39,0.00,,,0.00,803.36,VWS V14.01,2013-07-18 16:24:00,
2013-07-18 12:25:00,88.4,58.5,30.09,SW,232,7.6,7.6,37,0.00,,,0.00,801.77,VWS V14.01,2013-07-18 16:25:00,
2013-07-18 12:26:00,88.0,57.6,30.10,West,260,8.3,8.3,36,0.00,,,0.00,674.60,VWS V14.01,2013-07-18 16:26:00,
2013-07-18 12:27:00,87.1,54.7,30.10,West,274,6.6,8.3,33,0.00,,,0.00,766.61,VWS V14.01,2013-07-18 16:27:00,
2013-07-18 12:28:00,87.0,54.5,30.10,West,277,9.9,9.9,33,0.00,,,0.00,856.96,VWS V14.01,2013-07-18 16:28:00,
2013-07-18 12:29:00,88.5,58.0,30.10,WSW,258,8.1,9.9,36,0.00,,,0.00,893.96,VWS V14.01,2013-07-18 16:29:00,
2013-07-18 12:30:00,88.3,56.7,30.10,NNW,330,9.0,9.0,34,0.00,,,0.00,617.64,VWS V14.01,2013-07-18 16:30:00,
2013-07-18 12:31:00,88.3,56.7,30.10,NNW,330,9.0,9.0,34,0.00,,,0.00,617.64,VWS V14.01,2013-07-18 16:31:00,
2013-07-18 12:32:00,87.7,56.0,30.10,WSW,257,6.8,6.8,34,0.00,,,0.00,450.00,VWS V14.01,2013-07-18 16:32:00,
2013-07-18 12:33:00,88.8,57.9,30.10,West,271,6.1,6.8,35,0.00,,,0.00,326.74,VWS V14.01,2013-07-18 16:33:00,
2013-07-18 12:34:00,88.1,57.0,30.10,West,277,9.5,9.5,35,0.00,,,0.00,296.28,VWS V14.01,2013-07-18 16:34:00,
2013-07-18 12:35:00,87.6,56.1,30.10,West,278,8.7,9.5,34,0.00,,,0.00,534.86,VWS V14.01,2013-07-18 16:35:00,
2013-07-18 12:36:00,88.1,56.2,30.10,West,272,8.7,8.7,34,0.00,,,0.00,659.16,VWS V14.01,2013-07-18 16:36:00,
2013-07-18 12:37:00,87.2,54.6,30.09,WSW,256,9.5,9.5,33,0.00,,,0.00,833.46,VWS V14.01,2013-07-18 16:37:00,
2013-07-18 12:38:00,89.2,57.5,30.10,WSW,246,8.7,9.5,34,0.00,,,0.00,842.00,VWS V14.01,2013-07-18 16:38:00,
2013-07-18 12:39:00,89.1,56.9,30.09,SW,233,10.2,10.2,34,0.00,,,0.00,862.15,VWS V14.01,2013-07-18 16:39:00,
2013-07-18 12:40:00,88.1,54.4,30.09,WSW,256,5.4,10.2,32,0.00,,,0.00,872.34,VWS V14.01,2013-07-18 16:40:00,
2013-07-18 12:41:00,89.7,57.0,30.10,WSW,239,10.7,10.7,33,0.00,,,0.00,887.00,VWS V14.01,2013-07-18 16:41:00,
2013-07-18 12:42:00,87.7,54.1,30.10,WSW,250,8.8,10.7,32,0.00,,,0.00,872.10,VWS V14.01,2013-07-18 16:42:00,
2013-07-18 12:43:00,88.7,57.2,30.09,West,267,9.7,9.9,34,0.00,,,0.00,701.16,VWS V14.01,2013-07-18 16:43:00,
2013-07-18 12:44:00,87.0,55.2,30.09,WSW,254,10.7,10.7,34,0.00,,,0.00,283.03,VWS V14.01,2013-07-18 16:44:00,
2013-07-18 12:45:00,87.9,57.2,30.09,WNW,283,7.8,10.7,35,0.00,,,0.00,896.64,VWS V14.01,2013-07-18 16:45:00,
2013-07-18 12:46:00,88.9,60.2,30.10,WNW,300,6.8,10.5,38,0.00,,,0.00,654.27,VWS V14.01,2013-07-18 16:46:00,
2013-07-18 12:47:00,87.7,56.7,30.10,WNW,283,8.0,8.0,35,0.00,,,0.00,825.21,VWS V14.01,2013-07-18 16:47:00,
2013-07-18 12:48:00,88.0,56.5,30.10,NW,308,8.1,8.1,35,0.00,,,0.00,701.41,VWS V14.01,2013-07-18 16:48:00,
2013-07-18 12:49:00,87.6,55.9,30.10,NW,306,6.9,6.9,34,0.00,,,0.00,829.18,VWS V14.01,2013-07-18 16:49:00,
2013-07-18 12:50:00,86.6,55.0,30.09,WNW,296,8.0,9.0,34,0.00,,,0.00,165.87,VWS V14.01,2013-07-18 16:50:00,
2013-07-18 12:51:00,86.8,56.6,30.10,NW,307,9.5,9.5,36,0.00,,,0.00,153.42,VWS V14.01,2013-07-18 16:51:00,
2013-07-18 12:52:00,86.6,57.9,30.10,NW,305,6.4,10.4,38,0.00,,,0.00,144.20,VWS V14.01,2013-07-18 16:52:00,
2013-07-18 12:53:00,86.2,57.8,30.09,WNW,296,9.3,9.3,38,0.00,,,0.00,146.34,VWS V14.01,2013-07-18 16:53:00,
2013-07-18 12:54:00,86.3,59.2,30.10,WSW,255,8.0,9.3,40,0.00,,,0.00,154.15,VWS V14.01,2013-07-18 16:54:00,
2013-07-18 12:55:00,86.3,59.2,30.10,WSW,255,8.0,9.3,40,0.00,,,0.00,154.15,VWS V14.01,2013-07-18 16:55:00,
2013-07-18 12:56:00,86.1,57.8,30.10,WSW,253,9.5,9.5,38,0.00,,,0.00,160.26,VWS V14.01,2013-07-18 16:56:00,
2013-07-18 12:57:00,86.4,58.7,30.09,West,278,9.0,9.0,39,0.00,,,0.00,166.36,VWS V14.01,2013-07-18 16:57:00,
2013-07-18 12:58:00,86.6,58.5,30.10,West,260,9.5,9.5,39,0.00,,,0.00,214.41,VWS V14.01,2013-07-18 16:58:00,
2013-07-18 12:59:00,87.2,59.9,30.10,WSW,254,5.2,9.5,40,0.00,,,0.00,509.34,VWS V14.01,2013-07-18 16:59:00,
2013-07-18 13:00:00,87.2,59.9,30.10,WSW,254,5.2,9.5,40,0.00,,,0.00,509.34,VWS V14.01,2013-07-18 17:00:00,
2013-07-18 13:01:00,89.2,59.9,30.09,WNW,290,8.8,12.4,37,0.00,,,0.00,715.93,VWS V14.01,2013-07-18 17:01:00,
2013-07-18 13:03:00,88.9,60.8,30.10,West,272,9.2,12.4,39,0.00,,,0.00,718.68,VWS V14.01,2013-07-18 17:03:00,
2013-07-18 13:04:00,88.5,58.0,30.10,West,274,8.1,11.1,36,0.00,,,0.00,856.47,VWS V14.01,2013-07-18 17:04:00,
2013-07-18 13:05:00,87.7,57.1,30.10,West,267,10.0,10.7,36,0.00,,,0.00,847.74,VWS V14.01,2013-07-18 17:05:00,
2013-07-18 13:06:00,86.8,55.2,30.10,West,280,12.3,12.3,34,0.00,,,0.00,838.16,VWS V14.01,2013-07-18 17:06:00,
2013-07-18 13:07:00,87.4,56.5,30.09,West,274,9.3,15.0,35,0.00,,,0.00,672.22,VWS V14.01,2013-07-18 17:07:00,
2013-07-18 13:08:00,88.2,57.5,30.09,West,270,11.6,11.6,35,0.00,,,0.00,644.87,VWS V14.01,2013-07-18 17:08:00,
2013-07-18 13:09:00,87.3,55.7,30.09,West,281,10.0,11.7,34,0.00,,,0.00,737.30,VWS V14.01,2013-07-18 17:09:00,
2013-07-18 13:10:00,87.8,55.1,30.09,WNW,293,8.5,10.0,33,0.00,,,0.00,801.04,VWS V14.01,2013-07-18 17:10:00,
2013-07-18 13:11:00,88.1,56.4,30.09,West,262,11.2,11.2,34,0.00,,,0.00,784.43,VWS V14.01,2013-07-18 17:11:00,
2013-07-18 13:12:00,87.4,54.1,30.09,West,280,12.3,12.3,32,0.00,,,0.00,790.29,VWS V14.01,2013-07-18 17:12:00,
2013-07-18 13:13:00,88.4,56.7,30.09,West,272,11.6,11.9,34,0.00,,,0.00,789.07,VWS V14.01,2013-07-18 17:13:00,
2013-07-18 13:14:00,88.0,54.7,30.08,WSW,257,8.0,11.6,32,0.00,,,0.00,787.85,VWS V14.01,2013-07-18 17:14:00,
2013-07-18 13:15:00,89.0,56.5,30.08,West,259,9.0,9.0,33,0.00,,,0.00,798.35,VWS V14.01,2013-07-18 17:15:00,
2013-07-18 13:16:00,88.2,54.2,30.08,WSW,251,9.7,9.7,32,0.00,,,0.00,796.64,VWS V14.01,2013-07-18 17:16:00,
2013-07-18 13:17:00,88.1,54.5,30.08,WSW,257,11.2,11.2,32,0.00,,,0.00,798.35,VWS V14.01,2013-07-18 17:17:00,
2013-07-18 13:18:00,89.4,56.9,30.08,WSW,251,8.8,11.2,33,0.00,,,0.00,797.07,VWS V14.01,2013-07-18 17:18:00,
2013-07-18 13:19:00,87.9,54.1,30.09,West,274,9.2,12.6,32,0.00,,,0.00,801.41,VWS V14.01,2013-07-18 17:19:00,
2013-07-18 13:20:00,88.9,56.8,30.08,West,263,8.0,9.9,34,0.00,,,0.00,810.87,VWS V14.01,2013-07-18 17:20:00,
2013-07-18 13:21:00,88.0,53.1,30.08,West,259,8.8,11.9,30,0.00,,,0.00,834.74,VWS V14.01,2013-07-18 17:21:00,
2013-07-18 13:22:00,87.8,55.0,30.08,WSW,246,11.7,11.9,33,0.00,,,0.00,859.16,VWS V14.01,2013-07-18 17:22:00,
2013-07-18 13:23:00,87.4,54.6,30.08,WSW,255,10.5,11.7,33,0.00,,,0.00,862.76,VWS V14.01,2013-07-18 17:23:00,
2013-07-18 13:24:00,89.2,57.7,30.08,WSW,253,12.8,12.8,35,0.00,,,0.00,886.87,VWS V14.01,2013-07-18 17:24:00,
2013-07-18 13:25:00,88.4,55.3,30.08,West,269,11.7,12.6,33,0.00,,,0.00,896.03,VWS V14.01,2013-07-18 17:25:00,
2013-07-18 13:26:00,87.3,53.6,30.08,WSW,251,11.7,12.6,32,0.00,,,0.00,542.55,VWS V14.01,2013-07-18 17:26:00,
2013-07-18 13:27:00,89.2,57.8,30.08,SW,231,8.3,11.7,35,0.00,,,0.00,689.19,VWS V14.01,2013-07-18 17:27:00,
2013-07-18 13:28:00,89.7,57.2,30.08,WSW,239,10.4,10.4,33,0.00,,,0.00,839.32,VWS V14.01,2013-07-18 17:28:00,
2013-07-18 13:29:00,90.5,59.0,30.08,NW,314,11.4,11.4,35,0.00,,,0.00,830.10,VWS V14.01,2013-07-18 17:29:00,
2013-07-18 13:30:00,89.1,56.2,30.07,West,265,9.9,11.4,33,0.00,,,0.00,815.45,VWS V14.01,2013-07-18 17:30:00,
2013-07-18 13:31:00,87.8,54.2,30.07,West,270,9.0,9.9,32,0.00,,,0.00,808.12,VWS V14.01,2013-07-18 17:31:00,
2013-07-18 13:32:00,89.7,56.3,30.08,WSW,244,8.1,8.1,32,0.00,,,0.00,764.77,VWS V14.01,2013-07-18 17:32:00,
2013-07-18 13:33:00,90.0,58.0,30.08,NW,311,7.8,8.1,34,0.00,,,0.00,741.58,VWS V14.01,2013-07-18 17:33:00,
2013-07-18 13:34:00,88.5,55.6,30.08,WSW,258,11.1,11.1,33,0.00,,,0.00,744.63,VWS V14.01,2013-07-18 17:34:00,
2013-07-18 13:35:00,88.2,55.1,30.07,WNW,284,6.6,6.6,33,0.00,,,0.00,763.80,VWS V14.01,2013-07-18 17:35:00,
2013-07-18 13:36:00,88.1,54.8,30.07,WNW,289,5.9,5.9,32,0.00,,,0.00,560.13,VWS V14.01,2013-07-18 17:36:00,
2013-07-18 13:37:00,87.7,54.0,30.07,West,259,9.2,9.2,32,0.00,,,0.00,319.72,VWS V14.01,2013-07-18 17:37:00,
2013-07-18 13:38:00,89.6,58.1,30.08,WSW,255,11.2,11.2,35,0.00,,,0.00,686.39,VWS V14.01,2013-07-18 17:38:00,
2013-07-18 13:39:00,88.7,55.9,30.08,WSW,249,11.6,12.1,33,0.00,,,0.00,801.59,VWS V14.01,2013-07-18 17:39:00,
2013-07-18 13:40:00,88.7,55.9,30.08,WSW,249,11.6,12.1,33,0.00,,,0.00,801.59,VWS V14.01,2013-07-18 17:40:00,
2013-07-18 13:41:00,88.8,55.4,30.06,West,265,11.7,11.7,32,0.00,,,0.00,834.98,VWS V14.01,2013-07-18 17:41:00,
2013-07-18 13:42:00,89.5,57.0,30.07,WSW,243,10.4,11.7,33,0.00,,,0.00,735.47,VWS V14.01,2013-07-18 17:42:00,
2013-07-18 13:43:00,87.6,57.4,30.07,West,266,8.1,10.5,36,0.00,,,0.00,139.01,VWS V14.01,2013-07-18 17:43:00,
2013-07-18 13:44:00,87.6,57.4,30.07,West,266,8.1,10.5,36,0.00,,,0.00,139.01,VWS V14.01,2013-07-18 17:44:00,
2013-07-18 13:45:00,86.8,55.7,30.08,West,261,11.1,11.1,35,0.00,,,0.00,131.69,VWS V14.01,2013-07-18 17:45:00,
2013-07-18 13:46:00,86.7,55.7,30.07,WSW,251,8.8,11.1,35,0.00,,,0.00,129.24,VWS V14.01,2013-07-18 17:46:00,
2013-07-18 13:47:00,86.8,55.0,30.07,West,261,9.9,9.9,34,0.00,,,0.00,136.26,VWS V14.01,2013-07-18 17:47:00,
2013-07-18 13:48:00,87.5,56.1,30.07,West,260,11.2,11.2,34,0.00,,,0.00,810.32,VWS V14.01,2013-07-18 17:48:00,
2013-07-18 13:49:00,89.5,57.4,30.07,WSW,258,8.0,11.2,34,0.00,,,0.00,817.89,VWS V14.01,2013-07-18 17:49:00,
2013-07-18 13:50:00,90.8,61.1,30.07,West,267,9.0,9.0,37,0.00,,,0.00,815.45,VWS V14.01,2013-07-18 17:50:00,
2013-07-18 13:51:00,88.3,55.0,30.07,West,266,10.9,10.9,32,0.00,,,0.00,816.06,VWS V14.01,2013-07-18 17:51:00,
2013-07-18 13:52:00,89.6,57.2,30.07,WSW,257,9.7,10.9,34,0.00,,,0.00,815.45,VWS V14.01,2013-07-18 17:52:00,
2013-07-18 13:53:00,88.0,53.3,30.07,West,270,8.8,9.7,31,0.00,,,0.00,804.46,VWS V14.01,2013-07-18 17:53:00,
2013-07-18 13:54:00,89.2,56.2,30.07,West,264,7.5,8.8,33,0.00,,,0.00,808.12,VWS V14.01,2013-07-18 17:54:00,
2013-07-18 13:55:00,89.4,56.3,30.07,WNW,292,7.3,11.1,33,0.00,,,0.00,819.78,VWS V14.01,2013-07-18 17:55:00,
2013-07-18 13:56:00,91.1,59.5,30.07,West,279,7.5,7.5,35,0.00,,,0.00,813.74,VWS V14.01,2013-07-18 17:56:00,
2013-07-18 13:57:00,89.0,56.0,30.07,WSW,256,9.5,10.0,33,0.00,,,0.00,810.56,VWS V14.01,2013-07-18 17:57:00,
2013-07-18 13:58:00,88.1,53.9,30.07,West,263,9.5,10.0,31,0.00,,,0.00,810.81,VWS V14.01,2013-07-18 17:58:00,
2013-07-18 13:59:00,89.5,56.8,30.07,WSW,258,6.9,10.4,33,0.00,,,0.00,839.62,VWS V14.01,2013-07-18 17:59:00,
2013-07-18 14:00:00,89.0,55.5,30.07,West,266,9.5,9.5,32,0.00,,,0.00,544.14,VWS V14.01,2013-07-18 18:00:00,
2013-07-18 14:01:00,88.2,53.0,30.07,West,268,8.3,9.9,30,0.00,,,0.00,202.50,VWS V14.01,2013-07-18 18:01:00,
2013-07-18 14:02:00,88.1,54.5,30.07,West,271,8.5,9.9,32,0.00,,,0.00,866.67,VWS V14.01,2013-07-18 18:02:00,
2013-07-18 14:03:00,89.3,57.0,30.06,WNW,282,11.4,11.4,34,0.00,,,0.00,856.96,VWS V14.01,2013-07-18 18:03:00,
2013-07-18 14:06:00,90.3,58.9,30.07,WSW,257,8.5,13.5,35,0.00,,,0.00,825.21,VWS V14.01,2013-07-18 18:06:00,
2013-07-18 14:07:00,89.4,56.7,30.07,West,268,8.5,13.5,33,0.00,,,0.00,827.29,VWS V14.01,2013-07-18 18:07:00,
2013-07-18 14:08:00,88.1,54.6,30.07,West,264,10.2,13.5,32,0.00,,,0.00,819.23,VWS V14.01,2013-07-18 18:08:00,
2013-07-18 14:09:00,89.2,56.8,30.06,West,264,7.8,13.5,33,0.00,,,0.00,808.12,VWS V14.01,2013-07-18 18:09:00,
2013-07-18 14:11:00,88.8,56.3,30.07,West,267,8.3,13.5,33,0.00,,,0.00,816.61,VWS V14.01,2013-07-18 18:11:00,
2013-07-18 14:13:00,90.4,57.6,30.07,WNW,295,7.8,13.5,33,0.00,,,0.00,842.31,VWS V14.01,2013-07-18 18:13:00,
2013-07-18 14:14:00,89.4,55.2,30.08,WNW,294,10.5,13.5,31,0.00,,,0.00,842.00,VWS V14.01,2013-07-18 18:14:00,
2013-07-18 14:15:00,90.1,57.3,30.07,West,268,7.6,13.5,33,0.00,,,0.00,836.69,VWS V14.01,2013-07-18 18:15:00,
2013-07-18 14:16:00,90.1,57.3,30.07,West,268,7.6,13.5,33,0.00,,,0.00,836.69,VWS V14.01,2013-07-18 18:16:00,
2013-07-18 14:20:00,89.1,56.5,30.06,West,264,12.3,13.5,33,0.00,,,0.00,844.75,VWS V14.01,2013-07-18 18:20:00,
2013-07-18 14:21:00,90.1,57.1,30.07,WSW,243,12.3,13.5,33,0.00,,,0.00,842.31,VWS V14.01,2013-07-18 18:21:00,
2013-07-18 14:22:00,89.7,57.1,30.07,West,261,12.6,13.5,33,0.00,,,0.00,830.16,VWS V14.01,2013-07-18 18:22:00,
2013-07-18 14:26:00,89.1,55.1,30.07,NW,321,10.5,13.5,32,0.00,,,0.00,807.63,VWS V14.01,2013-07-18 18:26:00,
2013-07-18 14:27:00,89.8,56.2,30.06,West,274,10.9,13.5,32,0.00,,,0.00,810.56,VWS V14.01,2013-07-18 18:27:00,
2013-07-18 14:28:00,89.8,54.9,30.08,WNW,285,6.6,13.5,31,0.00,,,0.00,812.70,VWS V14.01,2013-07-18 18:28:00,
2013-07-18 14:29:00,91.1,57.9,30.07,West,262,5.9,13.5,33,0.00,,,0.00,805.68,VWS V14.01,2013-07-18 18:29:00,
2013-07-18 14:32:00,89.7,54.3,30.07,WSW,241,12.1,13.5,30,0.00,,,0.00,806.29,VWS V14.01,2013-07-18 18:32:00,
2013-07-18 14:34:00,90.4,57.9,30.06,West,272,11.4,13.5,34,0.00,,,0.00,802.99,VWS V14.01,2013-07-18 18:34:00,
2013-07-18 14:36:00,89.9,58.1,30.07,West,277,7.5,13.5,34,0.00,,,0.00,798.11,VWS V14.01,2013-07-18 18:36:00,
2013-07-18 14:37:00,89.0,49.6,30.07,West,269,9.2,13.5,26,0.00,,,0.00,798.11,VWS V14.01,2013-07-18 18:37:00,
2013-07-18 14:38:00,90.4,56.9,30.07,SW,223,7.8,13.5,32,0.00,,,0.00,794.08,VWS V14.01,2013-07-18 18:38:00,
2013-07-18 14:39:00,89.7,55.2,30.07,West,271,9.7,13.5,31,0.00,,,0.00,793.22,VWS V14.01,2013-07-18 18:39:00,
2013-07-18 14:41:00,89.5,56.3,30.07,WNW,291,10.7,13.5,33,0.00,,,0.00,784.68,VWS V14.01,2013-07-18 18:41:00,
2013-07-18 14:43:00,88.8,53.8,30.06,West,270,10.7,13.5,31,0.00,,,0.00,781.26,VWS V14.01,2013-07-18 18:43:00,
2013-07-18 14:45:00,90.0,54.8,30.07,West,266,9.2,13.5,30,0.00,,,0.00,795.91,VWS V14.01,2013-07-18 18:45:00,
2013-07-18 14:46:00,89.9,51.5,30.07,West,262,7.8,13.5,27,0.00,,,0.00,787.42,VWS V14.01,2013-07-18 18:46:00,
2013-07-18 14:48:00,89.1,53.7,30.07,WNW,299,9.7,13.5,30,0.00,,,0.00,810.56,VWS V14.01,2013-07-18 18:48:00,
2013-07-18 14:50:00,90.1,55.1,30.06,WSW,249,9.0,13.5,31,0.00,,,0.00,811.17,VWS V14.01,2013-07-18 18:50:00,
2013-07-18 14:51:00,90.1,55.1,30.06,WSW,249,9.0,13.5,31,0.00,,,0.00,811.17,VWS V14.01,2013-07-18 18:51:00,
2013-07-18 14:52:00,89.1,51.2,30.06,West,270,10.4,13.5,27,0.00,,,0.00,808.12,VWS V14.01,2013-07-18 18:52:00,
2013-07-18 14:55:00,90.0,54.3,30.06,West,278,9.0,13.5,30,0.00,,,0.00,793.47,VWS V14.01,2013-07-18 18:55:00,
2013-07-18 14:56:00,91.3,56.1,30.06,West,264,10.5,13.5,31,0.00,,,0.00,784.31,VWS V14.01,2013-07-18 18:56:00,
2013-07-18 14:58:00,88.9,50.8,30.06,WNW,296,10.5,13.5,27,0.00,,,0.00,688.22,VWS V14.01,2013-07-18 18:58:00,
2013-07-18 15:00:00,89.2,53.8,30.06,WNW,284,10.7,13.5,30,0.00,,,0.00,400.31,VWS V14.01,2013-07-18 19:00:00,
2013-07-18 15:01:00,89.2,52.8,30.06,WNW,287,6.4,13.5,29,0.00,,,0.00,800.79,VWS V14.01,2013-07-18 19:01:00,
2013-07-18 15:02:00,88.6,51.8,30.06,WSW,256,11.2,11.2,29,0.00,,,0.00,815.02,VWS V14.01,2013-07-18 19:02:00,
2013-07-18 15:03:00,90.9,54.4,30.06,West,278,6.8,11.2,29,0.00,,,0.00,815.14,VWS V14.01,2013-07-18 19:03:00,
2013-07-18 15:04:00,89.3,53.3,30.07,WSW,247,11.6,11.6,29,0.00,,,0.00,810.81,VWS V14.01,2013-07-18 19:04:00,
2013-07-18 15:05:00,90.0,55.0,30.06,WSW,253,10.4,14.3,31,0.00,,,0.00,808.79,VWS V14.01,2013-07-18 19:05:00,
2013-07-18 15:06:00,89.4,54.2,30.06,WSW,243,10.4,10.4,30,0.00,,,0.00,805.68,VWS V14.01,2013-07-18 19:06:00,
2013-07-18 15:07:00,89.9,54.7,30.06,West,262,8.1,10.4,30,0.00,,,0.00,813.74,VWS V14.01,2013-07-18 19:07:00,
2013-07-18 15:08:00,88.6,53.0,30.06,West,275,9.3,11.2,30,0.00,,,0.00,822.77,VWS V14.01,2013-07-18 19:08:00,
2013-07-18 15:09:00,89.0,52.3,30.06,West,269,7.8,9.3,29,0.00,,,0.00,823.08,VWS V14.01,2013-07-18 19:09:00,
2013-07-18 15:10:00,89.4,53.0,30.06,West,279,8.5,8.7,29,0.00,,,0.00,817.89,VWS V14.01,2013-07-18 19:10:00,
2013-07-18 15:11:00,89.3,51.5,30.05,WNW,283,7.5,11.1,27,0.00,,,0.00,833.52,VWS V14.01,2013-07-18 19:11:00,
2013-07-18 15:12:00,89.4,52.5,30.05,West,274,7.8,8.7,28,0.00,,,0.00,830.04,VWS V14.01,2013-07-18 19:12:00,
2013-07-18 15:13:00,90.0,53.5,30.05,West,275,6.6,6.6,29,0.00,,,0.00,833.58,VWS V14.01,2013-07-18 19:13:00,
2013-07-18 15:14:00,90.2,54.1,30.05,West,268,8.5,8.5,30,0.00,,,0.00,823.08,VWS V14.01,2013-07-18 19:14:00,
2013-07-18 15:15:00,89.1,52.9,30.06,West,269,9.7,11.1,29,0.00,,,0.00,825.21,VWS V14.01,2013-07-18 19:15:00,
2013-07-18 15:16:00,89.6,53.5,30.05,West,263,8.1,9.7,29,0.00,,,0.00,819.11,VWS V14.01,2013-07-18 19:16:00,
2013-07-18 15:17:00,91.0,55.3,30.05,WSW,258,6.1,6.1,30,0.00,,,0.00,814.10,VWS V14.01,2013-07-18 19:17:00,
2013-07-18 15:18:00,90.5,54.1,30.06,SW,228,9.2,11.7,29,0.00,,,0.00,801.10,VWS V14.01,2013-07-18 19:18:00,
2013-07-18 15:19:00,90.7,57.2,30.05,SW,231,9.0,9.0,32,0.00,,,0.00,796.28,VWS V14.01,2013-07-18 19:19:00,
2013-07-18 15:20:00,88.5,52.1,30.05,WSW,252,10.4,11.2,29,0.00,,,0.00,793.47,VWS V14.01,2013-07-18 19:20:00,
2013-07-18 15:21:00,89.9,55.1,30.05,West,260,6.9,10.4,31,0.00,,,0.00,794.20,VWS V14.01,2013-07-18 19:21:00,
2013-07-18 15:22:00,91.2,56.6,30.05,WSW,238,6.1,8.7,31,0.00,,,0.00,787.61,VWS V14.01,2013-07-18 19:22:00,
2013-07-18 15:23:00,89.3,53.6,30.06,WSW,256,9.2,9.2,30,0.00,,,0.00,776.86,VWS V14.01,2013-07-18 19:23:00,
2013-07-18 15:24:00,90.3,55.3,30.06,West,264,10.0,12.4,31,0.00,,,0.00,783.70,VWS V14.01,2013-07-18 19:24:00,
2013-07-18 15:25:00,91.0,56.1,30.06,SW,222,11.4,11.4,31,0.00,,,0.00,788.34,VWS V14.01,2013-07-18 19:25:00,
2013-07-18 15:26:00,91.5,57.2,30.05,WSW,237,8.3,11.4,32,0.00,,,0.00,775.09,VWS V14.01,2013-07-18 19:26:00,
2013-07-18 15:27:00,89.5,53.0,30.05,West,259,11.1,11.1,29,0.00,,,0.00,784.74,VWS V14.01,2013-07-18 19:27:00,
2013-07-18 15:28:00,89.5,53.4,30.05,West,266,5.9,11.1,29,0.00,,,0.00,759.52,VWS V14.01,2013-07-18 19:28:00,
2013-07-18 15:29:00,90.0,53.7,30.05,West,260,10.4,10.4,29,0.00,,,0.00,796.64,VWS V14.01,2013-07-18 19:29:00,
2013-07-18 15:30:00,89.6,52.2,30.05,WNW,289,11.9,11.9,28,0.00,,,0.00,795.67,VWS V14.01,2013-07-18 19:30:00,
2013-07-18 15:31:00,90.2,53.3,30.04,West,279,11.6,11.9,29,0.00,,,0.00,795.91,VWS V14.01,2013-07-18 19:31:00,
2013-07-18 15:32:00,89.0,50.4,30.04,West,270,12.9,12.9,27,0.00,,,0.00,795.91,VWS V14.01,2013-07-18 19:32:00,
2013-07-18 15:33:00,91.0,54.0,30.04,West,269,10.7,12.9,29,0.00,,,0.00,795.91,VWS V14.01,2013-07-18 19:33:00,
2013-07-18 15:34:00,89.8,53.1,30.04,West,278,11.9,11.9,29,0.00,,,0.00,778.82,VWS V14.01,2013-07-18 19:34:00,
2013-07-18 15:35:00,90.2,53.5,30.05,West,271,9.3,11.9,29,0.00,,,0.00,793.71,VWS V14.01,2013-07-18 19:35:00,
2013-07-18 15:36:00,90.1,53.2,30.04,WSW,254,11.1,11.1,29,0.00,,,0.00,794.93,VWS V14.01,2013-07-18 19:36:00,
2013-07-18 15:37:00,89.1,51.3,30.04,West,260,13.1,13.1,28,0.00,,,0.00,795.60,VWS V14.01,2013-07-18 19:37:00,
2013-07-18 15:38:00,89.1,51.3,30.04,West,260,13.1,13.1,28,0.00,,,0.00,795.60,VWS V14.01,2013-07-18 19:38:00,
2013-07-18 15:39:00,91.0,55.3,30.04,WSW,257,7.8,10.9,30,0.00,,,0.00,822.04,VWS V14.01,2013-07-18 19:39:00,
2013-07-18 15:40:00,91.2,55.6,30.05,West,268,10.4,10.4,30,0.00,,,0.00,812.52,VWS V14.01,2013-07-18 19:40:00,
2013-07-18 15:41:00,91.7,56.6,30.04,West,268,9.0,10.4,31,0.00,,,0.00,817.89,VWS V14.01,2013-07-18 19:41:00,
2013-07-18 15:42:00,89.8,53.9,30.04,West,260,10.0,10.0,30,0.00,,,0.00,811.17,VWS V14.01,2013-07-18 19:42:00,
2013-07-18 15:43:00,90.5,53.7,30.05,WSW,246,8.1,10.0,29,0.00,,,0.00,807.08,VWS V14.01,2013-07-18 19:43:00,
2013-07-18 15:44:00,90.9,55.1,30.04,West,281,8.3,8.3,30,0.00,,,0.00,802.93,VWS V14.01,2013-07-18 19:44:00,
2013-07-18 15:45:00,89.7,50.9,30.04,WNW,300,13.3,13.3,27,0.00,,,0.00,779.06,VWS V14.01,2013-07-18 19:45:00,
2013-07-18 15:46:00,89.9,52.1,30.04,West,268,9.3,13.3,28,0.00,,,0.00,766.30,VWS V14.01,2013-07-18 19:46:00,
2013-07-18 15:47:00,90.3,53.0,30.04,West,279,9.0,13.3,28,0.00,,,0.00,764.47,VWS V14.01,2013-07-18 19:47:00,
2013-07-18 15:48:00,90.5,52.9,30.04,West,270,9.2,11.9,28,0.00,,,0.00,679.91,VWS V14.01,2013-07-18 19:48:00,
2013-07-18 15:49:00,90.1,52.1,30.04,WSW,246,9.5,9.5,27,0.00,,,0.00,688.46,VWS V14.01,2013-07-18 19:49:00,
2013-07-18 15:50:00,89.8,51.4,30.03,West,266,9.3,12.1,27,0.00,,,0.00,668.68,VWS V14.01,2013-07-18 19:50:00,
2013-07-18 15:51:00,89.4,51.0,30.04,WSW,258,9.5,9.5,27,0.00,,,0.00,622.04,VWS V14.01,2013-07-18 19:51:00,
2013-07-18 15:52:00,90.2,53.8,30.04,West,269,7.6,10.0,29,0.00,,,0.00,544.38,VWS V14.01,2013-07-18 19:52:00,
2013-07-18 15:53:00,90.3,53.1,30.04,WSW,242,9.7,9.7,28,0.00,,,0.00,525.15,VWS V14.01,2013-07-18 19:53:00,
2013-07-18 15:54:00,89.6,53.4,30.03,West,262,6.8,12.1,29,0.00,,,0.00,436.94,VWS V14.01,2013-07-18 19:54:00,
2013-07-18 15:55:00,90.8,56.5,30.03,WSW,243,5.6,6.9,32,0.00,,,0.00,502.87,VWS V14.01,2013-07-18 19:55:00,
2013-07-18 15:56:00,89.2,56.5,30.03,WSW,255,5.7,8.0,33,0.00,,,0.00,529.73,VWS V14.01,2013-07-18 19:56:00,
2013-07-18 15:57:00,89.1,52.3,30.03,NW,308,10.2,10.2,29,0.00,,,0.00,524.54,VWS V14.01,2013-07-18 19:57:00,
2013-07-18 15:58:00,90.2,56.3,30.04,WNW,285,8.1,8.1,32,0.00,,,0.00,522.65,VWS V14.01,2013-07-18 19:58:00,
2013-07-18 15:59:00,88.8,51.8,30.03,WNW,293,9.2,9.2,28,0.00,,,0.00,184.68,VWS V14.01,2013-07-18 19:59:00,
2013-07-18 16:00:00,88.5,52.9,30.03,WNW,298,12.6,12.6,30,0.00,,,0.00,169.23,VWS V14.01,2013-07-18 20:00:00,
2013-07-18 16:01:00,88.3,52.7,30.03,NW,315,10.9,12.6,30,0.00,,,0.00,285.90,VWS V14.01,2013-07-18 20:01:00,
2013-07-18 16:02:00,88.9,54.4,30.03,WNW,296,11.4,11.4,31,0.00,,,0.00,532.17,VWS V14.01,2013-07-18 20:02:00,
2013-07-18 16:03:00,88.8,54.3,30.03,WNW,291,10.4,11.4,31,0.00,,,0.00,544.81,VWS V14.01,2013-07-18 20:03:00,
2013-07-18 16:04:00,89.9,55.2,30.03,West,276,8.8,10.2,31,0.00,,,0.00,512.64,VWS V14.01,2013-07-18 20:04:00,
2013-07-18 16:05:00,89.3,52.5,30.03,WNW,285,9.0,9.0,29,0.00,,,0.00,504.33,VWS V14.01,2013-07-18 20:05:00,
2013-07-18 16:06:00,89.0,55.0,30.02,West,262,9.0,9.0,32,0.00,,,0.00,519.48,VWS V14.01,2013-07-18 20:06:00,
2013-07-18 16:07:00,88.7,52.0,30.02,West,263,11.7,11.7,29,0.00,,,0.00,520.21,VWS V14.01,2013-07-18 20:07:00,
2013-07-18 16:08:00,89.0,52.7,30.02,West,269,8.0,9.3,29,0.00,,,0.00,525.09,VWS V14.01,2013-07-18 20:08:00,
2013-07-18 16:09:00,89.3,52.5,30.02,West,276,8.3,9.3,28,0.00,,,0.00,520.51,VWS V14.01,2013-07-18 20:09:00,
2013-07-18 16:11:00,90.3,56.6,30.02,West,280,5.6,7.5,32,0.00,,,0.00,554.46,VWS V14.01,2013-07-18 20:11:00,
2013-07-18 16:12:00,89.3,53.0,30.02,SW,230,6.9,7.3,29,0.00,,,0.00,195.18,VWS V14.01,2013-07-18 20:12:00,
2013-07-18 16:13:00,89.3,53.0,30.02,SW,230,6.9,7.3,29,0.00,,,0.00,195.18,VWS V14.01,2013-07-18 20:13:00,
2013-07-18 16:14:00,90.2,56.3,30.02,SW,219,8.5,8.5,32,0.00,,,0.00,581.01,VWS V14.01,2013-07-18 20:14:00,
2013-07-18 16:15:00,90.0,56.0,30.02,WSW,237,9.3,9.3,32,0.00,,,0.00,581.93,VWS V14.01,2013-07-18 20:15:00,
2013-07-18 16:16:00,89.9,54.5,30.02,SW,226,13.6,13.6,30,0.00,,,0.00,588.34,VWS V14.01,2013-07-18 20:16:00,
2013-07-18 16:17:00,89.5,54.4,30.02,WSW,254,11.4,13.6,30,0.00,,,0.00,588.34,VWS V14.01,2013-07-18 20:17:00,
2013-07-18 16:18:00,90.5,55.9,30.03,WSW,257,9.9,11.4,31,0.00,,,0.00,610.93,VWS V14.01,2013-07-18 20:18:00,
2013-07-18 16:19:00,89.0,51.5,30.02,WSW,255,9.0,9.9,28,0.00,,,0.00,616.48,VWS V14.01,2013-07-18 20:19:00,
2013-07-18 16:20:00,89.6,53.7,30.01,WSW,258,7.6,9.0,30,0.00,,,0.00,629.85,VWS V14.01,2013-07-18 20:20:00,
2013-07-18 16:21:00,89.8,54.2,30.01,West,260,7.5,7.6,30,0.00,,,0.00,596.28,VWS V14.01,2013-07-18 20:21:00,
2013-07-18 16:22:00,90.8,56.2,30.01,WSW,247,5.9,7.5,31,0.00,,,0.00,590.78,VWS V14.01,2013-07-18 20:22:00,
2013-07-18 16:23:00,90.4,54.6,30.01,West,270,7.1,7.1,30,0.00,,,0.00,579.43,VWS V14.01,2013-07-18 20:23:00,
2013-07-18 16:24:00,90.1,54.2,30.02,West,269,9.9,9.9,30,0.00,,,0.00,581.75,VWS V14.01,2013-07-18 20:24:00,
2013-07-18 16:25:00,90.4,54.6,30.02,WSW,252,8.8,10.7,30,0.00,,,0.00,560.50,VWS V14.01,2013-07-18 20:25:00,
2013-07-18 16:26:00,89.7,52.2,30.02,West,270,8.0,8.1,28,0.00,,,0.00,486.14,VWS V14.01,2013-07-18 20:26:00,
2013-07-18 16:27:00,88.8,51.9,30.01,WSW,248,10.2,10.2,28,0.00,,,0.00,478.82,VWS V14.01,2013-07-18 20:27:00,
2013-07-18 16:28:00,88.9,52.3,30.01,WSW,256,10.2,10.2,29,0.00,,,0.00,507.75,VWS V14.01,2013-07-18 20:28:00,
2013-07-18 16:29:00,89.4,52.7,30.02,WSW,255,10.5,10.5,29,0.00,,,0.00,510.20,VWS V14.01,2013-07-18 20:29:00,
2013-07-18 16:30:00,89.4,53.0,30.02,WSW,256,11.6,11.6,29,0.00,,,0.00,539.99,VWS V14.01,2013-07-18 20:30:00,
2013-07-18 16:31:00,89.5,54.1,30.01,WNW,297,11.2,11.6,30,0.00,,,0.00,535.10,VWS V14.01,2013-07-18 20:31:00,
2013-07-18 16:32:00,89.7,53.9,30.01,West,267,8.7,12.6,30,0.00,,,0.00,524.60,VWS V14.01,2013-07-18 20:32:00,
2013-07-18 16:33:00,89.7,55.1,30.01,NW,304,9.2,9.2,31,0.00,,,0.00,529.43,VWS V14.01,2013-07-18 20:33:00,
2013-07-18 16:34:00,88.9,52.1,30.01,West,261,9.7,9.7,29,0.00,,,0.00,530.04,VWS V14.01,2013-07-18 20:34:00,
2013-07-18 16:35:00,90.8,55.5,30.02,WSW,257,6.8,9.7,30,0.00,,,0.00,558.79,VWS V14.01,2013-07-18 20:35:00,
2013-07-18 16:36:00,91.0,55.6,30.01,SW,233,6.4,6.4,30,0.00,,,0.00,552.02,VWS V14.01,2013-07-18 20:36:00,
2013-07-18 16:37:00,91.1,54.9,30.01,WSW,240,4.7,8.3,29,0.00,,,0.00,588.34,VWS V14.01,2013-07-18 20:37:00,
2013-07-18 16:38:00,90.3,53.3,30.01,WSW,245,8.0,8.0,29,0.00,,,0.00,600.31,VWS V14.01,2013-07-18 20:38:00,
2013-07-18 16:39:00,90.8,54.2,30.01,WSW,247,10.4,10.4,29,0.00,,,0.00,610.62,VWS V14.01,2013-07-18 20:39:00,
2013-07-18 16:40:00,90.6,53.6,30.01,SW,234,10.9,11.6,29,0.00,,,0.00,595.67,VWS V14.01,2013-07-18 20:40:00,
2013-07-18 16:41:00,90.8,54.3,30.02,SW,230,9.9,9.9,29,0.00,,,0.00,585.65,VWS V14.01,2013-07-18 20:41:00,
2013-07-18 16:42:00,90.4,52.9,30.01,SW,233,11.7,11.7,28,0.00,,,0.00,580.95,VWS V14.01,2013-07-18 20:42:00,
2013-07-18 16:43:00,90.6,52.8,30.01,SW,234,11.2,13.3,28,0.00,,,0.00,585.59,VWS V14.01,2013-07-18 20:43:00,
2013-07-18 16:44:00,89.9,52.1,30.03,WSW,253,9.2,11.2,28,0.00,,,0.00,583.46,VWS V14.01,2013-07-18 20:44:00,
2013-07-18 16:45:00,90.1,52.9,30.01,SW,229,9.9,9.9,28,0.00,,,0.00,417.09,VWS V14.01,2013-07-18 20:45:00,
2013-07-18 16:46:00,90.3,52.9,30.01,SW,228,9.0,9.9,28,0.00,,,0.00,351.77,VWS V14.01,2013-07-18 20:46:00,
2013-07-18 16:47:00,90.2,55.2,30.01,WSW,238,7.1,9.3,31,0.00,,,0.00,346.28,VWS V14.01,2013-07-18 20:47:00,
2013-07-18 16:48:00,89.7,55.4,30.00,West,259,6.1,8.5,31,0.00,,,0.00,317.89,VWS V14.01,2013-07-18 20:48:00,
2013-07-18 16:49:00,88.9,52.0,30.01,West,268,10.4,10.4,28,0.00,,,0.00,329.49,VWS V14.01,2013-07-18 20:49:00,
2013-07-18 16:50:00,89.0,52.5,30.01,West,272,6.9,7.6,29,0.00,,,0.00,344.14,VWS V14.01,2013-07-18 20:50:00,
2013-07-18 16:51:00,89.1,54.7,30.01,West,273,7.6,7.6,31,0.00,,,0.00,358.30,VWS V14.01,2013-07-18 20:51:00,
2013-07-18 16:52:00,89.0,54.9,30.01,West,268,6.1,12.1,32,0.00,,,0.00,392.43,VWS V14.01,2013-07-18 20:52:00,
2013-07-18 16:53:00,89.2,54.4,30.00,WSW,246,7.3,7.3,31,0.00,,,0.00,171.37,VWS V14.01,2013-07-18 20:53:00,
2013-07-18 16:54:00,89.1,55.5,30.00,WSW,246,8.1,8.1,32,0.00,,,0.00,197.31,VWS V14.01,2013-07-18 20:54:00,
2013-07-18 16:55:00,89.0,55.1,30.01,West,277,6.1,9.2,32,0.00,,,0.00,172.89,VWS V14.01,2013-07-18 20:55:00,
2013-07-18 16:56:00,88.6,56.3,30.00,West,260,6.8,6.8,34,0.00,,,0.00,178.57,VWS V14.01,2013-07-18 20:56:00,
2013-07-18 16:57:00,88.6,55.6,30.00,West,266,8.1,8.1,33,0.00,,,0.00,174.42,VWS V14.01,2013-07-18 20:57:00,
2013-07-18 16:58:00,88.1,54.6,30.01,West,268,9.5,9.5,32,0.00,,,0.00,176.62,VWS V14.01,2013-07-18 20:58:00,
2013-07-18 16:59:00,88.2,54.5,30.00,WSW,248,10.0,10.0,32,0.00,,,0.00,182.97,VWS V14.01,2013-07-18 20:59:00,
2013-07-18 17:00:00,88.6,54.8,30.01,WSW,241,9.2,11.2,32,0.00,,,0.00,434.49,VWS V14.01,2013-07-18 21:00:00,
2013-07-18 17:01:00,88.9,53.7,30.00,WSW,248,10.7,10.7,30,0.00,,,0.00,486.08,VWS V14.01,2013-07-18 21:01:00,
2013-07-18 17:02:00,89.3,55.2,30.00,West,262,6.4,10.7,32,0.00,,,0.00,495.79,VWS V14.01,2013-07-18 21:02:00,
2013-07-18 17:03:00,89.8,56.5,30.00,WSW,252,9.9,9.9,33,0.00,,,0.00,500.49,VWS V14.01,2013-07-18 21:03:00,
2013-07-18 17:04:00,90.1,57.2,30.00,WSW,247,6.4,9.3,33,0.00,,,0.00,501.04,VWS V14.01,2013-07-18 21:04:00,
2013-07-18 17:05:00,90.1,57.2,30.00,WSW,247,6.4,9.3,33,0.00,,,0.00,501.04,VWS V14.01,2013-07-18 21:05:00,
2013-07-18 17:06:00,90.5,58.9,30.00,WSW,249,5.2,9.7,35,0.00,,,0.00,501.95,VWS V14.01,2013-07-18 21:06:00,
2013-07-18 17:07:00,89.8,55.0,30.00,WSW,253,9.7,9.7,31,0.00,,,0.00,376.62,VWS V14.01,2013-07-18 21:07:00,
2013-07-18 17:08:00,88.9,54.8,30.01,West,271,8.8,10.5,31,0.00,,,0.00,179.00,VWS V14.01,2013-07-18 21:08:00,
2013-07-18 17:09:00,88.6,53.8,30.01,WSW,256,10.9,10.9,31,0.00,,,0.00,237.91,VWS V14.01,2013-07-18 21:09:00,
2013-07-18 17:10:00,89.0,54.2,30.00,West,267,9.9,10.9,31,0.00,,,0.00,372.71,VWS V14.01,2013-07-18 21:10:00,
2013-07-18 17:11:00,89.5,54.4,30.00,West,273,10.2,10.2,30,0.00,,,0.00,469.90,VWS V14.01,2013-07-18 21:11:00,
2013-07-18 17:12:00,89.9,49.4,30.00,WSW,249,8.7,10.2,25,0.00,,,0.00,476.25,VWS V14.01,2013-07-18 21:12:00,
2013-07-18 17:13:00,89.2,53.9,30.00,West,260,8.3,8.7,30,0.00,,,0.00,176.13,VWS V14.01,2013-07-18 21:13:00,
2013-07-18 17:14:00,88.9,54.7,30.00,West,266,9.7,9.7,31,0.00,,,0.00,341.45,VWS V14.01,2013-07-18 21:14:00,
2013-07-18 17:15:00,89.2,50.8,30.00,WSW,255,9.0,9.0,27,0.00,,,0.00,461.36,VWS V14.01,2013-07-18 21:15:00,
2013-07-18 17:16:00,89.9,55.5,30.00,WSW,250,9.0,9.0,31,0.00,,,0.00,459.52,VWS V14.01,2013-07-18 21:16:00,
2013-07-18 17:17:00,89.8,56.2,30.00,WSW,257,6.9,9.0,32,0.00,,,0.00,455.98,VWS V14.01,2013-07-18 21:17:00,
2013-07-18 17:18:00,89.8,55.2,29.99,West,268,9.2,10.4,31,0.00,,,0.00,476.31,VWS V14.01,2013-07-18 21:18:00,
2013-07-18 17:19:00,89.4,53.6,30.00,WNW,300,12.6,12.6,30,0.00,,,0.00,479.61,VWS V14.01,2013-07-18 21:19:00,
2013-07-18 17:20:00,89.7,53.0,29.99,West,266,10.5,12.6,29,0.00,,,0.00,480.65,VWS V14.01,2013-07-18 21:20:00,
2013-07-18 17:21:00,89.3,53.8,30.00,West,259,10.5,10.5,30,0.00,,,0.00,483.64,VWS V14.01,2013-07-18 21:21:00,
2013-07-18 17:22:00,90.4,57.9,30.00,West,262,7.6,10.5,34,0.00,,,0.00,489.07,VWS V14.01,2013-07-18 21:22:00,
2013-07-18 17:23:00,90.4,57.9,30.00,West,262,7.6,10.5,34,0.00,,,0.00,489.07,VWS V14.01,2013-07-18 21:23:00,
2013-07-18 17:24:00,89.0,55.5,30.00,West,269,8.5,9.0,32,0.00,,,0.00,146.28,VWS V14.01,2013-07-18 21:24:00,
2013-07-18 17:25:00,89.0,55.4,30.00,West,266,7.1,8.5,32,0.00,,,0.00,141.45,VWS V14.01,2013-07-18 21:25:00,
2013-07-18 17:26:00,88.2,55.9,30.00,West,259,7.8,7.8,34,0.00,,,0.00,156.04,VWS V14.01,2013-07-18 21:26:00,
2013-07-18 17:27:00,88.0,56.0,30.00,WSW,255,9.9,9.9,34,0.00,,,0.00,180.53,VWS V14.01,2013-07-18 21:27:00,
2013-07-18 17:28:00,90.1,58.1,29.99,West,263,6.6,9.2,34,0.00,,,0.00,510.20,VWS V14.01,2013-07-18 21:28:00,
2013-07-18 17:29:00,89.9,58.0,29.99,WSW,245,6.1,8.0,34,0.00,,,0.00,521.55,VWS V14.01,2013-07-18 21:29:00,
2013-07-18 17:30:00,90.1,57.0,30.00,WSW,241,7.1,7.1,33,0.00,,,0.00,523.63,VWS V14.01,2013-07-18 21:30:00,
2013-07-18 17:31:00,89.9,57.2,29.99,SW,235,8.5,8.5,33,0.00,,,0.00,483.33,VWS V14.01,2013-07-18 21:31:00,
2013-07-18 17:32:00,89.0,55.0,29.99,SW,233,8.5,9.9,32,0.00,,,0.00,221.79,VWS V14.01,2013-07-18 21:32:00,
2013-07-18 17:34:00,89.6,55.6,29.99,WNW,286,9.7,9.7,32,0.00,,,0.00,493.10,VWS V14.01,2013-07-18 21:34:00,
2013-07-18 17:35:00,90.0,58.0,29.99,SW,229,8.7,9.7,34,0.00,,,0.00,177.59,VWS V14.01,2013-07-18 21:35:00,
2013-07-18 17:36:00,89.0,54.3,30.00,WSW,255,12.1,12.1,31,0.00,,,0.00,466.48,VWS V14.01,2013-07-18 21:36:00,
2013-07-18 17:37:00,89.3,55.0,29.99,West,270,10.2,12.1,31,0.00,,,0.00,480.89,VWS V14.01,2013-07-18 21:37:00,
2013-07-18 17:38:00,89.5,54.9,30.00,WNW,282,10.9,10.9,31,0.00,,,0.00,483.58,VWS V14.01,2013-07-18 21:38:00,
2013-07-18 17:39:00,89.4,53.0,29.99,WNW,286,9.3,10.4,29,0.00,,,0.00,486.39,VWS V14.01,2013-07-18 21:39:00,
2013-07-18 17:40:00,89.4,53.0,29.99,WNW,286,9.3,10.4,29,0.00,,,0.00,486.39,VWS V14.01,2013-07-18 21:40:00,
2013-07-18 17:41:00,89.6,55.4,29.99,WNW,295,11.9,11.9,32,0.00,,,0.00,489.99,VWS V14.01,2013-07-18 21:41:00,
2013-07-18 17:42:00,89.4,53.8,29.99,West,271,14.5,14.5,30,0.00,,,0.00,481.56,VWS V14.01,2013-07-18 21:42:00,
2013-07-18 17:43:00,89.1,53.3,29.99,WSW,258,14.1,14.5,30,0.00,,,0.00,472.10,VWS V14.01,2013-07-18 21:43:00,
2013-07-18 17:44:00,89.4,54.0,29.98,West,268,11.6,14.1,30,0.00,,,0.00,473.57,VWS V14.01,2013-07-18 21:44:00,
2013-07-18 17:45:00,89.2,52.8,29.99,West,270,11.7,11.7,29,0.00,,,0.00,465.75,VWS V14.01,2013-07-18 21:45:00,
2013-07-18 17:46:00,89.6,53.4,29.98,West,276,12.3,12.3,29,0.00,,,0.00,441.09,VWS V14.01,2013-07-18 21:46:00,
2013-07-18 17:47:00,89.5,54.2,29.99,WSW,250,11.4,12.3,30,0.00,,,0.00,435.96,VWS V14.01,2013-07-18 21:47:00,
2013-07-18 17:48:00,89.2,53.9,29.99,West,275,12.3,12.3,30,0.00,,,0.00,287.97,VWS V14.01,2013-07-18 21:48:00,
2013-07-18 17:49:00,88.7,53.6,29.99,West,265,8.8,12.3,30,0.00,,,0.00,129.24,VWS V14.01,2013-07-18 21:49:00,
2013-07-18 17:50:00,88.2,53.8,29.99,West,259,9.5,9.5,31,0.00,,,0.00,278.21,VWS V14.01,2013-07-18 21:50:00,
2013-07-18 17:51:00,88.8,54.0,29.99,WSW,253,8.7,9.5,31,0.00,,,0.00,124.60,VWS V14.01,2013-07-18 21:51:00,
2013-07-18 17:52:00,88.4,54.5,29.99,West,261,10.0,10.0,32,0.00,,,0.00,131.99,VWS V14.01,2013-07-18 21:52:00,
2013-07-18 17:53:00,88.3,55.9,29.99,West,268,7.8,10.0,33,0.00,,,0.00,445.12,VWS V14.01,2013-07-18 21:53:00,
2013-07-18 17:54:00,89.0,57.5,29.99,WNW,285,7.3,7.8,35,0.00,,,0.00,438.64,VWS V14.01,2013-07-18 21:54:00,
2013-07-18 17:55:00,89.1,53.6,29.98,West,272,12.9,12.9,30,0.00,,,0.00,209.71,VWS V14.01,2013-07-18 21:55:00,
2013-07-18 17:56:00,88.8,54.7,30.00,WNW,288,12.4,12.9,31,0.00,,,0.00,360.87,VWS V14.01,2013-07-18 21:56:00,
2013-07-18 17:57:00,88.4,55.0,29.99,WNW,285,11.1,11.1,32,0.00,,,0.00,146.34,VWS V14.01,2013-07-18 21:57:00,
2013-07-18 17:58:00,88.4,54.4,29.99,West,279,11.2,11.2,31,0.00,,,0.00,327.78,VWS V14.01,2013-07-18 21:58:00,
2013-07-18 17:59:00,88.9,55.4,29.99,West,271,9.9,9.9,32,0.00,,,0.00,243.71,VWS V14.01,2013-07-18 21:59:00,
2013-07-18 18:00:00,88.2,55.1,29.99,WNW,282,10.4,11.7,32,0.00,,,0.00,157.81,VWS V14.01,2013-07-18 22:00:00,
2013-07-18 18:01:00,89.1,54.7,29.99,West,266,10.7,11.2,31,0.00,,,0.00,405.19,VWS V14.01,2013-07-18 22:01:00,
2013-07-18 18:02:00,89.2,55.0,29.99,WNW,293,12.4,12.4,32,0.00,,,0.00,407.63,VWS V14.01,2013-07-18 22:02:00,
2013-07-18 18:03:00,89.1,54.8,30.00,WNW,292,10.4,12.4,31,0.00,,,0.00,402.26,VWS V14.01,2013-07-18 22:03:00,
2013-07-18 18:04:00,89.5,57.4,29.99,West,271,8.3,10.4,34,0.00,,,0.00,392.00,VWS V14.01,2013-07-18 22:04:00,
2013-07-18 18:05:00,88.9,54.0,29.99,West,275,12.3,12.3,31,0.00,,,0.00,392.67,VWS V14.01,2013-07-18 22:05:00,
2013-07-18 18:06:00,88.9,53.6,29.99,West,264,12.6,12.6,30,0.00,,,0.00,344.14,VWS V14.01,2013-07-18 22:06:00,
2013-07-18 18:07:00,88.9,54.3,29.98,West,266,12.6,12.6,31,0.00,,,0.00,173.20,VWS V14.01,2013-07-18 22:07:00,
2013-07-18 18:08:00,88.9,54.6,29.98,West,268,11.1,12.6,31,0.00,,,0.00,138.52,VWS V14.01,2013-07-18 22:08:00,
2013-07-18 18:09:00,88.7,54.9,29.99,WSW,258,10.0,10.0,32,0.00,,,0.00,363.67,VWS V14.01,2013-07-18 22:09:00,
2013-07-18 18:10:00,88.8,55.1,29.99,West,269,8.7,10.0,32,0.00,,,0.00,352.93,VWS V14.01,2013-07-18 22:10:00,
2013-07-18 18:11:00,89.2,56.3,29.99,West,263,8.5,8.5,33,0.00,,,0.00,366.42,VWS V14.01,2013-07-18 22:11:00,
2013-07-18 18:12:00,89.2,55.2,29.98,West,260,9.5,9.5,32,0.00,,,0.00,283.39,VWS V14.01,2013-07-18 22:12:00,
2013-07-18 18:13:00,88.6,54.2,29.98,West,268,10.5,11.4,31,0.00,,,0.00,197.38,VWS V14.01,2013-07-18 22:13:00,
2013-07-18 18:14:00,88.8,56.1,29.98,West,267,6.9,10.5,33,0.00,,,0.00,378.33,VWS V14.01,2013-07-18 22:14:00,
2013-07-18 18:15:00,89.3,54.7,29.98,West,275,9.7,9.9,31,0.00,,,0.00,383.27,VWS V14.01,2013-07-18 22:15:00,
2013-07-18 18:16:00,89.4,55.4,29.98,WNW,292,7.8,9.7,32,0.00,,,0.00,374.48,VWS V14.01,2013-07-18 22:16:00,
2013-07-18 18:17:00,89.6,55.7,29.98,WSW,256,7.6,7.6,32,0.00,,,0.00,373.69,VWS V14.01,2013-07-18 22:17:00,
2013-07-18 18:18:00,89.7,54.8,29.97,West,268,10.5,10.5,31,0.00,,,0.00,348.41,VWS V14.01,2013-07-18 22:18:00,
2013-07-18 18:19:00,89.7,56.0,29.98,West,260,6.3,6.3,32,0.00,,,0.00,250.85,VWS V14.01,2013-07-18 22:19:00,
2013-07-18 18:20:00,89.7,56.0,29.98,West,260,6.3,6.3,32,0.00,,,0.00,250.85,VWS V14.01,2013-07-18 22:20:00,
2013-07-18 18:21:00,90.1,56.2,29.98,West,273,9.5,9.5,32,0.00,,,0.00,401.22,VWS V14.01,2013-07-18 22:21:00,
2013-07-18 18:22:00,90.1,56.2,29.98,West,273,9.5,9.5,32,0.00,,,0.00,401.22,VWS V14.01,2013-07-18 22:22:00,
2013-07-18 18:23:00,90.3,56.1,29.98,West,280,8.3,8.3,32,0.00,,,0.00,403.11,VWS V14.01,2013-07-18 22:23:00,
2013-07-18 18:24:00,89.8,54.1,29.98,WNW,293,9.5,13.3,30,0.00,,,0.00,400.31,VWS V14.01,2013-07-18 22:24:00,
2013-07-18 18:25:00,90.3,54.9,29.98,WNW,284,9.2,9.5,30,0.00,,,0.00,391.94,VWS V14.01,2013-07-18 22:25:00,
2013-07-18 18:26:00,89.5,55.0,29.98,WNW,298,8.3,12.8,31,0.00,,,0.00,180.53,VWS V14.01,2013-07-18 22:26:00,
2013-07-18 18:27:00,89.2,55.2,29.98,WNW,289,8.7,9.5,32,0.00,,,0.00,382.91,VWS V14.01,2013-07-18 22:27:00,
2013-07-18 18:28:00,89.9,56.4,29.98,West,279,7.3,10.0,32,0.00,,,0.00,345.85,VWS V14.01,2013-07-18 22:28:00,
2013-07-18 18:29:00,90.0,55.5,29.97,West,279,8.1,12.8,31,0.00,,,0.00,324.60,VWS V14.01,2013-07-18 22:29:00,
2013-07-18 18:30:00,89.3,54.1,29.97,West,270,8.8,8.8,30,0.00,,,0.00,302.63,VWS V14.01,2013-07-18 22:30:00,
2013-07-18 18:31:00,89.2,54.9,29.97,West,270,11.9,11.9,31,0.00,,,0.00,285.53,VWS V14.01,2013-07-18 22:31:00,
2013-07-18 18:32:00,89.4,55.3,29.97,WSW,250,11.2,12.8,32,0.00,,,0.00,308.97,VWS V14.01,2013-07-18 22:32:00,
2013-07-18 18:33:00,89.3,54.5,29.97,WNW,283,11.1,12.8,31,0.00,,,0.00,293.77,VWS V14.01,2013-07-18 22:33:00,
2013-07-18 18:34:00,89.3,55.3,29.97,WNW,285,7.5,11.1,32,0.00,,,0.00,317.28,VWS V14.01,2013-07-18 22:34:00,
2013-07-18 18:35:00,88.5,56.0,29.98,West,275,7.5,7.5,33,0.00,,,0.00,110.62,VWS V14.01,2013-07-18 22:35:00,
2013-07-18 18:36:00,88.0,54.3,29.97,West,262,9.5,9.5,32,0.00,,,0.00,104.95,VWS V14.01,2013-07-18 22:36:00,
2013-07-18 18:37:00,88.3,55.7,29.99,West,278,8.1,9.5,33,0.00,,,0.00,192.74,VWS V14.01,2013-07-18 22:37:00,
2013-07-18 18:38:00,88.7,55.8,29.97,West,266,7.6,7.6,33,0.00,,,0.00,304.82,VWS V14.01,2013-07-18 22:38:00,
2013-07-18 18:39:00,89.0,56.9,29.98,WSW,249,7.8,7.8,34,0.00,,,0.00,316.79,VWS V14.01,2013-07-18 22:39:00,
2013-07-18 18:40:00,89.2,55.3,29.97,West,268,8.8,8.8,32,0.00,,,0.00,258.97,VWS V14.01,2013-07-18 22:40:00,
2013-07-18 18:41:00,88.6,54.6,29.97,West,267,10.5,10.5,32,0.00,,,0.00,100.18,VWS V14.01,2013-07-18 22:41:00,
2013-07-18 18:42:00,88.2,54.3,29.98,West,265,8.5,10.5,32,0.00,,,0.00,96.76,VWS V14.01,2013-07-18 22:42:00,
2013-07-18 18:43:00,89.1,55.2,29.98,West,265,9.0,9.0,32,0.00,,,0.00,300.18,VWS V14.01,2013-07-18 22:43:00,
2013-07-18 18:44:00,89.1,55.2,29.98,West,265,9.0,9.0,32,0.00,,,0.00,300.18,VWS V14.01,2013-07-18 22:44:00,
2013-07-18 18:45:00,89.1,56.5,29.97,West,262,7.8,9.9,33,0.00,,,0.00,287.97,VWS V14.01,2013-07-18 22:45:00,
2013-07-18 18:46:00,89.2,54.7,29.97,WSW,258,12.1,12.1,31,0.00,,,0.00,292.86,VWS V14.01,2013-07-18 22:46:00,
2013-07-18 18:47:00,89.5,54.8,29.97,West,276,10.9,12.1,31,0.00,,,0.00,283.09,VWS V14.01,2013-07-18 22:47:00,
2013-07-18 18:48:00,89.7,58.0,29.97,SW,232,7.6,10.9,34,0.00,,,0.00,284.68,VWS V14.01,2013-07-18 22:48:00,
2013-07-18 18:49:00,89.1,56.9,29.97,West,278,5.9,7.6,34,0.00,,,0.00,236.14,VWS V14.01,2013-07-18 22:49:00,
2013-07-18 18:50:00,88.2,55.0,29.98,WSW,254,8.5,10.4,32,0.00,,,0.00,83.58,VWS V14.01,2013-07-18 22:50:00,
2013-07-18 18:51:00,87.8,54.5,29.97,WSW,250,9.3,9.5,32,0.00,,,0.00,87.24,VWS V14.01,2013-07-18 22:51:00,
2013-07-18 18:52:00,88.1,56.3,29.98,WSW,257,7.1,9.3,34,0.00,,,0.00,245.73,VWS V14.01,2013-07-18 22:52:00,
2013-07-18 18:53:00,88.6,55.9,29.98,WSW,255,7.1,7.1,33,0.00,,,0.00,232.30,VWS V14.01,2013-07-18 22:53:00,
2013-07-18 18:54:00,88.3,57.0,29.97,West,263,7.5,7.5,35,0.00,,,0.00,261.11,VWS V14.01,2013-07-18 22:54:00,
2013-07-18 18:55:00,89.1,56.3,29.98,WSW,241,6.9,8.7,33,0.00,,,0.00,205.62,VWS V14.01,2013-07-18 22:55:00,
2013-07-18 18:56:00,88.5,55.0,29.97,West,273,8.7,8.7,32,0.00,,,0.00,261.05,VWS V14.01,2013-07-18 22:56:00,
2013-07-18 18:57:00,88.6,56.1,29.97,WSW,255,8.0,8.0,33,0.00,,,0.00,264.96,VWS V14.01,2013-07-18 22:57:00,
2013-07-18 18:58:00,89.0,55.8,29.97,WNW,282,8.7,8.7,32,0.00,,,0.00,253.66,VWS V14.01,2013-07-18 22:58:00,
2013-07-18 18:59:00,89.1,57.0,29.97,WSW,248,6.6,6.6,34,0.00,,,0.00,259.89,VWS V14.01,2013-07-18 22:59:00,
2013-07-18 19:00:00,89.0,57.3,29.96,WSW,255,6.4,6.6,34,0.00,,,0.00,259.34,VWS V14.01,2013-07-18 23:00:00,
2013-07-18 19:01:00,89.0,57.4,29.97,WSW,256,6.4,6.6,34,0.00,,,0.00,252.87,VWS V14.01,2013-07-18 23:01:00,
2013-07-18 19:02:00,89.1,57.1,29.97,WSW,250,6.4,6.6,34,0.00,,,0.00,251.53,VWS V14.01,2013-07-18 23:02:00,
2013-07-18 19:03:00,89.6,56.6,29.97,WSW,257,8.5,8.5,33,0.00,,,0.00,248.78,VWS V14.01,2013-07-18 23:03:00,
2013-07-18 19:04:00,89.3,56.9,29.97,WSW,248,7.6,7.6,34,0.00,,,0.00,238.34,VWS V14.01,2013-07-18 23:04:00,
2013-07-18 19:05:00,88.9,57.2,29.98,WSW,256,5.2,7.6,34,0.00,,,0.00,232.05,VWS V14.01,2013-07-18 23:05:00,
2013-07-18 19:06:00,89.1,57.3,29.98,West,269,7.3,7.3,34,0.00,,,0.00,231.87,VWS V14.01,2013-07-18 23:06:00,
2013-07-18 19:07:00,89.1,56.1,29.97,West,274,7.3,7.3,33,0.00,,,0.00,232.54,VWS V14.01,2013-07-18 23:07:00,
2013-07-18 19:08:00,88.8,55.6,29.97,West,280,9.2,9.2,33,0.00,,,0.00,230.59,VWS V14.01,2013-07-18 23:08:00,
2013-07-18 19:09:00,89.0,57.1,29.97,West,265,6.4,8.3,34,0.00,,,0.00,221.67,VWS V14.01,2013-07-18 23:09:00,
2013-07-18 19:10:00,88.9,55.7,29.98,WSW,253,9.7,9.7,32,0.00,,,0.00,219.35,VWS V14.01,2013-07-18 23:10:00,
2013-07-18 19:11:00,89.1,58.4,29.97,WSW,253,6.3,9.7,36,0.00,,,0.00,209.22,VWS V14.01,2013-07-18 23:11:00,
2013-07-18 19:12:00,88.5,57.0,29.97,West,262,7.5,8.3,35,0.00,,,0.00,191.15,VWS V14.01,2013-07-18 23:12:00,
2013-07-18 19:13:00,89.1,58.3,29.97,SW,236,5.7,7.5,35,0.00,,,0.00,206.04,VWS V14.01,2013-07-18 23:13:00,
2013-07-18 19:14:00,88.8,57.8,29.98,WSW,252,5.1,5.7,35,0.00,,,0.00,212.27,VWS V14.01,2013-07-18 23:14:00,
2013-07-18 19:15:00,88.7,57.5,29.99,WSW,247,6.1,6.1,35,0.00,,,0.00,212.27,VWS V14.01,2013-07-18 23:15:00,
2013-07-18 19:16:00,88.7,57.3,29.98,WSW,254,6.8,6.8,35,0.00,,,0.00,205.43,VWS V14.01,2013-07-18 23:16:00,
2013-07-18 19:17:00,88.6,57.8,29.97,West,260,5.9,6.8,35,0.00,,,0.00,197.62,VWS V14.01,2013-07-18 23:17:00,
2013-07-18 19:18:00,88.7,57.8,29.97,WSW,252,5.9,5.9,35,0.00,,,0.00,195.24,VWS V14.01,2013-07-18 23:18:00,
2013-07-18 19:19:00,88.8,57.1,29.98,West,267,6.1,6.3,34,0.00,,,0.00,200.06,VWS V14.01,2013-07-18 23:19:00,
2013-07-18 19:20:00,88.4,56.7,29.97,WSW,240,7.6,7.6,34,0.00,,,0.00,182.60,VWS V14.01,2013-07-18 23:20:00,
2013-07-18 19:21:00,88.4,56.5,29.97,WSW,251,7.5,7.6,34,0.00,,,0.00,185.41,VWS V14.01,2013-07-18 23:21:00,
2013-07-18 19:22:00,89.3,57.1,29.97,SW,233,7.3,7.5,34,0.00,,,0.00,179.24,VWS V14.01,2013-07-18 23:22:00,
2013-07-18 19:23:00,88.9,56.7,29.97,WSW,244,6.6,6.6,34,0.00,,,0.00,179.55,VWS V14.01,2013-07-18 23:23:00,
2013-07-18 19:24:00,88.4,56.6,29.98,West,271,7.3,7.3,34,0.00,,,0.00,183.03,VWS V14.01,2013-07-18 23:24:00,
2013-07-18 19:25:00,88.4,56.0,29.97,WSW,256,8.5,8.5,33,0.00,,,0.00,190.90,VWS V14.01,2013-07-18 23:25:00,
2013-07-18 19:26:00,88.4,56.1,29.97,WSW,256,7.6,9.2,33,0.00,,,0.00,189.19,VWS V14.01,2013-07-18 23:26:00,
2013-07-18 19:27:00,88.6,56.8,29.98,WSW,254,6.4,8.8,34,0.00,,,0.00,182.72,VWS V14.01,2013-07-18 23:27:00,
2013-07-18 19:28:00,88.5,56.6,29.97,WSW,255,5.6,8.8,34,0.00,,,0.00,180.77,VWS V14.01,2013-07-18 23:28:00,
2013-07-18 19:29:00,88.3,57.3,29.97,West,263,5.6,5.6,35,0.00,,,0.00,177.66,VWS V14.01,2013-07-18 23:29:00,
2013-07-18 19:30:00,88.8,56.6,29.97,SW,232,6.8,6.8,34,0.00,,,0.00,174.91,VWS V14.01,2013-07-18 23:30:00,
2013-07-18 19:31:00,88.4,56.3,29.97,WSW,243,6.8,6.8,34,0.00,,,0.00,174.18,VWS V14.01,2013-07-18 23:31:00,
2013-07-18 19:32:00,88.2,56.3,29.97,WSW,251,7.6,7.6,34,0.00,,,0.00,168.07,VWS V14.01,2013-07-18 23:32:00,
2013-07-18 19:33:00,88.2,56.7,29.97,WSW,254,6.3,7.6,35,0.00,,,0.00,168.32,VWS V14.01,2013-07-18 23:33:00,
2013-07-18 19:34:00,88.2,57.0,29.97,West,267,7.1,7.1,35,0.00,,,0.00,165.87,VWS V14.01,2013-07-18 23:34:00,
2013-07-18 19:35:00,88.2,57.0,29.97,West,267,7.1,7.1,35,0.00,,,0.00,165.87,VWS V14.01,2013-07-18 23:35:00,
2013-07-18 19:36:00,88.1,56.9,29.97,WSW,253,6.1,7.1,35,0.00,,,0.00,158.55,VWS V14.01,2013-07-18 23:36:00,
2013-07-18 19:37:00,87.8,58.3,29.97,West,274,5.2,6.1,37,0.00,,,0.00,158.30,VWS V14.01,2013-07-18 23:37:00,
2013-07-18 19:38:00,87.5,58.5,29.97,WSW,256,4.9,6.4,38,0.00,,,0.00,153.42,VWS V14.01,2013-07-18 23:38:00,
2013-07-18 19:39:00,88.3,57.9,29.97,WSW,245,6.1,6.3,36,0.00,,,0.00,145.12,VWS V14.01,2013-07-18 23:39:00,
2013-07-18 19:40:00,87.7,57.4,29.97,WSW,250,6.8,7.1,36,0.00,,,0.00,144.38,VWS V14.01,2013-07-18 23:40:00,
2013-07-18 19:41:00,87.7,57.2,29.97,WSW,256,7.6,7.6,36,0.00,,,0.00,141.70,VWS V14.01,2013-07-18 23:41:00,
2013-07-18 19:42:00,87.7,57.4,29.97,West,260,6.6,7.6,36,0.00,,,0.00,141.21,VWS V14.01,2013-07-18 23:42:00,
2013-07-18 19:43:00,87.4,59.6,29.97,WSW,258,3.9,6.6,39,0.00,,,0.00,141.45,VWS V14.01,2013-07-18 23:43:00,
2013-07-18 19:44:00,87.4,59.6,29.97,WSW,258,3.9,6.6,39,0.00,,,0.00,141.45,VWS V14.01,2013-07-18 23:44:00,
2013-07-18 19:45:00,88.2,60.0,29.97,WSW,246,3.9,5.1,39,0.00,,,0.00,137.55,VWS V14.01,2013-07-18 23:45:00,
2013-07-18 19:46:00,88.0,59.5,29.97,WSW,249,4.0,4.4,38,0.00,,,0.00,136.57,VWS V14.01,2013-07-18 23:46:00,
2013-07-18 19:47:00,87.8,58.3,29.97,WSW,243,5.4,5.4,37,0.00,,,0.00,135.90,VWS V14.01,2013-07-18 23:47:00,
2013-07-18 19:48:00,87.5,57.5,29.97,WSW,250,7.5,8.0,36,0.00,,,0.00,132.23,VWS V14.01,2013-07-18 23:48:00,
2013-07-18 19:49:00,88.2,57.5,29.97,WSW,245,8.0,8.1,36,0.00,,,0.00,129.79,VWS V14.01,2013-07-18 23:49:00,
2013-07-18 19:50:00,87.8,58.4,29.97,WSW,248,5.2,8.1,37,0.00,,,0.00,128.02,VWS V14.01,2013-07-18 23:50:00,
2013-07-18 19:51:00,88.1,57.9,29.97,WSW,247,7.3,7.3,36,0.00,,,0.00,123.63,VWS V14.01,2013-07-18 23:51:00,
2013-07-18 19:52:00,88.1,57.9,29.97,WSW,247,7.3,7.3,36,0.00,,,0.00,123.63,VWS V14.01,2013-07-18 23:52:00,
2013-07-18 19:53:00,87.5,57.7,29.97,WSW,248,5.7,5.9,37,0.00,,,0.00,119.96,VWS V14.01,2013-07-18 23:53:00,
2013-07-18 19:54:00,87.4,58.6,29.97,WSW,242,5.7,6.1,38,0.00,,,0.00,117.28,VWS V14.01,2013-07-18 23:54:00,
2013-07-18 19:55:00,87.9,57.2,29.97,WSW,249,7.1,7.1,35,0.00,,,0.00,114.59,VWS V14.01,2013-07-18 23:55:00,
2013-07-18 19:56:00,86.8,58.5,29.97,West,269,4.4,6.4,38,0.00,,,0.00,112.15,VWS V14.01,2013-07-18 23:56:00,
2013-07-18 19:57:00,87.4,58.8,29.97,WSW,243,4.9,4.9,38,0.00,,,0.00,109.71,VWS V14.01,2013-07-18 23:57:00,
2013-07-18 19:58:00,86.9,58.5,29.97,WSW,251,4.5,4.9,38,0.00,,,0.00,109.46,VWS V14.01,2013-07-18 23:58:00,
2013-07-18 19:59:00,87.2,57.9,29.97,WSW,240,5.4,5.4,37,0.00,,,0.00,104.09,VWS V14.01,2013-07-18 23:59:00,
2013-07-18 20:00:00,87.4,57.8,29.96,WSW,256,6.1,6.1,37,0.00,,,0.00,102.38,VWS V14.01,2013-07-19 00:00:00,
2013-07-18 20:01:00,86.7,58.6,29.97,WSW,257,4.9,6.1,39,0.00,,,0.00,100.86,VWS V14.01,2013-07-19 00:01:00,
2013-07-18 20:02:00,87.4,58.3,29.97,WSW,247,5.9,5.9,37,0.00,,,0.00,99.69,VWS V14.01,2013-07-19 00:02:00,
2013-07-18 20:03:00,86.9,57.6,29.97,WSW,253,5.4,6.4,37,0.00,,,0.00,96.76,VWS V14.01,2013-07-19 00:03:00,
2013-07-18 20:04:00,87.6,57.5,29.97,WSW,243,7.6,7.6,36,0.00,,,0.00,94.26,VWS V14.01,2013-07-19 00:04:00,
2013-07-18 20:05:00,87.4,58.1,29.96,WSW,242,5.7,7.6,37,0.00,,,0.00,93.22,VWS V14.01,2013-07-19 00:05:00,
2013-07-18 20:06:00,86.8,58.4,29.98,WSW,245,5.2,5.2,38,0.00,,,0.00,90.17,VWS V14.01,2013-07-19 00:06:00,
2013-07-18 20:07:00,86.2,58.7,29.97,WSW,258,4.9,5.2,39,0.00,,,0.00,87.12,VWS V14.01,2013-07-19 00:07:00,
2013-07-18 20:08:00,86.6,58.3,29.97,WSW,257,5.4,6.1,38,0.00,,,0.00,87.73,VWS V14.01,2013-07-19 00:08:00,
2013-07-18 20:09:00,85.9,58.6,29.97,WSW,255,5.1,5.6,40,0.00,,,0.00,86.51,VWS V14.01,2013-07-19 00:09:00,
2013-07-18 20:10:00,86.6,58.7,29.97,WSW,246,5.7,5.7,39,0.00,,,0.00,84.80,VWS V14.01,2013-07-19 00:10:00,
2013-07-18 20:11:00,86.3,58.6,29.97,WSW,249,6.4,6.4,39,0.00,,,0.00,83.15,VWS V14.01,2013-07-19 00:11:00,
2013-07-18 20:12:00,86.5,55.5,29.97,WSW,251,5.4,6.4,35,0.00,,,0.00,82.42,VWS V14.01,2013-07-19 00:12:00,
2013-07-18 20:13:00,86.6,58.2,29.97,WSW,251,6.8,6.8,38,0.00,,,0.00,78.21,VWS V14.01,2013-07-19 00:13:00,
2013-07-18 20:14:00,86.3,58.7,29.97,WSW,245,4.7,6.8,39,0.00,,,0.00,77.17,VWS V14.01,2013-07-19 00:14:00,
2013-07-18 20:15:00,86.3,59.6,29.97,WSW,239,3.7,5.2,41,0.00,,,0.00,74.91,VWS V14.01,2013-07-19 00:15:00,
2013-07-18 20:16:00,86.4,60.1,29.96,SW,230,3.5,4.2,41,0.00,,,0.00,73.08,VWS V14.01,2013-07-19 00:16:00,
2013-07-18 20:17:00,86.0,58.2,29.96,WSW,249,5.2,5.2,39,0.00,,,0.00,70.63,VWS V14.01,2013-07-19 00:17:00,
2013-07-18 20:18:00,86.7,59.0,29.97,WSW,242,5.7,5.7,39,0.00,,,0.00,68.19,VWS V14.01,2013-07-19 00:18:00,
2013-07-18 20:19:00,85.9,59.0,29.97,WSW,242,4.5,5.7,40,0.00,,,0.00,68.62,VWS V14.01,2013-07-19 00:19:00,
2013-07-18 20:20:00,85.6,59.1,29.96,WSW,242,4.0,4.5,41,0.00,,,0.00,65.75,VWS V14.01,2013-07-19 00:20:00,
2013-07-18 20:21:00,86.0,59.6,29.96,WSW,241,4.0,4.0,41,0.00,,,0.00,64.77,VWS V14.01,2013-07-19 00:21:00,
2013-07-18 20:22:00,85.8,60.0,29.96,WSW,239,3.2,4.0,42,0.00,,,0.00,62.09,VWS V14.01,2013-07-19 00:22:00,
2013-07-18 20:23:00,85.8,60.0,29.96,WSW,239,3.2,4.0,42,0.00,,,0.00,62.09,VWS V14.01,2013-07-19 00:23:00,
2013-07-18 20:24:00,85.8,59.1,29.97,WSW,244,4.5,5.4,41,0.00,,,0.00,59.34,VWS V14.01,2013-07-19 00:24:00,
2013-07-18 20:25:00,85.4,60.1,29.97,WSW,244,3.9,4.5,43,0.00,,,0.00,56.17,VWS V14.01,2013-07-19 00:25:00,
2013-07-18 20:26:00,85.3,59.8,29.97,WSW,240,3.0,4.0,42,0.00,,,0.00,54.88,VWS V14.01,2013-07-19 00:26:00,
2013-07-18 20:27:00,84.8,60.0,29.97,WSW,244,3.7,3.9,43,0.00,,,0.00,51.04,VWS V14.01,2013-07-19 00:27:00,
2013-07-18 20:28:00,85.3,59.8,29.97,WSW,244,4.0,4.0,42,0.00,,,0.00,51.71,VWS V14.01,2013-07-19 00:28:00,
2013-07-18 20:29:00,85.6,59.7,29.97,WSW,239,3.7,3.7,42,0.00,,,0.00,46.95,VWS V14.01,2013-07-19 00:29:00,
2013-07-18 20:30:00,85.3,60.2,29.97,SW,236,4.0,4.0,43,0.00,,,0.00,44.93,VWS V14.01,2013-07-19 00:30:00,
2013-07-18 20:31:00,85.4,59.6,29.97,WSW,237,4.4,4.4,42,0.00,,,0.00,42.61,VWS V14.01,2013-07-19 00:31:00,
2013-07-18 20:32:00,85.1,60.2,29.98,SW,236,3.9,3.9,43,0.00,,,0.00,40.60,VWS V14.01,2013-07-19 00:32:00,
2013-07-18 20:33:00,84.5,60.7,29.97,WSW,248,3.0,3.0,45,0.00,,,0.00,38.58,VWS V14.01,2013-07-19 00:33:00,
2013-07-18 20:34:00,84.7,60.2,29.96,WSW,242,3.9,3.9,44,0.00,,,0.00,38.64,VWS V14.01,2013-07-19 00:34:00,
2013-07-18 20:35:00,84.7,60.8,29.96,WSW,245,3.5,3.9,45,0.00,,,0.00,36.45,VWS V14.01,2013-07-19 00:35:00,
2013-07-18 20:36:00,84.6,60.7,29.97,WSW,244,4.0,4.0,45,0.00,,,0.00,35.47,VWS V14.01,2013-07-19 00:36:00,
2013-07-18 20:37:00,84.4,60.6,29.96,WSW,250,4.7,4.7,45,0.00,,,0.00,31.26,VWS V14.01,2013-07-19 00:37:00,
2013-07-18 20:38:00,84.7,60.8,29.96,WSW,239,4.0,4.7,45,0.00,,,0.00,31.56,VWS V14.01,2013-07-19 00:38:00,
2013-07-18 20:39:00,84.3,60.8,29.96,WSW,246,3.9,4.0,45,0.00,,,0.00,31.56,VWS V14.01,2013-07-19 00:39:00,
2013-07-18 20:40:00,84.1,61.4,29.98,WSW,244,3.2,3.2,47,0.00,,,0.00,29.67,VWS V14.01,2013-07-19 00:40:00,
2013-07-18 20:41:00,84.1,61.4,29.96,WSW,243,3.5,3.5,46,0.00,,,0.00,22.71,VWS V14.01,2013-07-19 00:41:00,
2013-07-18 20:42:00,84.3,61.3,29.97,WSW,243,3.5,3.5,46,0.00,,,0.00,26.19,VWS V14.01,2013-07-19 00:42:00,
2013-07-18 20:43:00,83.8,61.4,29.97,WSW,240,3.9,3.9,47,0.00,,,0.00,23.93,VWS V14.01,2013-07-19 00:43:00,
2013-07-18 20:44:00,83.8,61.4,29.97,WSW,240,3.9,3.9,47,0.00,,,0.00,23.93,VWS V14.01,2013-07-19 00:44:00,
2013-07-18 20:45:00,83.6,61.6,29.97,WSW,239,3.5,3.9,48,0.00,,,0.00,23.87,VWS V14.01,2013-07-19 00:45:00,
2013-07-18 20:46:00,83.5,61.6,29.97,WSW,242,3.7,3.7,48,0.00,,,0.00,21.06,VWS V14.01,2013-07-19 00:46:00,
2013-07-18 20:47:00,83.4,61.6,29.97,WSW,244,3.4,3.7,48,0.00,,,0.00,19.60,VWS V14.01,2013-07-19 00:47:00,
2013-07-18 20:48:00,83.3,60.2,29.97,WSW,241,2.8,3.2,46,0.00,,,0.00,19.17,VWS V14.01,2013-07-19 00:48:00,
2013-07-18 20:49:00,83.3,61.7,29.97,WSW,241,3.0,3.0,48,0.00,,,0.00,17.64,VWS V14.01,2013-07-19 00:49:00,
2013-07-18 20:50:00,83.1,62.0,29.97,WSW,246,2.8,3.0,49,0.00,,,0.00,17.16,VWS V14.01,2013-07-19 00:50:00,
2013-07-18 20:51:00,83.2,59.4,29.97,WSW,246,2.8,2.8,45,0.00,,,0.00,15.45,VWS V14.01,2013-07-19 00:51:00,
2013-07-18 20:52:00,83.2,61.9,29.97,WSW,241,2.7,2.8,49,0.00,,,0.00,14.47,VWS V14.01,2013-07-19 00:52:00,
2013-07-18 20:53:00,83.8,61.7,29.96,WSW,241,3.0,3.0,48,0.00,,,0.00,14.53,VWS V14.01,2013-07-19 00:53:00,
2013-07-18 20:54:00,82.7,61.9,29.96,WSW,241,2.3,3.0,50,0.00,,,0.00,11.11,VWS V14.01,2013-07-19 00:54:00,
2013-07-18 20:55:00,82.5,62.4,29.96,WSW,242,2.2,2.5,51,0.00,,,0.00,11.78,VWS V14.01,2013-07-19 00:55:00,
2013-07-18 20:56:00,82.6,62.7,29.96,WSW,242,1.8,2.2,51,0.00,,,0.00,10.01,VWS V14.01,2013-07-19 00:56:00,
2013-07-18 20:57:00,82.8,62.6,29.96,WSW,242,2.7,2.7,51,0.00,,,0.00,9.58,VWS V14.01,2013-07-19 00:57:00,
2013-07-18 20:58:00,82.9,62.4,29.96,WSW,242,2.5,2.7,50,0.00,,,0.00,9.58,VWS V14.01,2013-07-19 00:58:00,
2013-07-18 20:59:00,82.8,62.4,29.96,WSW,242,2.5,2.7,50,0.00,,,0.00,8.61,VWS V14.01,2013-07-19 00:59:00,
2013-07-18 21:00:00,82.7,62.4,29.97,WSW,242,2.7,2.8,50,0.00,,,0.00,7.14,VWS V14.01,2013-07-19 01:00:00,
2013-07-18 21:01:00,82.4,62.6,29.97,WSW,241,2.7,2.7,51,0.00,,,0.00,7.20,VWS V14.01,2013-07-19 01:01:00,
2013-07-18 21:02:00,82.2,62.6,29.97,WSW,242,2.5,2.7,52,0.00,,,0.00,6.41,VWS V14.01,2013-07-19 01:02:00,
2013-07-18 21:03:00,82.5,62.4,29.96,WSW,241,3.0,3.0,51,0.00,,,0.00,5.56,VWS V14.01,2013-07-19 01:03:00,
2013-07-18 21:04:00,82.2,62.4,29.97,WSW,241,2.8,3.0,51,0.00,,,0.00,4.70,VWS V14.01,2013-07-19 01:04:00,
2013-07-18 21:05:00,82.4,62.4,29.97,SW,236,3.2,3.2,51,0.00,,,0.00,4.70,VWS V14.01,2013-07-19 01:05:00,
2013-07-18 21:06:00,82.1,62.6,29.98,SW,236,2.8,3.2,52,0.00,,,0.00,5.62,VWS V14.01,2013-07-19 01:06:00,
2013-07-18 21:07:00,82.1,63.0,29.97,SW,226,3.7,3.7,52,0.00,,,0.00,3.97,VWS V14.01,2013-07-19 01:07:00,
2013-07-18 21:08:00,81.9,63.3,29.97,WSW,237,3.0,3.7,53,0.00,,,0.00,3.30,VWS V14.01,2013-07-19 01:08:00,
2013-07-18 21:09:00,82.0,63.4,29.97,SW,221,3.5,3.5,53,0.00,,,0.00,4.46,VWS V14.01,2013-07-19 01:09:00,
2013-07-18 21:10:00,82.7,63.5,29.97,SW,214,4.0,4.0,52,0.00,,,0.00,2.50,VWS V14.01,2013-07-19 01:10:00,
2013-07-18 21:11:00,82.2,63.4,29.97,SW,214,3.7,4.0,53,0.00,,,0.00,3.11,VWS V14.01,2013-07-19 01:11:00,
2013-07-18 21:12:00,81.7,63.3,29.97,SW,221,3.5,3.5,54,0.00,,,0.00,2.26,VWS V14.01,2013-07-19 01:12:00,
2013-07-18 21:13:00,81.8,63.4,29.97,SW,218,3.7,4.4,54,0.00,,,0.00,2.26,VWS V14.01,2013-07-19 01:13:00,
2013-07-18 21:14:00,81.6,63.6,29.97,SW,222,3.7,4.0,54,0.00,,,0.00,2.26,VWS V14.01,2013-07-19 01:14:00,
2013-07-18 21:15:00,81.8,63.5,29.97,SW,218,4.0,4.0,54,0.00,,,0.00,2.26,VWS V14.01,2013-07-19 01:15:00,
2013-07-18 21:16:00,81.6,63.5,29.97,SW,220,4.2,4.2,54,0.00,,,0.00,2.32,VWS V14.01,2013-07-19 01:16:00,
2013-07-18 21:17:00,81.3,63.8,29.97,SSW,211,3.7,4.4,55,0.00,,,0.00,1.83,VWS V14.01,2013-07-19 01:17:00,
2013-07-18 21:18:00,81.1,63.9,29.97,SSW,213,3.0,3.7,56,0.00,,,0.00,2.02,VWS V14.01,2013-07-19 01:18:00,
2013-07-18 21:19:00,80.9,63.9,29.97,SSW,213,3.0,3.0,56,0.00,,,0.00,1.04,VWS V14.01,2013-07-19 01:19:00,
2013-07-18 21:20:00,81.5,64.3,29.98,SSW,207,3.9,3.9,56,0.00,,,0.00,0.00,VWS V14.01,2013-07-19 01:20:00,
2013-07-18 21:21:00,80.9,64.3,29.97,SW,218,3.4,3.9,57,0.00,,,0.00,0.12,VWS V14.01,2013-07-19 01:21:00,
2013-07-18 21:22:00,80.6,64.3,29.97,SW,221,3.0,3.2,58,0.00,,,0.00,0.79,VWS V14.01,2013-07-19 01:22:00,
2013-07-18 21:23:00,81.0,64.4,29.97,SW,221,3.0,3.0,57,0.00,,,0.00,0.06,VWS V14.01,2013-07-19 01:23:00,
2013-07-18 21:24:00,80.6,64.6,29.96,SW,221,2.8,3.2,58,0.00,,,0.00,0.43,VWS V14.01,2013-07-19 01:24:00,
2013-07-18 21:25:00,80.6,64.6,29.96,SW,221,2.8,3.2,58,0.00,,,0.00,0.43,VWS V14.01,2013-07-19 01:25:00,
2013-07-18 21:26:00,81.0,64.7,29.97,SW,225,3.5,3.5,58,0.00,,,0.00,0.31,VWS V14.01,2013-07-19 01:26:00,
2013-07-18 21:27:00,80.6,64.8,29.97,SW,227,3.0,3.0,59,0.00,,,0.00,0.00,VWS V14.01,2013-07-19 01:27:00,
2013-07-18 21:28:00,80.6,64.8,29.97,SW,227,3.0,3.0,59,0.00,,,0.00,0.00,VWS V14.01,2013-07-19 01:28:00,
2013-07-18 21:29:00,80.7,62.6,29.97,SW,227,3.4,3.5,54,0.00,,,0.00,0.00,VWS V14.01,2013-07-19 01:29:00,
2013-07-18 21:30:00,80.3,65.0,29.97,SW,223,3.5,3.5,60,0.00,,,0.00,0.00,VWS V14.01,2013-07-19 01:30:00,
2013-07-18 21:31:00,80.2,65.1,29.97,SW,222,3.4,3.4,60,0.00,,,0.00,0.00,VWS V14.01,2013-07-19 01:31:00,
2013-07-18 21:32:00,80.7,65.3,29.97,SW,218,4.9,4.9,59,0.00,,,0.00,0.00,VWS V14.01,2013-07-19 01:32:00,
2013-07-18 21:33:00,80.3,65.1,29.97,SW,226,3.9,3.9,60,0.00,,,0.00,0.00,VWS V14.01,2013-07-19 01:33:00,
2013-07-18 21:34:00,80.8,65.3,29.97,SW,228,4.4,4.4,59,0.00,,,0.00,0.00,VWS V14.01,2013-07-19 01:34:00,
2013-07-18 21:35:00,80.5,65.1,29.97,WSW,237,3.5,4.4,60,0.00,,,0.00,0.43,VWS V14.01,2013-07-19 01:35:00,
2013-07-18 21:36:00,80.2,64.9,29.97,SW,234,3.9,3.9,60,0.00,,,0.00,0.00,VWS V14.01,2013-07-19 01:36:00,
2013-07-18 21:37:00,80.3,64.8,29.96,SW,232,4.7,4.7,59,0.00,,,0.00,0.00,VWS V14.01,2013-07-19 01:37:00,
2013-07-18 21:38:00,80.3,65.1,29.96,SW,234,4.0,4.7,60,0.00,,,0.00,0.12,VWS V14.01,2013-07-19 01:38:00,
2013-07-18 21:39:00,80.5,65.4,29.97,SW,235,3.5,4.0,60,0.00,,,0.00,0.00,VWS V14.01,2013-07-19 01:39:00,
2013-07-18 21:40:00,80.4,65.5,29.97,WSW,242,3.5,3.5,61,0.00,,,0.00,0.43,VWS V14.01,2013-07-19 01:40:00,
2013-07-18 21:41:00,80.2,65.5,29.96,SW,235,4.0,4.0,61,0.00,,,0.00,0.00,VWS V14.01,2013-07-19 01:41:00,
2013-07-18 21:42:00,80.4,65.6,29.96,SW,226,4.0,4.0,61,0.00,,,0.00,0.00,VWS V14.01,2013-07-19 01:42:00,
2013-07-18 21:43:00,80.4,65.6,29.96,SW,226,4.0,4.0,61,0.00,,,0.00,0.00,VWS V14.01,2013-07-19 01:43:00,
2013-07-18 21:44:00,80.0,65.6,29.97,SW,223,3.5,4.9,61,0.00,,,0.00,0.00,VWS V14.01,2013-07-19 01:44:00,
2013-07-18 21:45:00,80.2,65.7,29.97,SW,230,3.4,3.7,61,0.00,,,0.00,0.00,VWS V14.01,2013-07-19 01:45:00,
2013-07-18 21:46:00,80.5,66.2,29.96,SW,224,3.2,3.4,62,0.00,,,0.00,0.00,VWS V14.01,2013-07-19 01:46:00,
2013-07-18 21:47:00,80.1,66.0,29.97,SW,223,2.8,4.2,62,0.00,,,0.00,0.00,VWS V14.01,2013-07-19 01:47:00,
2013-07-18 21:48:00,80.1,66.0,29.98,SW,229,4.2,4.2,62,0.00,,,0.00,0.00,VWS V14.01,2013-07-19 01:48:00,
2013-07-18 21:49:00,80.2,66.1,29.97,SW,225,4.0,5.4,62,0.00,,,0.00,0.00,VWS V14.01,2013-07-19 01:49:00,
2013-07-18 21:50:00,80.0,65.9,29.97,SW,231,3.4,3.4,62,0.00,,,0.00,0.00,VWS V14.01,2013-07-19 01:50:00,
2013-07-18 21:51:00,80.1,66.2,29.96,SW,226,3.5,4.4,63,0.00,,,0.00,0.00,VWS V14.01,2013-07-19 01:51:00,
2013-07-18 21:52:00,80.1,66.2,29.96,SW,226,3.5,4.4,63,0.00,,,0.00,0.00,VWS V14.01,2013-07-19 01:52:00,
2013-07-18 21:53:00,79.7,66.2,29.97,SW,235,2.3,3.2,64,0.00,,,0.00,0.18,VWS V14.01,2013-07-19 01:53:00,
2013-07-18 21:54:00,79.5,66.2,29.97,SW,235,2.5,2.5,64,0.00,,,0.00,0.00,VWS V14.01,2013-07-19 01:54:00,
2013-07-18 21:55:00,79.8,66.7,29.97,SW,230,3.5,3.5,64,0.00,,,0.00,0.43,VWS V14.01,2013-07-19 01:55:00,
2013-07-18 21:56:00,79.7,66.6,29.97,SW,230,3.4,3.5,64,0.00,,,0.00,0.00,VWS V14.01,2013-07-19 01:56:00,
2013-07-18 21:57:00,79.8,66.6,29.97,SW,235,3.2,4.2,64,0.00,,,0.00,0.00,VWS V14.01,2013-07-19 01:57:00,
2013-07-18 21:58:00,79.8,66.3,29.97,SW,231,3.5,3.5,64,0.00,,,0.00,0.00,VWS V14.01,2013-07-19 01:58:00,
2013-07-18 21:59:00,79.6,66.6,29.97,SW,225,3.5,3.5,65,0.00,,,0.00,0.00,VWS V14.01,2013-07-19 01:59:00,
2013-07-18 22:00:00,79.6,66.6,29.97,SW,229,3.4,3.5,65,0.00,,,0.00,0.43,VWS V14.01,2013-07-19 02:00:00,
2013-07-18 22:01:00,79.8,66.9,29.97,SW,225,3.9,3.9,65,0.00,,,0.00,0.00,VWS V14.01,2013-07-19 02:01:00,
2013-07-18 22:04:00,80.0,67.0,29.97,SW,222,4.7,4.7,64,0.00,,,0.00,0.00,VWS V14.01,2013-07-19 02:04:00,
2013-07-18 22:05:00,79.9,66.9,29.99,SW,230,4.4,4.7,64,0.00,,,0.00,0.12,VWS V14.01,2013-07-19 02:05:00,
2013-07-18 22:06:00,79.9,66.8,29.98,SW,229,4.5,4.5,64,0.00,,,0.00,0.00,VWS V14.01,2013-07-19 02:06:00,
2013-07-18 22:07:00,79.7,66.6,29.97,WSW,239,3.5,3.7,64,0.00,,,0.00,0.00,VWS V14.01,2013-07-19 02:07:00,
2013-07-18 22:08:00,79.7,66.6,29.97,SW,234,4.0,4.0,64,0.00,,,0.00,0.00,VWS V14.01,2013-07-19 02:08:00,
2013-07-18 22:09:00,79.3,66.5,29.97,SW,231,3.9,4.0,65,0.00,,,0.00,0.12,VWS V14.01,2013-07-19 02:09:00,
2013-07-18 22:10:00,79.7,66.8,29.97,WSW,240,4.4,4.4,65,0.00,,,0.00,0.00,VWS V14.01,2013-07-19 02:10:00,
2013-07-18 22:11:00,79.9,66.9,29.97,WSW,243,4.5,4.5,64,0.00,,,0.00,0.00,VWS V14.01,2013-07-19 02:11:00,
2013-07-18 22:12:00,79.7,66.8,29.98,WSW,246,4.4,5.1,65,0.00,,,0.00,0.12,VWS V14.01,2013-07-19 02:12:00,
2013-07-18 22:13:00,79.3,66.8,29.98,WSW,253,4.0,4.4,65,0.00,,,0.00,0.12,VWS V14.01,2013-07-19 02:13:00,
2013-07-18 22:14:00,79.3,66.7,29.97,WSW,258,4.4,4.4,65,0.00,,,0.00,0.00,VWS V14.01,2013-07-19 02:14:00,
2013-07-18 22:15:00,79.7,67.1,29.98,SW,234,5.2,5.2,65,0.00,,,0.00,0.43,VWS V14.01,2013-07-19 02:15:00,
2013-07-18 22:16:00,79.4,66.7,29.97,WSW,244,4.9,5.2,65,0.00,,,0.00,0.00,VWS V14.01,2013-07-19 02:16:00,
2013-07-18 22:17:00,80.1,67.1,29.98,WSW,245,5.7,5.7,65,0.00,,,0.00,0.00,VWS V14.01,2013-07-19 02:17:00,
2013-07-18 22:18:00,79.6,66.6,29.97,West,259,4.7,5.7,64,0.00,,,0.00,0.43,VWS V14.01,2013-07-19 02:18:00,
2013-07-18 22:19:00,79.2,66.3,29.97,WSW,254,3.9,4.7,65,0.00,,,0.00,0.00,VWS V14.01,2013-07-19 02:19:00,
2013-07-18 22:20:00,79.2,66.4,29.97,WSW,243,3.9,5.1,65,0.00,,,0.00,0.00,VWS V14.01,2013-07-19 02:20:00,
2013-07-18 22:21:00,79.3,66.7,29.97,WSW,250,4.2,4.2,65,0.00,,,0.00,0.73,VWS V14.01,2013-07-19 02:21:00,
2013-07-18 22:22:00,79.2,66.6,29.97,WSW,247,4.7,5.4,65,0.00,,,0.00,0.00,VWS V14.01,2013-07-19 02:22:00,
2013-07-18 22:23:00,79.1,66.6,29.98,WSW,247,3.9,4.7,66,0.00,,,0.00,0.00,VWS V14.01,2013-07-19 02:23:00,
2013-07-18 22:24:00,78.9,66.8,29.98,WSW,244,3.5,3.9,66,0.00,,,0.00,0.00,VWS V14.01,2013-07-19 02:24:00,
2013-07-18 22:25:00,79.1,66.8,29.97,WSW,254,4.5,4.5,66,0.00,,,0.00,0.00,VWS V14.01,2013-07-19 02:25:00,
2013-07-18 22:26:00,79.2,66.8,29.97,WSW,251,4.5,4.5,66,0.00,,,0.00,0.43,VWS V14.01,2013-07-19 02:26:00,
2013-07-18 22:27:00,79.0,66.7,29.97,WSW,249,3.7,4.5,66,0.00,,,0.00,0.00,VWS V14.01,2013-07-19 02:27:00,
2013-07-18 22:28:00,79.3,66.9,29.97,WSW,247,4.9,4.9,66,0.00,,,0.00,0.12,VWS V14.01,2013-07-19 02:28:00,
2013-07-18 22:29:00,79.1,66.7,29.97,WSW,251,5.2,5.2,66,0.00,,,0.00,0.00,VWS V14.01,2013-07-19 02:29:00,
2013-07-18 22:30:00,79.3,67.0,29.97,WSW,254,4.9,5.2,66,0.00,,,0.00,0.00,VWS V14.01,2013-07-19 02:30:00,
2013-07-18 22:31:00,78.9,66.7,29.98,WSW,250,4.0,4.9,66,0.00,,,0.00,0.12,VWS V14.01,2013-07-19 02:31:00,
2013-07-18 22:32:00,79.1,66.9,29.98,WSW,245,5.1,5.1,66,0.00,,,0.00,0.00,VWS V14.01,2013-07-19 02:32:00,
2013-07-18 22:33:00,79.2,66.9,29.98,WSW,247,5.1,5.1,66,0.00,,,0.00,0.00,VWS V14.01,2013-07-19 02:33:00,
2013-07-18 22:34:00,78.9,66.6,29.97,WSW,242,4.9,5.1,66,0.00,,,0.00,0.00,VWS V14.01,2013-07-19 02:34:00,
2013-07-18 22:35:00,78.9,66.9,29.99,WSW,239,4.4,4.9,67,0.00,,,0.00,0.00,VWS V14.01,2013-07-19 02:35:00,
2013-07-18 22:36:00,78.8,66.9,29.98,WSW,249,4.7,4.7,67,0.00,,,0.00,0.00,VWS V14.01,2013-07-19 02:36:00,
2013-07-18 22:37:00,79.1,67.0,29.98,WSW,256,4.7,4.7,67,0.00,,,0.00,0.43,VWS V14.01,2013-07-19 02:37:00,
2013-07-18 22:38:00,78.9,66.8,29.98,WSW,242,4.5,4.5,67,0.00,,,0.00,0.00,VWS V14.01,2013-07-19 02:38:00,
2013-07-18 22:39:00,78.8,67.1,29.98,WSW,251,4.2,4.5,67,0.00,,,0.00,0.00,VWS V14.01,2013-07-19 02:39:00,
2013-07-18 22:40:00,78.8,67.1,29.98,WSW,254,4.0,4.9,67,0.00,,,0.00,0.00,VWS V14.01,2013-07-19 02:40:00,
2013-07-18 22:41:00,78.6,66.9,29.98,WSW,255,4.2,4.5,67,0.00,,,0.00,0.00,VWS V14.01,2013-07-19 02:41:00,
2013-07-18 22:42:00,78.9,67.1,29.99,WSW,257,4.2,4.5,67,0.00,,,0.00,0.43,VWS V14.01,2013-07-19 02:42:00,
2013-07-18 22:43:00,78.8,67.2,29.98,WSW,251,3.9,4.2,68,0.00,,,0.00,0.00,VWS V14.01,2013-07-19 02:43:00,
2013-07-18 22:44:00,78.9,67.1,30.00,WSW,250,4.4,5.2,67,0.00,,,0.00,0.00,VWS V14.01,2013-07-19 02:44:00,
2013-07-18 22:45:00,78.9,67.1,29.99,WSW,250,4.9,4.9,67,0.00,,,0.00,0.00,VWS V14.01,2013-07-19 02:45:00,
2013-07-18 22:46:00,78.7,66.9,29.98,WSW,254,4.4,4.9,67,0.00,,,0.00,0.00,VWS V14.01,2013-07-19 02:46:00,
2013-07-18 22:47:00,78.6,66.8,29.98,WSW,247,4.4,4.4,67,0.00,,,0.00,0.00,VWS V14.01,2013-07-19 02:47:00,
2013-07-18 22:48:00,78.3,66.9,29.98,WSW,245,3.9,4.5,68,0.00,,,0.00,0.00,VWS V14.01,2013-07-19 02:48:00,
2013-07-18 22:49:00,78.7,67.2,29.98,WSW,252,4.7,4.7,68,0.00,,,0.00,0.43,VWS V14.01,2013-07-19 02:49:00,
2013-07-18 22:50:00,78.7,67.4,29.98,WSW,246,5.2,5.2,68,0.00,,,0.00,0.00,VWS V14.01,2013-07-19 02:50:00,
2013-07-18 22:51:00,78.5,67.4,29.98,WSW,240,4.9,5.2,69,0.00,,,0.00,0.00,VWS V14.01,2013-07-19 02:51:00,
2013-07-18 22:52:00,78.4,67.2,29.98,WSW,251,4.5,4.9,68,0.00,,,0.00,0.00,VWS V14.01,2013-07-19 02:52:00,
2013-07-18 22:53:00,78.6,67.4,29.98,WSW,240,4.9,4.9,69,0.00,,,0.00,0.00,VWS V14.01,2013-07-19 02:53:00,
2013-07-18 22:54:00,78.3,67.4,29.98,WSW,247,3.4,4.9,69,0.00,,,0.00,0.00,VWS V14.01,2013-07-19 02:54:00,
2013-07-18 22:55:00,78.3,67.3,29.98,SW,226,4.4,4.9,69,0.00,,,0.00,0.00,VWS V14.01,2013-07-19 02:55:00,
2013-07-18 22:56:00,78.6,67.4,29.97,SW,228,5.6,5.6,69,0.00,,,0.00,0.00,VWS V14.01,2013-07-19 02:56:00,
2013-07-18 22:57:00,78.3,67.2,29.98,WSW,251,3.5,5.6,69,0.00,,,0.00,0.00,VWS V14.01,2013-07-19 02:57:00,
2013-07-18 22:58:00,78.1,67.1,29.97,SW,229,3.4,3.5,69,0.00,,,0.00,0.00,VWS V14.01,2013-07-19 02:58:00,
2013-07-18 22:59:00,78.1,67.3,29.98,WSW,243,3.4,4.2,69,0.00,,,0.00,0.73,VWS V14.01,2013-07-19 02:59:00,
2013-07-18 23:00:00,78.2,67.5,29.98,WSW,240,4.0,4.0,70,0.00,,,0.00,0.00,VWS V14.01,2013-07-19 03:00:00,
2013-07-18 23:01:00,78.1,67.5,29.97,WSW,238,3.9,4.0,70,0.00,,,0.00,0.43,VWS V14.01,2013-07-19 03:01:00,
2013-07-18 23:02:00,77.9,67.3,29.97,WSW,237,4.0,4.0,70,0.00,,,0.00,0.00,VWS V14.01,2013-07-19 03:02:00,
2013-07-18 23:03:00,78.1,67.5,29.97,SW,236,3.7,4.0,70,0.00,,,0.00,0.43,VWS V14.01,2013-07-19 03:03:00,
2013-07-18 23:06:00,78.1,67.5,29.98,WSW,239,4.0,4.0,70,0.00,,,0.00,0.00,VWS V14.01,2013-07-19 03:06:00,
2013-07-18 23:07:00,78.3,67.7,29.98,WSW,242,5.2,5.2,70,0.00,,,0.00,0.00,VWS V14.01,2013-07-19 03:07:00,
2013-07-18 23:08:00,78.2,67.6,29.98,WSW,240,4.4,5.2,70,0.00,,,0.00,0.00,VWS V14.01,2013-07-19 03:08:00,
2013-07-18 23:09:00,77.8,67.5,29.98,SW,235,4.2,4.5,71,0.00,,,0.00,0.00,VWS V14.01,2013-07-19 03:09:00,
2013-07-18 23:12:00,78.1,67.7,29.98,WSW,244,4.4,4.5,70,0.00,,,0.00,0.00,VWS V14.01,2013-07-19 03:12:00,
2013-07-18 23:13:00,78.2,67.6,29.98,WSW,240,3.5,5.6,70,0.00,,,0.00,0.00,VWS V14.01,2013-07-19 03:13:00,
2013-07-18 23:14:00,78.2,67.6,29.98,WSW,240,3.5,3.5,70,0.00,,,0.00,0.00,VWS V14.01,2013-07-19 03:14:00,
2013-07-18 23:16:00,77.9,67.3,29.99,SW,236,3.7,4.2,70,0.00,,,0.00,0.06,VWS V14.01,2013-07-19 03:16:00,
2013-07-18 23:18:00,78.1,67.7,29.98,WSW,242,4.4,4.4,70,0.00,,,0.00,0.00,VWS V14.01,2013-07-19 03:18:00,
2013-07-18 23:19:00,78.2,67.8,29.98,SW,235,4.9,4.9,70,0.00,,,0.00,0.00,VWS V14.01,2013-07-19 03:19:00,
2013-07-18 23:22:00,78.3,67.7,29.97,WSW,255,4.5,5.9,70,0.00,,,0.00,0.00,VWS V14.01,2013-07-19 03:22:00,
2013-07-18 23:23:00,78.1,67.6,29.98,WSW,239,4.7,4.7,70,0.00,,,0.00,0.00,VWS V14.01,2013-07-19 03:23:00,
2013-07-18 23:24:00,78.2,67.6,29.98,WSW,241,4.9,5.1,70,0.00,,,0.00,0.00,VWS V14.01,2013-07-19 03:24:00,
2013-07-18 23:25:00,78.0,67.4,29.98,WSW,248,4.2,5.1,70,0.00,,,0.00,0.00,VWS V14.01,2013-07-19 03:25:00,
2013-07-18 23:28:00,78.4,67.6,29.98,WSW,240,5.2,5.2,69,0.00,,,0.00,0.00,VWS V14.01,2013-07-19 03:28:00,
2013-07-18 23:29:00,78.1,67.2,29.98,WSW,258,4.5,4.5,69,0.00,,,0.00,0.43,VWS V14.01,2013-07-19 03:29:00,
2013-07-18 23:30:00,78.8,67.8,29.98,WSW,239,5.4,5.4,69,0.00,,,0.00,0.00,VWS V14.01,2013-07-19 03:30:00,
2013-07-18 23:31:00,78.6,67.3,29.98,West,264,6.9,6.9,68,0.00,,,0.00,0.00,VWS V14.01,2013-07-19 03:31:00,
2013-07-18 23:33:00,78.5,67.3,29.98,WSW,248,6.1,6.1,68,0.00,,,0.00,0.43,VWS V14.01,2013-07-19 03:33:00,
2013-07-18 23:35:00,78.4,66.9,29.98,WSW,240,6.3,6.3,68,0.00,,,0.00,0.00,VWS V14.01,2013-07-19 03:35:00,
2013-07-18 23:36:00,78.2,66.8,29.98,WSW,237,4.7,6.3,68,0.00,,,0.00,0.00,VWS V14.01,2013-07-19 03:36:00,
2013-07-18 23:37:00,78.2,66.8,29.98,SW,234,4.9,6.3,68,0.00,,,0.00,0.00,VWS V14.01,2013-07-19 03:37:00,
2013-07-18 23:38:00,77.9,67.0,29.98,WSW,245,4.5,4.5,69,0.00,,,0.00,0.00,VWS V14.01,2013-07-19 03:38:00,
2013-07-18 23:39:00,77.9,67.0,29.98,WSW,245,4.5,4.5,69,0.00,,,0.00,0.00,VWS V14.01,2013-07-19 03:39:00,
2013-07-18 23:41:00,78.0,67.2,29.98,WSW,245,4.0,5.9,70,0.00,,,0.00,0.00,VWS V14.01,2013-07-19 03:41:00,
2013-07-18 23:42:00,78.5,67.6,29.98,WSW,243,6.3,6.3,69,0.00,,,0.00,0.00,VWS V14.01,2013-07-19 03:42:00,
2013-07-18 23:44:00,78.4,67.5,29.98,WSW,245,4.2,4.5,69,0.00,,,0.00,0.00,VWS V14.01,2013-07-19 03:44:00,
2013-07-18 23:46:00,78.2,67.3,29.97,WSW,254,4.9,4.9,69,0.00,,,0.00,0.00,VWS V14.01,2013-07-19 03:46:00,
2013-07-18 23:47:00,77.7,67.0,29.97,WSW,246,3.7,4.9,70,0.00,,,0.00,0.00,VWS V14.01,2013-07-19 03:47:00,
2013-07-18 23:49:00,77.7,67.3,29.97,WSW,239,4.2,4.2,70,0.00,,,0.00,0.00,VWS V14.01,2013-07-19 03:49:00,
2013-07-18 23:51:00,77.8,67.5,29.98,WSW,238,4.9,4.9,71,0.00,,,0.00,0.00,VWS V14.01,2013-07-19 03:51:00,
2013-07-18 23:52:00,77.8,67.5,29.98,WSW,239,4.2,4.9,70,0.00,,,0.00,0.00,VWS V14.01,2013-07-19 03:52:00,
2013-07-18 23:55:00,77.4,67.2,29.98,WSW,250,3.4,3.4,71,0.00,,,0.00,0.43,VWS V14.01,2013-07-19 03:55:00,
2013-07-18 23:57:00,77.6,67.6,29.98,WSW,245,3.7,4.0,71,0.00,,,0.00,0.00,VWS V14.01,2013-07-19 03:57:00,
2013-07-18 23:58:00,77.7,67.6,29.98,West,259,4.5,4.5,71,0.00,,,0.00,0.00,VWS V14.01,2013-07-19 03:58:00,